ftp/pub/palmer/observations_modified/2017/June/AR170608_BASE.txt
Download
Sample DateTime Unit Id WS Avg 2min WD Avg 2min WGS 10min WGD 10min Air Temp Rel Humidity Dew Point Pyranometer Quantum Air Pressure Snow Level Rainfall PW Current Visibility CBase 1 CBase 2 CBase 3 Vert Vis
2017/06/08 00:00:00 BASE 17.68 4 19.24 4 -2.2 76 -5.8 0 0 985.4 NA 0.0000 -SN 9999 360 0 0 0
2017/06/08 00:01:00 BASE 17.23 4 19.24 4 -2.2 76 -5.9 0 0 985.5 NA 0.0000 9999 300 0 0 0
2017/06/08 00:02:00 BASE 16.32 5 19.24 4 -2.2 75 -5.9 0 0 985.6 NA 0.0000 9999 0 0 0 1770
2017/06/08 00:03:00 BASE 15.54 7 19.24 4 -2.2 75 -6.0 0 0 985.5 NA 0.0000 9999 330 0 0 0
2017/06/08 00:04:00 BASE 15.17 9 19.24 4 -2.2 75 -6.0 0 0 985.5 NA 0.0000 9999 0 0 0 620
2017/06/08 00:05:00 BASE 14.88 10 19.24 4 -2.3 75 -6.1 0 0 985.5 NA 0.0000 9999 330 0 0 0
2017/06/08 00:06:00 BASE 15.04 12 19.24 4 -2.3 75 -6.1 0 0 985.5 NA 0.0000 9999 0 0 0 620
2017/06/08 00:07:00 BASE 15.61 11 19.24 4 -2.4 76 -6.1 0 0 985.4 NA 0.0000 9999 0 0 0 0
2017/06/08 00:08:00 BASE 14.75 9 19.24 4 -2.4 76 -6.1 0 0 985.5 NA 0.0000 9999 0 0 0 0
2017/06/08 00:09:00 BASE 14.43 9 18.57 360 -2.4 76 -6.1 0 0 985.5 NA 0.0000 9999 0 0 0 0
2017/06/08 00:10:00 BASE 15.07 7 18.11 7 -2.4 76 -6.1 0 0 985.5 NA 0.0000 9999 0 0 0 0
2017/06/08 00:11:00 BASE 15.70 7 18.11 7 -2.4 75 -6.2 0 0 985.4 NA 0.0000 9999 0 0 0 0
2017/06/08 00:12:00 BASE 16.34 7 18.37 14 -2.3 75 -6.2 0 0 985.4 NA 0.0000 9999 0 0 0 0
2017/06/08 00:13:00 BASE 16.61 6 18.78 10 -2.3 74 -6.2 0 0 985.4 NA 0.0000 9999 0 0 0 0
2017/06/08 00:14:00 BASE 16.76 5 18.78 10 -2.2 74 -6.2 0 0 985.5 NA 0.0000 9999 0 0 0 0
2017/06/08 00:15:00 BASE 16.44 3 18.78 10 -2.2 74 -6.2 0 0 985.6 NA 0.0000 9999 0 0 0 0
2017/06/08 00:16:00 BASE 16.26 5 18.78 10 -2.2 74 -6.2 0 0 985.6 NA 0.0000 9999 0 0 0 0
2017/06/08 00:17:00 BASE 15.32 7 18.78 10 -2.1 74 -6.2 0 0 985.7 NA 0.0000 9999 750 0 0 0
2017/06/08 00:18:00 BASE 14.34 7 18.78 10 -2.1 74 -6.2 0 0 985.8 NA 0.0000 9999 0 0 0 3280
2017/06/08 00:19:00 BASE 13.69 8 18.78 10 -2.2 73 -6.3 0 0 985.9 NA 0.0000 9999 0 0 0 4590
2017/06/08 00:20:00 BASE 13.98 10 18.78 10 -2.2 73 -6.3 0 0 985.8 NA 0.0000 -SN 9999 260 0 0 0
2017/06/08 00:21:00 BASE 15.01 9 18.78 10 -2.3 73 -6.4 0 0 985.8 NA 0.0000 -SN 9999 230 0 0 0
2017/06/08 00:22:00 BASE 14.73 9 18.78 10 -2.3 73 -6.4 0 0 985.9 NA 0.0000 -SN 9999 330 4230 0 0
2017/06/08 00:23:00 BASE 14.02 10 17.90 2 -2.4 74 -6.4 0 0 985.9 NA 0.0000 -SN 9999 0 0 0 560
2017/06/08 00:24:00 BASE 14.39 12 17.23 8 -2.4 74 -6.3 0 0 985.9 NA 0.0000 -SN 9999 0 0 0 460
2017/06/08 00:25:00 BASE 14.01 9 17.23 8 -2.4 75 -6.3 0 0 985.9 NA 0.0000 -SN 9999 0 0 0 390
2017/06/08 00:26:00 BASE 12.87 8 16.77 12 -2.5 75 -6.2 0 0 985.9 NA 0.0000 -SN 9999 0 0 0 0
2017/06/08 00:27:00 BASE 13.27 10 17.95 8 -2.5 76 -6.1 0 0 985.9 NA 0.0000 -SN 9999 0 0 0 0
2017/06/08 00:28:00 BASE 15.03 9 17.95 8 -2.5 76 -6.1 0 0 985.7 NA 0.0000 -SN 9999 4300 0 0 0
2017/06/08 00:29:00 BASE 15.92 11 17.95 8 -2.5 76 -6.1 0 0 985.8 NA 0.0000 -SN 9999 4270 0 0 0
2017/06/08 00:30:00 BASE 15.36 10 17.95 8 -2.5 76 -6.1 0 0 985.9 NA 0.0000 -SN 9999 200 0 0 0
2017/06/08 00:31:00 BASE 15.21 9 17.95 8 -2.5 76 -6.1 0 0 985.9 NA 0.0000 -SN 9999 4330 0 0 0
2017/06/08 00:32:00 BASE 14.89 10 17.95 8 -2.5 76 -6.1 0 0 985.9 NA 0.0000 -SN 9999 230 3380 0 0
2017/06/08 00:33:00 BASE 14.32 10 17.95 8 -2.5 76 -6.1 0 0 985.9 NA 0.0000 -SN M 4360 0 0 0
2017/06/08 00:34:00 BASE 13.99 11 17.95 8 -2.5 77 -6.0 0 0 985.9 NA 0.0000 -SN M 4990 0 0 0
2017/06/08 00:35:00 BASE 13.44 10 17.95 8 -2.5 77 -6.0 0 0 986.0 NA 0.0000 -SN M 0 0 0 390
2017/06/08 00:36:00 BASE 12.87 8 17.95 8 -2.5 77 -5.9 0 0 986.0 NA 0.0000 -SN 9999 0 0 0 0
2017/06/08 00:37:00 BASE 12.67 10 17.90 9 -2.4 77 -5.9 0 0 986.0 NA 0.0000 -SN 9999 0 0 0 0
2017/06/08 00:38:00 BASE 13.90 13 17.90 9 -2.4 77 -5.9 0 0 985.9 NA 0.0000 -SN 9999 0 0 0 0
2017/06/08 00:39:00 BASE 14.75 11 17.90 9 -2.4 76 -6.0 0 0 985.9 NA 0.0000 -SN 9999 0 0 0 0
2017/06/08 00:40:00 BASE 14.88 10 17.75 7 -2.4 76 -6.1 0 0 985.9 NA 0.0000 -SN 9999 3450 4230 0 0
2017/06/08 00:41:00 BASE 14.75 14 16.82 10 -2.4 75 -6.2 0 0 985.9 NA 0.0000 -SN 9999 0 0 0 0
2017/06/08 00:42:00 BASE 14.15 12 16.82 10 -2.4 75 -6.3 0 0 985.9 NA 0.0000 -SN 9999 0 0 0 0
2017/06/08 00:43:00 BASE 14.81 9 17.08 14 -2.4 74 -6.3 0 0 985.8 NA 0.0000 -SN 9999 0 0 0 0
2017/06/08 00:44:00 BASE 15.13 10 17.08 14 -2.4 74 -6.4 0 0 985.9 NA 0.0000 9999 0 0 0 0
2017/06/08 00:45:00 BASE 14.51 12 17.08 14 -2.4 74 -6.4 0 0 985.9 NA 0.0000 9999 0 0 0 0
2017/06/08 00:46:00 BASE 13.91 8 17.08 14 -2.4 74 -6.4 0 0 985.9 NA 0.0000 9999 0 0 0 0
2017/06/08 00:47:00 BASE 13.35 5 17.08 14 -2.3 73 -6.4 0 0 985.9 NA 0.0000 9999 0 0 0 0
2017/06/08 00:48:00 BASE 13.38 5 17.08 14 -2.3 73 -6.4 0 0 985.9 NA 0.0000 9999 16010 0 0 0
2017/06/08 00:49:00 BASE 14.03 5 17.08 3 -2.2 73 -6.4 0 0 985.9 NA 0.0000 9999 3770 0 0 0
2017/06/08 00:50:00 BASE 14.77 10 17.65 17 -2.2 73 -6.4 0 0 985.8 NA 0.0000 9999 0 0 0 950
2017/06/08 00:51:00 BASE 15.20 12 17.65 17 -2.2 73 -6.5 0 0 985.9 NA 0.0000 9999 300 0 0 0
2017/06/08 00:52:00 BASE 15.54 9 17.65 17 -2.2 73 -6.5 0 0 985.9 NA 0.0000 9999 0 0 0 1800
2017/06/08 00:53:00 BASE 15.26 9 17.65 17 -2.3 73 -6.5 0 0 985.9 NA 0.0000 -SN 9999 0 0 0 2530
2017/06/08 00:54:00 BASE 14.31 10 17.65 17 -2.4 74 -6.4 0 0 986.0 NA 0.0000 -SN 9999 260 0 0 0
2017/06/08 00:55:00 BASE 13.73 13 17.65 17 -2.4 75 -6.3 0 0 985.9 NA 0.0000 -SN 9999 0 0 0 950
2017/06/08 00:56:00 BASE 14.36 13 17.65 17 -2.5 76 -6.2 0 0 985.8 NA 0.0000 -SN 9999 0 0 0 0
2017/06/08 00:57:00 BASE 15.27 10 17.90 2 -2.6 76 -6.1 0 0 985.7 NA 0.0000 -SN 9999 0 0 0 0
2017/06/08 00:58:00 BASE 15.92 9 18.01 4 -2.6 77 -6.1 0 0 985.6 NA 0.0000 -SN 9999 0 0 0 0
2017/06/08 00:59:00 BASE 15.93 6 18.01 4 -2.6 77 -6.1 0 0 985.7 NA 0.0000 -SN 9999 0 0 0 0
2017/06/08 01:00:00 BASE 15.94 5 18.01 4 -2.5 76 -6.1 0 0 985.6 NA 0.0000 -SN 9999 0 0 0 0
2017/06/08 01:01:00 BASE 16.19 7 18.01 4 -2.4 76 -6.1 0 0 985.7 NA 0.0000 -SN 9999 0 0 0 0
2017/06/08 01:02:00 BASE 15.23 8 18.01 4 -2.3 75 -6.1 0 0 985.8 NA 0.0000 -SN 9999 12730 0 0 0
2017/06/08 01:03:00 BASE 14.67 10 18.01 4 -2.3 75 -6.2 0 0 985.7 NA 0.0000 -SN 9999 12760 0 0 0
2017/06/08 01:04:00 BASE 15.33 11 18.01 4 -2.3 74 -6.3 0 0 985.7 NA 0.0000 9999 12730 0 0 0
2017/06/08 01:05:00 BASE 15.56 9 18.01 4 -2.2 74 -6.3 0 0 985.6 NA 0.0000 9999 4590 0 0 0
2017/06/08 01:06:00 BASE 15.92 7 18.16 6 -2.2 73 -6.4 0 0 985.6 NA 0.0000 9999 12470 0 0 0
2017/06/08 01:07:00 BASE 15.60 7 18.16 6 -2.2 73 -6.4 0 0 985.7 NA 0.0000 9999 12760 0 0 0
2017/06/08 01:08:00 BASE 15.55 9 18.16 6 -2.2 73 -6.4 0 0 985.5 NA 0.0000 9999 12630 0 0 0
2017/06/08 01:09:00 BASE 16.29 11 18.16 6 -2.2 73 -6.4 0 0 985.5 NA 0.0000 9999 4590 0 0 0
2017/06/08 01:10:00 BASE 16.08 13 18.16 6 -2.2 73 -6.4 0 0 985.5 NA 0.0000 9999 5150 0 0 0
2017/06/08 01:11:00 BASE 15.80 11 18.16 6 -2.1 72 -6.4 0 0 985.5 NA 0.0000 9999 4460 0 0 0
2017/06/08 01:12:00 BASE 15.69 8 18.16 6 -2.1 72 -6.4 0 0 985.6 NA 0.0000 9999 3710 0 0 0
2017/06/08 01:13:00 BASE 15.35 9 18.16 6 -2.1 72 -6.4 0 0 985.5 NA 0.0000 9999 12010 0 0 0
2017/06/08 01:14:00 BASE 14.77 10 18.16 6 -2.0 72 -6.5 0 0 985.6 NA 0.0000 9999 5120 0 0 0
2017/06/08 01:15:00 BASE 15.44 11 18.16 6 -2.0 72 -6.5 0 0 985.4 NA 0.0000 9999 4330 0 0 0
2017/06/08 01:16:00 BASE 15.62 10 18.11 10 -2.0 71 -6.5 0 0 985.5 NA 0.0000 9999 5350 0 0 0
2017/06/08 01:17:00 BASE 14.99 10 18.11 10 -2.0 71 -6.5 0 0 985.5 NA 0.0000 9999 0 0 0 0
2017/06/08 01:18:00 BASE 14.95 11 17.90 6 -2.0 71 -6.6 0 0 985.5 NA 0.0000 9999 0 0 0 0
2017/06/08 01:19:00 BASE 15.18 10 17.90 6 -2.0 71 -6.6 0 0 985.5 NA 0.0000 9999 5280 0 0 0
2017/06/08 01:20:00 BASE 15.10 8 17.90 6 -2.0 71 -6.6 0 0 985.6 NA 0.0000 9999 5050 0 0 0
2017/06/08 01:21:00 BASE 14.92 8 17.90 6 -2.0 71 -6.5 0 0 985.6 NA 0.0000 9999 5220 0 0 0
2017/06/08 01:22:00 BASE 15.57 8 17.95 6 -2.0 71 -6.5 0 0 985.6 NA 0.0000 9999 4860 0 0 0
2017/06/08 01:23:00 BASE 16.12 11 18.06 13 -1.9 71 -6.4 0 0 985.6 NA 0.0000 9999 4950 0 0 0
2017/06/08 01:24:00 BASE 15.69 13 18.06 13 -1.9 71 -6.4 0 0 985.7 NA 0.0000 9999 4360 0 0 0
2017/06/08 01:25:00 BASE 14.93 11 18.06 13 -1.9 71 -6.4 0 0 985.8 NA 0.0000 9999 5320 0 0 0
2017/06/08 01:26:00 BASE 14.35 11 18.06 13 -1.9 71 -6.5 0 0 985.8 NA 0.0000 9999 5120 0 0 0
2017/06/08 01:27:00 BASE 14.89 11 18.06 13 -2.0 71 -6.5 0 0 985.7 NA 0.0000 9999 4360 0 0 0
2017/06/08 01:28:00 BASE 14.98 12 18.06 13 -2.0 71 -6.5 0 0 985.8 NA 0.0000 9999 0 0 0 1180
2017/06/08 01:29:00 BASE 14.63 13 18.06 13 -2.0 71 -6.6 0 0 985.7 NA 0.0000 9999 4690 0 0 0
2017/06/08 01:30:00 BASE 14.37 13 18.06 13 -2.0 71 -6.6 0 0 985.8 NA 0.0000 9999 3410 4360 0 0
2017/06/08 01:31:00 BASE 14.34 14 18.06 13 -2.0 71 -6.6 0 0 985.7 NA 0.0000 9999 3250 5180 0 0
2017/06/08 01:32:00 BASE 14.74 13 18.06 13 -2.1 71 -6.6 0 0 985.7 NA 0.0000 9999 4920 0 0 0
2017/06/08 01:33:00 BASE 14.50 12 17.54 12 -2.1 71 -6.7 0 0 985.7 NA 0.0000 9999 4530 0 0 0
2017/06/08 01:34:00 BASE 14.21 11 17.54 12 -2.2 71 -6.7 0 0 985.8 NA 0.0000 9999 0 0 0 490
2017/06/08 01:35:00 BASE 13.62 11 17.54 12 -2.2 71 -6.7 0 0 985.8 NA 0.0000 9999 4950 0 0 0
2017/06/08 01:36:00 BASE 13.76 14 17.54 12 -2.2 72 -6.6 0 0 985.8 NA 0.0000 9999 4760 0 0 0
2017/06/08 01:37:00 BASE 14.43 14 16.87 21 -2.2 72 -6.5 0 0 985.7 NA 0.0000 9999 4400 0 0 0
2017/06/08 01:38:00 BASE 14.22 13 16.87 21 -2.2 73 -6.4 0 0 985.8 NA 0.0000 9999 4460 0 0 0
2017/06/08 01:39:00 BASE 14.19 12 16.87 21 -2.2 73 -6.4 0 0 985.8 NA 0.0000 9999 4630 0 0 0
2017/06/08 01:40:00 BASE 14.98 11 16.87 14 -2.1 73 -6.3 0 0 985.7 NA 0.0000 9999 4630 0 0 0
2017/06/08 01:41:00 BASE 15.05 13 16.87 14 -2.1 73 -6.3 0 0 985.7 NA 0.0000 9999 4690 0 0 0
2017/06/08 01:42:00 BASE 15.29 14 16.87 14 -2.1 73 -6.3 0 0 985.6 NA 0.0000 9999 4300 0 0 0
2017/06/08 01:43:00 BASE 15.92 14 17.34 9 -2.1 73 -6.3 0 0 985.6 NA 0.0000 9999 4490 0 0 0
2017/06/08 01:44:00 BASE 15.40 14 17.34 9 -2.1 73 -6.3 0 0 985.6 NA 0.0000 9999 4360 0 0 0
2017/06/08 01:45:00 BASE 14.75 13 17.34 9 -2.1 73 -6.4 0 0 985.6 NA 0.0000 9999 4400 0 0 0
2017/06/08 01:46:00 BASE 15.25 14 17.65 24 -2.1 72 -6.4 0 0 985.6 NA 0.0000 9999 0 0 0 0
2017/06/08 01:47:00 BASE 15.56 15 17.65 24 -2.1 72 -6.4 0 0 985.6 NA 0.0000 9999 0 0 0 0
2017/06/08 01:48:00 BASE 15.40 15 17.65 24 -2.1 72 -6.5 0 0 985.6 NA 0.0000 9999 0 0 0 430
2017/06/08 01:49:00 BASE 14.75 15 17.65 24 -2.1 72 -6.5 0 0 985.6 NA 0.0000 9999 4560 0 0 0
2017/06/08 01:50:00 BASE 14.40 16 17.65 24 -2.2 72 -6.5 0 0 985.6 NA 0.0000 9999 4430 0 0 0
2017/06/08 01:51:00 BASE 14.51 15 17.65 24 -2.2 72 -6.5 0 0 985.6 NA 0.0000 -SN 9999 4170 0 0 0
2017/06/08 01:52:00 BASE 14.25 13 17.65 24 -2.2 72 -6.5 0 0 985.6 NA 0.0000 -SN 9999 3940 0 0 0
2017/06/08 01:53:00 BASE 14.35 13 17.65 24 -2.3 73 -6.5 0 0 985.6 NA 0.0000 -SN 9999 5810 0 0 0
2017/06/08 01:54:00 BASE 14.73 15 17.65 24 -2.3 73 -6.5 0 0 985.5 NA 0.0000 -SN 9999 5970 0 0 0
2017/06/08 01:55:00 BASE 14.87 16 17.65 24 -2.3 73 -6.5 0 0 985.5 NA 0.0000 -SN 9999 5410 0 0 0
2017/06/08 01:56:00 BASE 14.93 16 17.44 16 -2.3 73 -6.5 0 0 985.5 NA 0.0000 -SN 9999 4400 0 0 0
2017/06/08 01:57:00 BASE 15.26 15 18.11 19 -2.3 73 -6.5 0 0 985.5 NA 0.0000 -SN 9999 4360 0 0 0
2017/06/08 01:58:00 BASE 14.71 13 18.11 19 -2.3 73 -6.6 0 0 985.6 NA 0.0000 -SN 9999 4530 0 0 0
2017/06/08 01:59:00 BASE 13.99 13 18.11 19 -2.3 72 -6.6 0 0 985.6 NA 0.0000 -SN 9999 4230 0 0 0
2017/06/08 02:00:00 BASE 14.76 14 18.11 19 -2.3 72 -6.6 0 0 985.5 NA 0.0000 9999 4430 0 0 0
2017/06/08 02:01:00 BASE 15.34 15 18.11 19 -2.3 72 -6.6 0 0 985.6 NA 0.0000 9999 4760 0 0 0
2017/06/08 02:02:00 BASE 14.94 14 18.11 19 -2.3 73 -6.6 0 0 985.7 NA 0.0000 9999 4720 0 0 0
2017/06/08 02:03:00 BASE 14.70 17 18.11 19 -2.3 73 -6.5 0 0 985.6 NA 0.0000 9999 5280 0 0 0
2017/06/08 02:04:00 BASE 14.58 19 18.11 19 -2.3 72 -6.6 0 0 985.7 NA 0.0000 9999 0 0 0 5350
2017/06/08 02:05:00 BASE 14.28 15 18.11 19 -2.3 72 -6.6 0 0 985.7 NA 0.0000 9999 1080 0 0 0
2017/06/08 02:06:00 BASE 14.56 12 18.11 19 -2.3 72 -6.7 0 0 985.6 NA 0.0000 9999 4890 0 0 0
2017/06/08 02:07:00 BASE 15.35 14 16.98 17 -2.3 71 -6.8 0 0 985.6 NA 0.0000 9999 5050 0 0 0
2017/06/08 02:08:00 BASE 15.37 15 16.98 17 -2.3 71 -6.9 0 0 985.6 NA 0.0000 9999 4760 6200 0 0
2017/06/08 02:09:00 BASE 14.74 15 16.98 17 -2.4 71 -6.9 0 0 985.7 NA 0.0000 9999 1210 0 0 0
2017/06/08 02:10:00 BASE 14.29 13 16.98 17 -2.4 71 -6.9 0 0 985.7 NA 0.0000 9999 590 0 0 0
2017/06/08 02:11:00 BASE 14.14 11 16.98 17 -2.4 72 -6.8 0 0 985.7 NA 0.0000 9999 430 0 0 0
2017/06/08 02:12:00 BASE 14.48 13 16.98 17 -2.4 72 -6.8 0 0 985.7 NA 0.0000 9999 0 0 0 3810
2017/06/08 02:13:00 BASE 14.82 14 16.98 17 -2.3 72 -6.7 0 0 985.7 NA 0.0000 9999 0 0 0 4630
2017/06/08 02:14:00 BASE 14.80 12 16.98 17 -2.3 72 -6.6 0 0 985.7 NA 0.0000 9999 520 0 0 0
2017/06/08 02:15:00 BASE 14.88 12 17.34 21 -2.3 73 -6.6 0 0 985.7 NA 0.0000 9999 390 0 0 0
2017/06/08 02:16:00 BASE 14.84 17 17.34 21 -2.3 73 -6.5 0 0 985.7 NA 0.0000 9999 330 0 0 0
2017/06/08 02:17:00 BASE 14.80 19 17.34 21 -2.3 73 -6.5 0 0 985.6 NA 0.0000 9999 390 0 0 0
2017/06/08 02:18:00 BASE 14.81 17 17.34 21 -2.3 73 -6.5 0 0 985.6 NA 0.0000 -SN 9999 0 0 0 4790
2017/06/08 02:19:00 BASE 14.75 17 17.34 21 -2.3 73 -6.4 0 0 985.6 NA 0.0000 -SN 9999 0 0 0 820
2017/06/08 02:20:00 BASE 14.24 18 17.34 21 -2.3 73 -6.4 0 0 985.6 NA 0.0000 -SN 9999 0 0 0 920
2017/06/08 02:21:00 BASE 13.79 20 17.34 21 -2.3 73 -6.4 0 0 985.6 NA 0.0000 -SN 9999 0 0 0 1120
2017/06/08 02:22:00 BASE 13.60 20 17.34 21 -2.3 73 -6.4 0 0 985.6 NA 0.0000 -SN 9999 0 0 0 1670
2017/06/08 02:23:00 BASE 14.12 19 17.34 21 -2.3 73 -6.5 0 0 985.5 NA 0.0000 -SN 9999 0 0 0 720
2017/06/08 02:24:00 BASE 14.25 19 17.34 21 -2.3 73 -6.6 0 0 985.5 NA 0.0000 -SN 9999 0 0 0 460
2017/06/08 02:25:00 BASE 13.88 18 16.98 22 -2.3 72 -6.6 0 0 985.6 NA 0.0000 -SN 9999 0 0 0 490
2017/06/08 02:26:00 BASE 14.43 15 17.18 10 -2.3 72 -6.7 0 0 985.5 NA 0.0000 -SN 9999 0 0 0 430
2017/06/08 02:27:00 BASE 14.82 14 17.18 10 -2.3 71 -6.8 0 0 985.5 NA 0.0000 -SN 9999 460 0 0 0
2017/06/08 02:28:00 BASE 14.77 15 17.18 10 -2.3 71 -6.8 0 0 985.6 NA 0.0000 UP 9999 330 0 0 0
2017/06/08 02:29:00 BASE 14.58 12 17.90 11 -2.3 71 -6.8 0 0 985.6 NA 0.0000 UP 9999 260 0 0 0
2017/06/08 02:30:00 BASE 14.86 10 17.90 11 -2.3 71 -6.8 0 0 985.6 NA 0.0000 UP 9999 0 0 0 2130
2017/06/08 02:31:00 BASE 14.78 14 17.90 11 -2.4 72 -6.8 0 0 985.6 NA 0.0000 UP 8000 0 0 0 1900
2017/06/08 02:32:00 BASE 14.68 15 17.90 11 -2.4 72 -6.7 0 0 985.6 NA 0.0000 UP 8000 0 0 0 1900
2017/06/08 02:33:00 BASE 14.81 17 17.90 11 -2.5 73 -6.7 0 0 985.6 NA 0.0000 UP 9000 0 0 0 1480
2017/06/08 02:34:00 BASE 14.44 18 17.90 11 -2.6 74 -6.6 0 0 985.6 NA 0.0000 UP 9999 0 0 0 690
2017/06/08 02:35:00 BASE 15.00 20 18.11 21 -2.7 75 -6.5 0 0 985.5 NA 0.0000 UP 9999 0 0 0 300
2017/06/08 02:36:00 BASE 15.51 21 18.11 21 -2.7 76 -6.4 0 0 985.5 NA 0.0000 UP 9999 0 0 0 0
2017/06/08 02:37:00 BASE 14.72 20 18.11 21 -2.7 76 -6.3 0 0 985.5 NA 0.0000 UP 9999 0 0 0 260
2017/06/08 02:38:00 BASE 14.84 18 18.11 21 -2.7 77 -6.2 0 0 985.5 NA 0.0000 UP 9999 0 0 0 590
2017/06/08 02:39:00 BASE 15.58 19 18.11 21 -2.7 77 -6.2 0 0 985.5 NA 0.0000 UP 9999 0 0 0 660
2017/06/08 02:40:00 BASE 15.30 22 18.11 21 -2.7 77 -6.2 0 0 985.5 NA 0.0000 UP 9999 0 0 0 260
2017/06/08 02:41:00 BASE 14.90 22 18.11 21 -2.7 76 -6.2 0 0 985.5 NA 0.0000 UP 9999 0 0 0 0
2017/06/08 02:42:00 BASE 14.70 23 18.11 21 -2.6 76 -6.3 0 0 985.4 NA 0.0000 UP 9999 10240 0 0 0
2017/06/08 02:43:00 BASE 14.46 23 18.11 21 -2.6 76 -6.3 0 0 985.4 NA 0.0000 UP 9999 10040 0 0 0
2017/06/08 02:44:00 BASE 14.29 21 18.11 21 -2.5 75 -6.3 0 0 985.4 NA 0.0000 UP 9999 9910 0 0 0
2017/06/08 02:45:00 BASE 14.16 20 17.54 18 -2.5 75 -6.3 0 0 985.4 NA 0.0000 UP 9999 9250 0 0 0
2017/06/08 02:46:00 BASE 13.77 20 17.54 18 -2.5 75 -6.3 0 0 985.4 NA 0.0000 UP 9999 9150 0 0 0
2017/06/08 02:47:00 BASE 14.07 21 17.54 18 -2.4 74 -6.3 0 0 985.3 NA 0.0000 UP 9999 9380 0 0 0
2017/06/08 02:48:00 BASE 14.43 19 17.54 18 -2.4 74 -6.3 0 0 985.3 NA 0.0000 UP 9999 9810 0 0 0
2017/06/08 02:49:00 BASE 13.98 17 17.29 17 -2.3 74 -6.3 0 0 985.3 NA 0.0000 9999 0 0 0 430
2017/06/08 02:50:00 BASE 13.41 20 17.29 17 -2.3 74 -6.4 0 0 985.4 NA 0.0000 9999 0 0 0 0
2017/06/08 02:51:00 BASE 13.75 20 17.29 17 -2.3 74 -6.4 0 0 985.3 NA 0.0000 9999 0 0 0 0
2017/06/08 02:52:00 BASE 14.24 17 17.29 17 -2.3 74 -6.4 0 0 985.3 NA 0.0000 9999 11390 0 0 0
2017/06/08 02:53:00 BASE 13.73 16 17.29 17 -2.3 74 -6.4 0 0 985.3 NA 0.0000 9999 11580 0 0 0
2017/06/08 02:54:00 BASE 14.09 17 17.29 17 -2.3 74 -6.4 0 0 985.2 NA 0.0000 9999 12240 0 0 0
2017/06/08 02:55:00 BASE 14.71 16 17.29 17 -2.4 74 -6.4 0 0 985.2 NA 0.0000 9999 0 0 0 660
2017/06/08 02:56:00 BASE 14.67 17 17.29 17 -2.4 74 -6.4 0 0 985.2 NA 0.0000 9999 0 0 0 950
2017/06/08 02:57:00 BASE 14.62 19 17.49 19 -2.4 74 -6.4 0 0 985.2 NA 0.0000 9999 0 0 0 1080
2017/06/08 02:58:00 BASE 14.45 20 17.49 19 -2.4 74 -6.4 0 0 985.2 NA 0.0000 UP 9999 0 0 0 560
2017/06/08 02:59:00 BASE 14.28 19 17.49 19 -2.5 74 -6.4 0 0 985.2 NA 0.0000 UP 9999 0 0 0 230
2017/06/08 03:00:00 BASE 14.51 18 17.65 11 -2.5 75 -6.4 0 0 985.2 NA 0.0000 UP 9999 0 0 0 0
2017/06/08 03:01:00 BASE 14.40 20 17.65 11 -2.5 75 -6.4 0 0 985.2 NA 0.0000 UP 9999 0 0 0 0
2017/06/08 03:02:00 BASE 13.91 18 17.65 11 -2.5 75 -6.3 0 0 985.2 NA 0.0000 UP 9999 0 0 0 360
2017/06/08 03:03:00 BASE 13.79 18 17.65 11 -2.5 75 -6.3 0 0 985.2 NA 0.0000 UP 9999 0 0 0 590
2017/06/08 03:04:00 BASE 14.20 17 17.65 11 -2.5 75 -6.3 0 0 985.1 NA 0.0000 UP 9999 0 0 0 850
2017/06/08 03:05:00 BASE 14.44 15 17.65 11 -2.4 75 -6.3 0 0 985.1 NA 0.0000 UP 9999 0 0 0 620
2017/06/08 03:06:00 BASE 14.29 18 17.65 11 -2.4 74 -6.3 0 0 985.1 NA 0.0000 UP 9999 6140 0 0 0
2017/06/08 03:07:00 BASE 14.39 18 17.65 11 -2.4 74 -6.3 0 0 985.1 NA 0.0000 UP 9999 6430 0 0 0
2017/06/08 03:08:00 BASE 13.78 18 17.65 11 -2.3 74 -6.3 0 0 985.2 NA 0.0000 UP 9999 5910 0 0 0
2017/06/08 03:09:01 BASE 14.01 17 17.65 11 -2.3 74 -6.3 0 0 985.1 NA 0.0000 UP 9999 4430 0 0 0
2017/06/08 03:10:00 BASE 15.31 14 17.29 8 -2.2 74 -6.3 0 0 985.1 NA 0.0000 UP 9999 5020 0 0 0
2017/06/08 03:11:00 BASE 14.58 12 17.29 8 -2.2 74 -6.2 0 0 985.2 NA 0.0000 UP 9999 4990 0 0 0
2017/06/08 03:12:00 BASE 14.28 12 17.29 8 -2.2 74 -6.2 0 0 985.1 NA 0.0000 UP 9999 5280 0 0 0
2017/06/08 03:13:00 BASE 14.76 14 17.29 8 -2.2 74 -6.2 0 0 985.1 NA 0.0000 UP 9999 4820 0 0 0
2017/06/08 03:14:00 BASE 14.90 14 17.29 8 -2.2 74 -6.2 0 0 985.1 NA 0.0000 UP 9999 4200 0 0 0
2017/06/08 03:15:00 BASE 14.88 15 17.29 8 -2.2 74 -6.2 0 0 985.1 NA 0.0000 UP 9999 3510 0 0 0
2017/06/08 03:16:00 BASE 14.74 14 17.54 7 -2.2 74 -6.2 0 0 985.0 NA 0.0000 UP 9999 0 0 0 6230
2017/06/08 03:17:00 BASE 14.47 12 17.54 7 -2.2 74 -6.2 0 0 985.1 NA 0.0000 UP 9999 0 0 0 5710
2017/06/08 03:18:00 BASE 14.08 13 17.54 7 -2.2 74 -6.2 0 0 985.1 NA 0.0000 UP 9999 0 0 0 5740
2017/06/08 03:19:00 BASE 14.34 13 17.54 7 -2.1 74 -6.2 0 0 985.1 NA 0.0000 UP 9999 0 0 0 1840
2017/06/08 03:20:00 BASE 14.97 13 18.21 18 -2.1 74 -6.2 0 0 985.1 NA 0.0000 UP 9999 430 0 0 0
2017/06/08 03:21:00 BASE 15.35 15 18.21 18 -2.1 74 -6.2 0 0 985.1 NA 0.0000 UP 4500 260 0 0 0
2017/06/08 03:22:00 BASE 15.68 15 18.78 17 -2.2 74 -6.2 0 0 985.0 NA 0.0000 UP 2500 0 0 0 1250
2017/06/08 03:23:00 BASE 16.17 17 18.78 17 -2.3 74 -6.2 0 0 985.0 NA 0.0000 UP 2300 0 0 0 1120
2017/06/08 03:24:00 BASE 15.98 18 18.78 17 -2.4 75 -6.2 0 0 985.0 NA 0.0000 UP 2000 0 0 0 820
2017/06/08 03:25:00 BASE 15.62 17 18.78 17 -2.5 76 -6.1 0 0 985.0 NA 0.0000 UP 2400 0 0 0 750
2017/06/08 03:26:00 BASE 15.33 16 18.78 17 -2.6 77 -6.1 0 0 985.0 NA 0.0000 UP 4100 0 0 0 790
2017/06/08 03:27:00 BASE 15.99 15 20.22 18 -2.7 78 -6.0 0 0 984.9 NA 0.0000 UP 4300 0 0 0 1570
2017/06/08 03:28:00 BASE 16.05 14 20.22 18 -2.7 79 -5.9 0 0 985.1 NA 0.0000 UP 2700 0 0 0 2070
2017/06/08 03:29:00 BASE 15.12 14 20.22 18 -2.8 80 -5.8 0 0 985.1 NA 0.0000 UP 3600 0 0 0 1610
2017/06/08 03:30:00 BASE 15.09 14 20.22 18 -2.8 80 -5.7 0 0 985.1 NA 0.0000 -SN 5000 0 0 0 1350
2017/06/08 03:31:00 BASE 14.58 15 20.22 18 -2.8 81 -5.6 0 0 985.1 NA 0.0000 -SN 6000 0 0 0 1770
2017/06/08 03:32:00 BASE 14.29 19 20.22 18 -2.8 82 -5.5 0 0 985.0 NA 0.0000 -SN 9999 0 0 0 2260
2017/06/08 03:33:00 BASE 14.52 21 20.22 18 -2.8 82 -5.4 0 0 985.0 NA 0.0000 -SN 9999 0 0 0 2820
2017/06/08 03:34:00 BASE 14.17 23 20.22 18 -2.8 83 -5.4 0 0 985.0 NA 0.0000 -SN 9999 300 0 0 0
2017/06/08 03:35:00 BASE 14.47 20 20.22 18 -2.8 83 -5.4 0 0 984.9 NA 0.0000 -SN 9999 0 0 0 3940
2017/06/08 03:36:00 BASE 14.46 18 20.22 18 -2.8 83 -5.3 0 0 984.9 NA 0.0000 -SN 9999 0 0 0 1350
2017/06/08 03:37:00 BASE 14.43 21 18.26 12 -2.8 82 -5.4 0 0 984.8 NA 0.0000 -SN 9999 0 0 0 520
2017/06/08 03:38:00 BASE 15.29 20 18.26 12 -2.7 82 -5.4 0 0 984.7 NA 0.0000 -SN 9999 9680 0 0 0
2017/06/08 03:39:00 BASE 15.48 19 18.26 12 -2.7 81 -5.5 0 0 984.7 NA 0.0000 -SN 9999 0 0 0 0
2017/06/08 03:40:00 BASE 15.01 19 17.34 16 -2.6 80 -5.5 0 0 984.7 NA 0.0000 -SN 9999 10110 0 0 0
2017/06/08 03:41:00 BASE 15.32 20 18.01 21 -2.6 80 -5.6 0 0 984.7 NA 0.0000 -SN 9999 0 0 0 0
2017/06/08 03:42:00 BASE 15.65 22 18.01 21 -2.5 79 -5.7 0 0 984.7 NA 0.0000 -SN 9999 0 0 0 0
2017/06/08 03:43:00 BASE 15.21 20 18.01 21 -2.5 78 -5.8 0 0 984.7 NA 0.0000 -SN 9999 0 0 0 430
2017/06/08 03:44:00 BASE 15.52 20 18.11 21 -2.4 77 -5.9 0 0 984.6 NA 0.0000 9999 0 0 0 360
2017/06/08 03:45:00 BASE 15.44 19 18.11 21 -2.4 76 -6.0 0 0 984.7 NA 0.0000 9999 0 0 0 0
2017/06/08 03:46:00 BASE 15.51 17 18.11 21 -2.4 76 -6.1 0 0 984.6 NA 0.0000 9999 10560 0 0 0
2017/06/08 03:47:00 BASE 16.01 16 18.57 11 -2.4 75 -6.2 0 0 984.5 NA 0.0000 9999 0 0 0 560
2017/06/08 03:48:00 BASE 15.69 15 18.57 11 -2.4 75 -6.2 0 0 984.6 NA 0.0000 9999 8330 0 0 0
2017/06/08 03:49:00 BASE 15.56 15 18.57 17 -2.4 75 -6.2 0 0 984.5 NA 0.0000 9999 0 0 0 330
2017/06/08 03:50:00 BASE 16.01 17 19.45 23 -2.4 75 -6.2 0 0 984.5 NA 0.0000 9999 8500 0 0 0
2017/06/08 03:51:00 BASE 16.85 17 19.45 23 -2.4 75 -6.3 0 0 984.4 NA 0.0000 9999 9810 0 0 0
2017/06/08 03:52:00 BASE 17.56 16 19.45 23 -2.4 75 -6.3 0 0 984.4 NA 0.0000 9999 10140 0 0 0
2017/06/08 03:53:00 BASE 16.88 16 19.45 23 -2.4 75 -6.3 0 0 984.5 NA 0.0000 -SN 9999 11120 0 0 0
2017/06/08 03:54:00 BASE 16.35 15 19.45 23 -2.5 75 -6.3 0 0 984.5 NA 0.0000 -SN 9999 11190 0 0 0
2017/06/08 03:55:00 BASE 16.63 15 19.45 23 -2.5 75 -6.3 0 0 984.5 NA 0.0000 -SN 9999 0 0 0 0
2017/06/08 03:56:00 BASE 16.09 14 19.45 23 -2.5 75 -6.3 0 0 984.5 NA 0.0000 -SN 9999 0 0 0 0
2017/06/08 03:57:00 BASE 15.91 13 19.45 23 -2.4 75 -6.2 0 0 984.6 NA 0.0000 -SN 9999 7450 0 0 0
2017/06/08 03:58:00 BASE 15.62 10 19.45 23 -2.4 75 -6.2 0 0 984.6 NA 0.0000 -SN 9999 7250 0 0 0
2017/06/08 03:59:00 BASE 15.11 9 19.45 23 -2.4 76 -6.1 0 0 984.6 NA 0.0000 -SN 9999 6960 0 0 0
2017/06/08 04:00:00 BASE 15.85 11 19.14 16 -2.4 76 -6.0 0 0 984.6 NA 0.0000 -SN 9999 6630 0 0 0
2017/06/08 04:01:00 BASE 16.31 12 18.98 11 -2.3 76 -6.0 0 0 984.6 NA 0.0000 -SN 9999 8070 0 0 0
2017/06/08 04:02:00 BASE 15.63 11 18.98 11 -2.3 76 -6.0 0 0 984.7 NA 0.0000 9999 8140 0 0 0
2017/06/08 04:03:00 BASE 16.34 11 19.91 10 -2.3 76 -6.0 0 0 984.7 NA 0.0000 9999 1120 0 0 0
2017/06/08 04:04:00 BASE 17.10 11 19.91 10 -2.3 75 -6.0 0 0 984.7 NA 0.0000 9999 720 0 0 0
2017/06/08 04:05:00 BASE 16.48 9 19.91 10 -2.2 75 -6.1 0 0 984.9 NA 0.0000 9999 490 0 0 0
2017/06/08 04:06:00 BASE 15.58 10 19.91 10 -2.2 75 -6.1 0 0 984.9 NA 0.0000 9999 330 0 0 0
2017/06/08 04:07:00 BASE 15.44 10 19.91 10 -2.3 75 -6.1 0 0 984.9 NA 0.0000 9999 260 0 0 0
2017/06/08 04:08:00 BASE 15.41 9 19.91 10 -2.3 75 -6.1 0 0 985.0 NA 0.0000 -SN 9999 260 0 0 0
2017/06/08 04:09:00 BASE 14.42 11 19.91 10 -2.3 75 -6.1 0 0 985.0 NA 0.0000 -SN 9999 260 0 0 0
2017/06/08 04:10:00 BASE 13.87 13 19.91 10 -2.3 75 -6.1 0 0 985.0 NA 0.0000 -SN 9999 0 0 0 2170
2017/06/08 04:11:00 BASE 14.16 13 19.91 10 -2.3 76 -6.0 0 0 984.9 NA 0.0000 -SN 9999 230 0 0 0
2017/06/08 04:12:00 BASE 14.99 13 19.91 10 -2.4 76 -6.0 0 0 984.9 NA 0.0000 -SN 9999 260 0 0 0
2017/06/08 04:13:00 BASE 14.69 15 19.70 14 -2.4 77 -5.9 0 0 984.8 NA 0.0000 -SN 9999 300 0 0 0
2017/06/08 04:14:00 BASE 13.92 16 18.57 11 -2.4 77 -5.8 0 0 984.8 NA 0.0000 -SN 7000 230 0 0 0
2017/06/08 04:15:00 BASE 14.37 16 17.65 12 -2.4 78 -5.8 0 0 984.8 NA 0.0000 -SN 5000 0 0 0 3380
2017/06/08 04:16:00 BASE 14.93 16 17.65 12 -2.4 78 -5.7 0 0 984.8 NA 0.0000 -SN 8000 0 0 0 4460
2017/06/08 04:17:00 BASE 15.05 13 17.34 1 -2.4 78 -5.7 0 0 984.7 NA 0.0000 -SN 9999 0 0 0 4920
2017/06/08 04:18:00 BASE 15.47 9 18.52 6 -2.4 78 -5.7 0 0 984.7 NA 0.0000 -SN 9999 0 0 0 5540
2017/06/08 04:19:00 BASE 15.67 11 18.52 6 -2.5 79 -5.6 0 0 984.7 NA 0.0000 -SN 9999 0 0 0 5380
2017/06/08 04:20:00 BASE 15.19 11 18.52 6 -2.5 79 -5.6 0 0 984.7 NA 0.0000 -SN 9999 300 0 0 0
2017/06/08 04:21:00 BASE 15.51 10 18.73 17 -2.5 80 -5.5 0 0 984.7 NA 0.0000 -SN 4800 0 0 0 2030
2017/06/08 04:22:00 BASE 15.96 11 18.73 17 -2.5 80 -5.5 0 0 984.7 NA 0.0000 -SN 2600 0 0 0 1380
2017/06/08 04:23:00 BASE 15.74 14 18.73 17 -2.5 80 -5.4 0 0 984.7 NA 0.0000 -SN 3800 0 0 0 1310
2017/06/08 04:24:00 BASE 15.89 16 18.73 17 -2.6 81 -5.4 0 0 984.7 NA 0.0000 -SN 9999 0 0 0 1510
2017/06/08 04:25:00 BASE 15.87 19 18.73 17 -2.6 81 -5.4 0 0 984.7 NA 0.0000 -SN 9999 0 0 0 2690
2017/06/08 04:26:00 BASE 15.72 17 18.73 17 -2.6 82 -5.3 0 0 984.7 NA 0.0000 -SN 9999 0 0 0 1870
2017/06/08 04:27:00 BASE 15.73 15 18.73 17 -2.6 82 -5.2 0 0 984.7 NA 0.0000 -SN 9999 0 0 0 1940
2017/06/08 04:28:00 BASE 15.77 17 18.73 17 -2.6 82 -5.2 0 0 984.7 NA 0.0000 -SN 9999 0 0 0 1150
2017/06/08 04:29:00 BASE 15.49 16 18.73 17 -2.6 83 -5.2 0 0 984.7 NA 0.0000 -SN 9999 0 0 0 920
2017/06/08 04:30:00 BASE 15.38 12 18.73 17 -2.6 83 -5.1 0 0 984.7 NA 0.0000 -SN 9999 0 0 0 720
2017/06/08 04:31:00 BASE 15.79 12 18.31 10 -2.6 83 -5.0 0 0 984.7 NA 0.0000 -SN 9999 0 0 0 850
2017/06/08 04:32:00 BASE 15.48 15 18.31 10 -2.6 84 -5.0 0 0 984.7 NA 0.0000 -SN 9999 0 0 0 790
2017/06/08 04:33:00 BASE 14.92 16 18.31 10 -2.6 84 -5.0 0 0 984.7 NA 0.0000 -SN M 0 0 0 920
2017/06/08 04:34:00 BASE 14.59 19 18.31 10 -2.7 84 -4.9 0 0 984.7 NA 0.0000 -SN M 0 0 0 1210
2017/06/08 04:35:00 BASE 14.31 21 18.31 10 -2.7 85 -4.9 0 0 984.7 NA 0.0000 -SN M 0 0 0 1510
2017/06/08 04:36:00 BASE 14.79 20 18.31 10 -2.7 85 -4.9 0 0 984.6 NA 0.0000 -SN M 0 0 0 980
2017/06/08 04:37:00 BASE 15.11 19 18.26 23 -2.8 85 -4.9 0 0 984.7 NA 0.0000 -SN M 0 0 0 1250
2017/06/08 04:38:00 BASE 14.70 21 18.26 23 -2.8 85 -4.9 0 0 984.6 NA 0.0000 M 0 0 0 520
2017/06/08 04:39:00 BASE 15.10 20 18.26 23 -2.7 85 -4.9 0 0 984.6 NA 0.0000 M 0 0 0 560
2017/06/08 04:40:00 BASE 15.47 17 18.26 23 -2.7 85 -4.9 0 0 984.6 NA 0.0000 M 0 0 0 490
2017/06/08 04:41:00 BASE 15.09 15 18.26 23 -2.6 84 -4.9 0 0 984.6 NA 0.0000 M 0 0 0 750
2017/06/08 04:42:00 BASE 15.36 10 19.24 4 -2.5 84 -4.8 0 0 984.6 NA 0.0000 M 8830 0 0 0
2017/06/08 04:43:00 BASE 14.91 7 19.24 4 -2.4 83 -4.8 0 0 984.8 NA 0.0000 M 0 0 0 490
2017/06/08 04:44:00 BASE 14.62 5 19.24 4 -2.3 82 -4.9 0 0 984.7 NA 0.0000 M 0 0 0 790
2017/06/08 04:45:00 BASE 15.43 7 19.24 4 -2.2 82 -4.9 0 0 984.7 NA 0.0000 M 0 0 0 1020
2017/06/08 04:46:00 BASE 15.69 11 19.24 4 -2.1 81 -5.0 0 0 984.7 NA 0.0000 M 0 0 0 1350
2017/06/08 04:47:00 BASE 14.79 9 19.24 4 -2.1 80 -5.2 0 0 984.8 NA 0.0000 M 12570 0 0 0
2017/06/08 04:48:00 BASE 14.68 7 19.24 4 -2.1 79 -5.3 0 0 984.8 NA 0.0000 M 7970 0 0 0
2017/06/08 04:49:00 BASE 14.75 8 19.24 4 -2.1 78 -5.4 0 0 984.8 NA 0.0000 M 7840 0 0 0
2017/06/08 04:50:00 BASE 15.20 10 19.86 12 -2.0 77 -5.5 0 0 984.7 NA 0.0000 M 7740 0 0 0
2017/06/08 04:51:00 BASE 15.93 11 19.86 12 -2.0 77 -5.5 0 0 984.8 NA 0.0000 M 7780 8240 0 0
2017/06/08 04:52:00 BASE 15.76 12 19.86 12 -2.0 76 -5.6 0 0 984.8 NA 0.0000 M 8070 0 0 0
2017/06/08 04:53:01 BASE 16.37 13 19.86 12 -2.0 76 -5.6 0 0 984.8 NA 0.0000 M 0 0 0 330
2017/06/08 04:54:00 BASE 16.17 12 19.86 12 -2.0 76 -5.6 0 0 984.8 NA 0.0000 M 0 0 0 230
2017/06/08 04:55:00 BASE 15.00 11 19.86 12 -2.1 77 -5.6 0 0 984.9 NA 0.0000 M 0 0 0 4070
2017/06/08 04:56:00 BASE 15.09 13 19.86 12 -2.2 77 -5.6 0 0 984.9 NA 0.0000 M 0 0 0 1020
2017/06/08 04:57:00 BASE 14.90 11 19.86 12 -2.3 78 -5.6 0 0 984.9 NA 0.0000 M 0 0 0 1210
2017/06/08 04:58:00 BASE 14.18 10 19.86 12 -2.3 79 -5.5 0 0 984.9 NA 0.0000 M 3810 0 0 0
2017/06/08 04:59:00 BASE 15.09 12 19.86 12 -2.3 79 -5.4 0 0 984.9 NA 0.0000 M 0 0 0 1280
2017/06/08 05:00:00 BASE 15.82 13 18.67 8 -2.3 80 -5.3 0 0 984.8 NA 0.0000 M 0 0 0 2430
2017/06/08 05:01:00 BASE 15.25 11 18.67 8 -2.3 80 -5.3 0 0 984.9 NA 0.0000 M 0 0 0 5510
2017/06/08 05:02:00 BASE 14.79 8 18.67 8 -2.3 80 -5.2 0 0 984.8 NA 0.0000 M 0 0 0 750
2017/06/08 05:03:00 BASE 14.91 8 18.57 14 -2.3 81 -5.1 0 0 984.8 NA 0.0000 M 300 0 0 0
2017/06/08 05:04:00 BASE 15.36 9 19.65 13 -2.2 81 -5.1 0 0 984.8 NA 0.0000 M 260 4360 0 0
2017/06/08 05:05:00 BASE 16.26 11 19.65 13 -2.2 81 -5.0 0 0 984.8 NA 0.0000 M 3640 0 0 0
2017/06/08 05:06:00 BASE 15.80 14 19.65 13 -2.2 82 -4.9 0 0 984.9 NA 0.0000 M 3450 0 0 0
2017/06/08 05:07:00 BASE 14.99 13 19.65 13 -2.2 82 -4.9 0 0 984.8 NA 0.0000 M 4270 0 0 0
2017/06/08 05:08:00 BASE 14.14 10 19.65 13 -2.2 82 -4.9 0 0 984.9 NA 0.0000 M 5840 0 0 0
2017/06/08 05:09:00 BASE 13.52 12 19.65 13 -2.3 82 -4.9 0 0 984.9 NA 0.0000 M 2230 0 0 0
2017/06/08 05:10:00 BASE 14.65 14 19.65 13 -2.3 82 -4.9 0 0 984.8 NA 0.0000 M 1870 0 0 0
2017/06/08 05:11:00 BASE 15.79 12 19.65 13 -2.3 82 -4.9 0 0 984.8 NA 0.0000 M 2360 0 0 0
2017/06/08 05:12:00 BASE 15.72 10 19.65 13 -2.2 82 -5.0 0 0 984.8 NA 0.0000 M 1540 0 0 0
2017/06/08 05:13:00 BASE 15.92 8 19.65 13 -2.2 81 -5.0 0 0 984.8 NA 0.0000 M 1210 0 0 0
2017/06/08 05:14:00 BASE 17.05 4 19.34 12 -2.2 81 -5.0 0 0 984.8 NA 0.0000 M 850 0 0 0
2017/06/08 05:15:00 BASE 17.37 2 19.14 2 -2.1 80 -5.1 0 0 984.9 NA 0.0000 M 490 0 0 0
2017/06/08 05:16:00 BASE 16.55 356 19.14 2 -2.0 80 -5.1 0 0 985.0 NA 0.0000 M 360 0 0 0
2017/06/08 05:17:00 BASE 16.10 355 19.14 2 -1.9 79 -5.1 0 0 985.0 NA 0.0000 M 360 0 0 0
2017/06/08 05:18:00 BASE 16.05 358 19.14 2 -1.8 79 -5.0 0 0 985.1 NA 0.0000 M 300 0 0 0
2017/06/08 05:19:00 BASE 15.72 357 19.14 2 -1.7 78 -5.0 0 0 985.2 NA 0.0000 M 260 0 0 0
2017/06/08 05:20:00 BASE 15.84 360 19.14 2 -1.7 78 -5.1 0 0 985.1 NA 0.0000 M 330 0 0 0
2017/06/08 05:21:00 BASE 15.77 4 19.14 2 -1.6 77 -5.1 0 0 985.1 NA 0.0000 M 300 0 0 0
2017/06/08 05:22:00 BASE 14.89 6 19.14 2 -1.7 77 -5.2 0 0 985.2 NA 0.0000 M 300 0 0 0
2017/06/08 05:23:00 BASE 14.76 9 19.14 2 -1.7 77 -5.3 0 0 985.1 NA 0.0000 M 330 0 0 0
2017/06/08 05:24:00 BASE 15.16 9 18.21 1 -1.8 77 -5.4 0 0 985.1 NA 0.0000 M 260 0 0 0
2017/06/08 05:25:00 BASE 15.10 8 17.29 1 -1.9 77 -5.4 0 0 985.1 NA 0.0000 M 0 0 0 1800
2017/06/08 05:26:00 BASE 14.74 8 17.29 1 -1.9 77 -5.5 0 0 985.2 NA 0.0000 M 0 0 0 1800
2017/06/08 05:27:00 BASE 13.93 9 17.29 1 -2.0 77 -5.5 0 0 985.2 NA 0.0000 M 330 0 0 0
2017/06/08 05:28:00 BASE 14.59 9 17.54 7 -2.0 77 -5.5 0 0 985.0 NA 0.0000 M 590 0 0 0
2017/06/08 05:29:00 BASE 15.46 7 17.54 7 -2.0 77 -5.5 0 0 985.0 NA 0.0000 M 890 0 0 0
2017/06/08 05:30:00 BASE 15.33 8 17.54 7 -2.1 78 -5.5 0 0 985.0 NA 0.0000 M 0 0 0 3450
2017/06/08 05:31:00 BASE 15.39 9 17.54 7 -2.1 78 -5.4 0 0 985.0 NA 0.0000 9999 0 0 0 2890
2017/06/08 05:32:00 BASE 14.87 10 17.54 7 -2.1 78 -5.4 0 0 985.1 NA 0.0000 -SN 9999 0 0 0 2560
2017/06/08 05:33:00 BASE 14.05 11 17.54 7 -2.1 78 -5.4 0 0 985.2 NA 0.0000 -SN 9999 0 0 0 720
2017/06/08 05:34:00 BASE 14.30 13 17.54 7 -2.2 79 -5.4 0 0 985.1 NA 0.0000 -SN 9999 0 0 0 850
2017/06/08 05:35:00 BASE 14.56 12 17.54 7 -2.3 79 -5.4 0 0 985.1 NA 0.0000 -SN 9999 0 0 0 590
2017/06/08 05:36:00 BASE 14.17 10 17.54 7 -2.4 80 -5.3 0 0 985.1 NA 0.0000 -SN 9999 0 0 0 750
2017/06/08 05:37:00 BASE 14.63 11 17.54 7 -2.4 81 -5.3 0 0 985.1 NA 0.0000 -SN 9999 0 0 0 490
2017/06/08 05:38:00 BASE 14.37 11 17.39 5 -2.5 81 -5.2 0 0 985.2 NA 0.0000 -SN M 0 0 0 560
2017/06/08 05:39:00 BASE 13.01 8 17.39 5 -2.5 82 -5.2 0 0 985.2 NA 0.0000 -SN M 0 0 0 4040
2017/06/08 05:40:00 BASE 13.96 10 17.13 13 -2.5 82 -5.1 0 0 985.1 NA 0.0000 -SN M 0 0 0 3670
2017/06/08 05:41:00 BASE 15.19 12 17.03 15 -2.5 82 -5.1 0 0 985.1 NA 0.0000 -SN M 2000 0 0 0
2017/06/08 05:42:00 BASE 14.80 9 17.54 9 -2.5 82 -5.1 0 0 985.2 NA 0.0000 -SN M 2790 0 0 0
2017/06/08 05:43:00 BASE 14.76 7 17.54 9 -2.4 82 -5.1 0 0 985.2 NA 0.0000 M 360 0 0 0
2017/06/08 05:44:00 BASE 14.90 7 17.54 9 -2.4 82 -5.1 0 0 985.3 NA 0.0000 M 330 0 0 0
2017/06/08 05:45:00 BASE 15.14 9 17.54 9 -2.4 82 -5.0 0 0 985.3 NA 0.0000 M 230 0 0 0
2017/06/08 05:46:00 BASE 14.71 11 17.54 9 -2.4 82 -5.0 0 0 985.4 NA 0.0000 -SN 9999 0 0 0 1670
2017/06/08 05:47:00 BASE 14.05 10 17.54 9 -2.4 82 -5.0 0 0 985.3 NA 0.0000 -SN 9999 0 0 0 1250
2017/06/08 05:48:00 BASE 13.60 8 17.54 9 -2.4 82 -5.0 0 0 985.4 NA 0.0000 -SN 9999 0 0 0 1410
2017/06/08 05:49:00 BASE 14.59 9 17.54 9 -2.4 82 -5.0 0 0 985.2 NA 0.0000 -SN 9999 0 0 0 1120
2017/06/08 05:50:00 BASE 16.15 10 18.01 14 -2.4 82 -5.0 0 0 985.3 NA 0.0000 -SN 9999 0 0 0 890
2017/06/08 05:51:00 BASE 15.58 9 18.01 14 -2.4 82 -5.1 0 0 985.3 NA 0.0000 -SN 9999 0 0 0 850
2017/06/08 05:52:00 BASE 15.28 7 18.01 14 -2.4 82 -5.1 0 0 985.3 NA 0.0000 -SN 9999 0 0 0 720
2017/06/08 05:53:00 BASE 15.66 6 18.01 14 -2.4 82 -5.1 0 0 985.3 NA 0.0000 -SN 9999 0 0 0 660
2017/06/08 05:54:00 BASE 15.15 8 18.01 14 -2.5 82 -5.1 0 0 985.4 NA 0.0000 -SN M 0 0 0 690
2017/06/08 05:55:00 BASE 14.99 9 18.01 14 -2.5 83 -5.0 0 0 985.3 NA 0.0000 -SN M 0 0 0 620
2017/06/08 05:56:00 BASE 15.24 9 18.01 14 -2.5 83 -5.0 0 0 985.3 NA 0.0000 -SN M 0 0 0 520
2017/06/08 05:57:00 BASE 14.18 10 18.01 14 -2.5 84 -4.9 0 0 985.3 NA 0.0000 -SN M 0 0 0 850
2017/06/08 05:58:00 BASE 14.04 11 18.01 14 -2.5 84 -4.8 0 0 985.2 NA 0.0000 -SN M 0 0 0 850
2017/06/08 05:59:00 BASE 14.83 10 18.01 14 -2.5 85 -4.7 0 0 985.3 NA 0.0000 M 0 0 0 720
2017/06/08 06:00:00 BASE 14.73 10 17.54 8 -2.6 85 -4.7 0 0 985.3 NA 0.0000 M 0 0 0 660
2017/06/08 06:01:00 BASE 13.95 9 17.54 8 -2.6 86 -4.7 0 0 985.4 NA 0.0000 M 0 0 0 620
2017/06/08 06:02:00 BASE 13.54 6 17.49 3 -2.6 86 -4.6 0 0 985.3 NA 0.0000 M 0 0 0 590
2017/06/08 06:03:00 BASE 13.99 7 17.49 3 -2.6 86 -4.6 0 0 985.2 NA 0.0000 M 0 0 0 660
2017/06/08 06:04:00 BASE 15.16 9 17.49 13 -2.6 87 -4.5 0 0 985.1 NA 0.0000 M 0 0 0 590
2017/06/08 06:05:00 BASE 15.52 7 17.49 13 -2.6 87 -4.5 0 0 985.2 NA 0.0000 M 0 0 0 720
2017/06/08 06:06:00 BASE 14.51 9 17.49 13 -2.6 87 -4.5 0 0 985.2 NA 0.0000 M 0 0 0 660
2017/06/08 06:07:00 BASE 14.79 9 17.49 13 -2.6 87 -4.4 0 0 985.1 NA 0.0000 M 0 0 0 820
2017/06/08 06:08:00 BASE 15.56 7 17.49 13 -2.6 88 -4.4 0 0 985.1 NA 0.0000 M 0 0 0 1150
2017/06/08 06:09:00 BASE 16.37 6 18.31 8 -2.6 88 -4.3 0 0 984.9 NA 0.0000 M 6560 0 0 0
2017/06/08 06:10:00 BASE 17.51 5 20.22 4 -2.6 88 -4.3 0 0 984.9 NA 0.0000 M 7380 0 0 0
2017/06/08 06:11:00 BASE 17.93 2 20.27 354 -2.5 88 -4.2 0 0 984.9 NA 0.0000 M 7450 0 0 0
2017/06/08 06:12:00 BASE 17.75 2 20.27 354 -2.4 88 -4.2 0 0 984.9 NA 0.0000 M 0 0 0 890
2017/06/08 06:13:00 BASE 17.63 4 20.27 354 -2.4 88 -4.1 0 0 985.0 NA 0.0000 M 390 0 0 0
2017/06/08 06:14:00 BASE 16.80 4 20.27 354 -2.3 88 -4.0 0 0 985.0 NA 0.0000 M 0 0 0 4590
2017/06/08 06:15:00 BASE 16.25 4 20.27 354 -2.2 88 -4.0 0 0 985.1 NA 0.0000 M 360 0 0 0
2017/06/08 06:16:00 BASE 16.27 3 20.27 354 -2.2 87 -4.0 0 0 985.1 NA 0.0000 M 3940 4660 0 0
2017/06/08 06:17:00 BASE 16.39 0 20.27 354 -2.2 87 -4.1 0 0 985.0 NA 0.0000 M 3740 4490 0 0
2017/06/08 06:18:00 BASE 16.26 353 20.27 354 -2.2 86 -4.2 0 0 985.1 NA 0.0000 M 0 0 0 5910
2017/06/08 06:19:00 BASE 15.51 357 20.27 354 -2.1 86 -4.2 0 0 985.2 NA 0.0000 M 0 0 0 4560
2017/06/08 06:20:00 BASE 14.77 1 20.27 354 -2.1 85 -4.2 0 0 985.3 NA 0.2540 M 0 0 0 3020
2017/06/08 06:21:00 BASE 14.44 358 19.29 6 -2.0 85 -4.3 0 0 985.2 NA 0.0000 M 390 0 0 0
2017/06/08 06:22:00 BASE 14.47 360 19.29 6 -2.0 84 -4.3 0 0 985.3 NA 0.0000 M 2430 0 0 0
2017/06/08 06:23:00 BASE 13.87 5 18.16 360 -2.0 84 -4.4 0 0 985.3 NA 0.0000 M 2760 0 0 0
2017/06/08 06:24:00 BASE 13.22 6 17.75 8 -2.0 83 -4.5 0 0 985.3 NA 0.0000 M 430 3610 0 0
2017/06/08 06:25:00 BASE 13.80 6 17.49 360 -2.0 83 -4.5 0 0 985.2 NA 0.0000 M 430 0 0 0
2017/06/08 06:26:00 BASE 14.84 5 17.49 360 -2.0 82 -4.6 0 0 985.2 NA 0.0000 M 360 2890 0 0
2017/06/08 06:27:00 BASE 15.21 6 16.67 352 -2.0 82 -4.7 0 0 985.2 NA 0.0000 M 1670 2360 0 0
2017/06/08 06:28:00 BASE 14.81 6 16.20 4 -2.0 81 -4.8 0 0 985.2 NA 0.0000 M 0 0 0 4660
2017/06/08 06:29:00 BASE 14.76 5 16.20 10 -2.0 81 -4.8 0 0 985.2 NA 0.0000 M 1840 3480 0 0
2017/06/08 06:30:00 BASE 14.67 6 16.20 10 -2.0 81 -4.9 0 0 985.2 NA 0.0000 M 1740 0 0 0
2017/06/08 06:31:00 BASE 13.86 6 16.20 10 -2.0 81 -4.9 0 0 985.2 NA 0.0000 M 0 0 0 5450
2017/06/08 06:32:00 BASE 13.97 7 16.20 10 -2.1 80 -5.0 0 0 985.2 NA 0.0000 M 0 0 0 4690
2017/06/08 06:33:00 BASE 14.64 7 16.51 10 -2.1 80 -5.1 0 0 985.1 NA 0.0000 M 2530 0 0 0
2017/06/08 06:34:00 BASE 14.80 5 16.51 10 -2.1 80 -5.2 0 0 985.2 NA 0.0000 M 0 0 0 3840
2017/06/08 06:35:00 BASE 15.11 4 16.67 5 -2.1 79 -5.2 0 0 985.2 NA 0.0000 M 460 0 0 0
2017/06/08 06:36:00 BASE 15.42 3 16.67 5 -2.1 79 -5.2 0 0 985.1 NA 0.0000 M 390 2430 0 0
2017/06/08 06:37:00 BASE 14.93 4 16.67 5 -2.1 79 -5.2 0 0 985.2 NA 0.0000 M 360 0 0 0
2017/06/08 06:38:00 BASE 14.55 5 16.67 5 -2.0 79 -5.2 0 0 985.1 NA 0.0000 M 260 2790 0 0
2017/06/08 06:39:00 BASE 15.08 5 16.87 3 -2.0 79 -5.1 0 0 985.1 NA 0.0000 M 300 0 0 0
2017/06/08 06:40:00 BASE 15.43 4 16.87 3 -2.0 79 -5.1 0 0 985.1 NA 0.0000 M 0 0 0 3870
2017/06/08 06:41:00 BASE 15.11 6 16.87 3 -2.0 80 -5.1 0 0 985.2 NA 0.0000 M 0 0 0 3480
2017/06/08 06:42:00 BASE 15.16 6 16.87 3 -2.0 80 -5.0 0 0 985.2 NA 0.0000 M 0 0 0 1480
2017/06/08 06:43:00 BASE 15.84 5 17.29 9 -2.0 80 -5.0 0 0 985.2 NA 0.0000 M 0 0 0 1610
2017/06/08 06:44:00 BASE 15.72 5 17.29 9 -2.0 80 -5.0 0 0 985.3 NA 0.0000 M 0 0 0 2300
2017/06/08 06:45:00 BASE 15.11 6 17.29 9 -2.0 80 -5.0 0 0 985.2 NA 0.0000 M 0 0 0 2790
2017/06/08 06:46:00 BASE 15.05 8 17.29 9 -2.0 80 -5.0 0 0 985.2 NA 0.0000 M 330 0 0 0
2017/06/08 06:47:00 BASE 14.97 8 17.29 9 -2.0 80 -5.1 0 0 985.2 NA 0.0000 M 2560 0 0 0
2017/06/08 06:48:00 BASE 14.80 5 17.29 9 -2.0 79 -5.1 0 0 985.3 NA 0.0000 M 2560 0 0 0
2017/06/08 06:49:00 BASE 15.10 4 17.29 9 -2.0 79 -5.2 0 0 985.2 NA 0.0000 M 2720 0 0 0
2017/06/08 06:50:00 BASE 15.63 3 17.29 5 -2.0 78 -5.2 0 0 985.1 NA 0.0000 M 2400 0 0 0
2017/06/08 06:51:00 BASE 15.57 5 17.29 5 -2.0 78 -5.3 0 0 985.1 NA 0.0000 M 2560 0 0 0
2017/06/08 06:52:00 BASE 15.74 7 17.80 7 -1.9 77 -5.4 0 0 985.1 NA 0.2540 M 2620 0 0 0
2017/06/08 06:53:00 BASE 15.87 4 17.80 7 -1.9 77 -5.4 0 0 985.2 NA 0.0000 M 2790 3480 0 0
2017/06/08 06:54:00 BASE 15.48 4 17.80 7 -1.9 77 -5.4 0 0 985.2 NA 0.0000 M 2720 0 0 0
2017/06/08 06:55:00 BASE 15.36 6 17.80 7 -1.8 76 -5.5 0 0 985.2 NA 0.0000 M 2030 0 0 0
2017/06/08 06:56:00 BASE 15.47 7 17.80 7 -1.8 76 -5.5 0 0 985.1 NA 0.0000 M 1570 0 0 0
2017/06/08 06:57:00 BASE 15.48 5 17.80 7 -1.7 75 -5.5 0 0 985.1 NA 0.0000 M 980 0 0 0
2017/06/08 06:58:00 BASE 15.84 3 18.31 360 -1.7 75 -5.5 0 0 985.1 NA 0.0000 M 790 2760 0 0
2017/06/08 06:59:00 BASE 15.68 3 18.31 360 -1.7 75 -5.5 0 0 985.2 NA 0.0000 M 1020 0 0 0
2017/06/08 07:00:00 BASE 14.96 3 18.31 360 -1.7 75 -5.5 0 0 985.2 NA 0.0000 M 430 0 0 0
2017/06/08 07:01:00 BASE 15.11 3 18.31 360 -1.7 75 -5.5 0 0 985.1 NA 0.0000 M 0 0 0 4230
2017/06/08 07:02:00 BASE 15.46 5 18.31 360 -1.7 75 -5.5 0 0 985.2 NA 0.0000 M 3150 6530 0 0
2017/06/08 07:03:00 BASE 15.36 5 18.31 360 -1.7 75 -5.5 0 0 985.2 NA 0.0000 M 3080 0 0 0
2017/06/08 07:04:00 BASE 14.94 3 18.31 360 -1.7 75 -5.6 0 0 985.2 NA 0.0000 M 3050 0 0 0
2017/06/08 07:05:00 BASE 14.98 2 18.31 360 -1.7 75 -5.6 0 0 985.2 NA 0.0000 M 520 7420 0 0
2017/06/08 07:06:00 BASE 14.86 3 18.31 360 -1.8 75 -5.6 0 0 985.3 NA 0.0000 M 430 3540 0 0
2017/06/08 07:07:00 BASE 14.77 6 18.31 360 -1.8 75 -5.6 0 0 985.3 NA 0.0000 M 360 0 0 0
2017/06/08 07:08:00 BASE 15.23 8 17.59 7 -1.9 76 -5.6 0 0 985.3 NA 0.0000 M 300 0 0 0
2017/06/08 07:09:00 BASE 14.44 9 17.59 7 -1.9 76 -5.6 0 0 985.3 NA 0.0000 M 260 0 0 0
2017/06/08 07:10:00 BASE 13.78 10 17.59 7 -1.9 76 -5.6 0 0 985.3 NA 0.0000 M 490 0 0 0
2017/06/08 07:11:00 BASE 13.99 8 17.59 7 -2.0 76 -5.6 0 0 985.3 NA 0.0000 M 1840 0 0 0
2017/06/08 07:12:00 BASE 14.18 7 17.59 7 -2.0 76 -5.6 0 0 985.3 NA 0.0000 M 2100 0 0 0
2017/06/08 07:13:00 BASE 14.51 7 17.08 354 -2.0 76 -5.6 0 0 985.2 NA 0.0000 M 3640 0 0 0
2017/06/08 07:14:00 BASE 14.35 7 17.08 354 -1.9 76 -5.6 0 0 985.3 NA 0.0000 M 0 0 0 390
2017/06/08 07:15:00 BASE 14.75 7 17.03 9 -1.9 76 -5.6 0 0 985.2 NA 0.0000 M 3180 0 0 0
2017/06/08 07:16:00 BASE 15.58 4 17.03 9 -1.9 76 -5.5 0 0 985.2 NA 0.0000 M 3120 3740 0 0
2017/06/08 07:17:00 BASE 14.95 4 17.03 9 -1.9 77 -5.5 0 0 985.3 NA 0.0000 M 330 0 0 0
2017/06/08 07:18:00 BASE 13.85 6 16.77 5 -1.9 77 -5.4 0 0 985.3 NA 0.0000 M 490 0 0 0
2017/06/08 07:19:00 BASE 13.98 6 16.77 5 -1.9 78 -5.3 0 0 985.2 NA 0.0000 M 2430 0 0 0
2017/06/08 07:20:00 BASE 14.21 5 16.77 5 -1.9 78 -5.2 0 0 985.2 NA 0.0000 M 2820 0 0 0
2017/06/08 07:21:00 BASE 13.81 4 16.77 5 -1.9 79 -5.1 0 0 985.3 NA 0.0000 M 2430 0 0 0
2017/06/08 07:22:00 BASE 13.72 3 16.77 5 -1.9 79 -5.1 0 0 985.2 NA 0.0000 M 7780 0 0 0
2017/06/08 07:23:00 BASE 13.60 2 16.77 5 -1.9 79 -5.0 0 0 985.3 NA 0.0000 M 3540 0 0 0
2017/06/08 07:24:00 BASE 13.53 2 16.77 5 -1.8 79 -5.0 0 0 985.3 NA 0.0000 M 2790 0 0 0
2017/06/08 07:25:00 BASE 13.95 4 16.62 3 -1.7 79 -4.9 0 0 985.3 NA 0.0000 M 2990 0 0 0
2017/06/08 07:26:00 BASE 14.02 6 16.00 5 -1.7 79 -4.9 0 0 985.3 NA 0.0000 M 3180 0 0 0
2017/06/08 07:27:00 BASE 13.86 9 16.00 5 -1.7 78 -5.0 0 0 985.3 NA 0.0000 M 3310 0 0 0
2017/06/08 07:28:00 BASE 13.87 8 16.00 5 -1.7 78 -5.0 0 0 985.3 NA 0.0000 M 2820 0 0 0
2017/06/08 07:29:00 BASE 13.64 6 16.00 5 -1.7 77 -5.1 0 0 985.3 NA 0.0000 M 980 0 0 0
2017/06/08 07:30:00 BASE 13.30 5 15.95 10 -1.8 77 -5.2 0 0 985.3 NA 0.0000 M 260 0 0 0
2017/06/08 07:31:00 BASE 13.31 6 15.95 10 -1.8 77 -5.2 0 0 985.3 NA 0.0000 M 260 0 0 0
2017/06/08 07:32:00 BASE 13.33 6 15.95 10 -1.9 78 -5.2 0 0 985.3 NA 0.0000 M 300 0 0 0
2017/06/08 07:33:00 BASE 13.35 7 15.95 10 -1.9 78 -5.2 0 0 985.3 NA 0.0000 M 230 0 0 0
2017/06/08 07:34:00 BASE 13.18 5 15.95 10 -1.9 79 -5.1 0 0 985.3 NA 0.0000 M 0 0 0 1540
2017/06/08 07:35:00 BASE 12.92 6 15.95 10 -1.9 79 -5.1 0 0 985.4 NA 0.0000 M 0 0 0 1210
2017/06/08 07:36:00 BASE 12.32 8 15.95 10 -1.9 79 -5.0 0 0 985.4 NA 0.0000 M 0 0 0 1250
2017/06/08 07:37:00 BASE 12.41 6 15.43 5 -1.9 79 -5.0 0 0 985.4 NA 0.0000 M 0 0 0 1670
2017/06/08 07:38:00 BASE 13.06 3 15.43 5 -1.9 80 -4.9 0 0 985.4 NA 0.0000 M 0 0 0 1570
2017/06/08 07:39:00 BASE 13.18 3 14.97 3 -1.9 80 -4.9 0 0 985.4 NA 0.0000 M 0 0 0 1410
2017/06/08 07:40:00 BASE 12.98 3 14.97 3 -2.0 81 -4.8 0 0 985.4 NA 0.0000 M 0 0 0 1480
2017/06/08 07:41:00 BASE 12.44 4 14.97 3 -2.0 82 -4.7 0 0 985.5 NA 0.0000 M 0 0 0 1350
2017/06/08 07:42:00 BASE 12.02 4 14.97 3 -2.0 82 -4.6 0 0 985.4 NA 0.0000 M 0 0 0 1640
2017/06/08 07:43:00 BASE 12.07 6 14.97 3 -2.0 83 -4.6 0 0 985.4 NA 0.0000 M 0 0 0 2920
2017/06/08 07:44:00 BASE 12.94 6 14.97 3 -2.0 83 -4.5 0 0 985.3 NA 0.0000 M 0 0 0 3640
2017/06/08 07:45:00 BASE 13.61 4 14.97 3 -2.0 83 -4.4 0 0 985.2 NA 0.0000 M 0 0 0 2920
2017/06/08 07:46:00 BASE 14.43 3 16.05 360 -2.0 84 -4.4 0 0 985.2 NA 0.0000 M 300 2300 0 0
2017/06/08 07:47:00 BASE 14.89 4 16.05 360 -2.0 84 -4.3 0 0 985.1 NA 0.0000 M 2460 0 0 0
2017/06/08 07:48:00 BASE 14.97 4 16.20 360 -1.9 84 -4.3 0 0 985.1 NA 0.0000 M 3540 0 0 0
2017/06/08 07:49:00 BASE 14.89 2 16.20 360 -1.9 84 -4.3 0 0 985.2 NA 0.0000 M 4400 0 0 0
2017/06/08 07:50:00 BASE 14.73 3 16.20 360 -1.8 83 -4.3 0 0 985.1 NA 0.0000 M 2720 0 0 0
2017/06/08 07:51:00 BASE 14.75 4 16.20 360 -1.8 83 -4.3 0 0 985.2 NA 0.0000 M 2490 4000 0 0
2017/06/08 07:52:00 BASE 14.56 5 16.20 360 -1.8 83 -4.4 0 0 985.2 NA 0.0000 M 2660 0 0 0
2017/06/08 07:53:00 BASE 14.40 6 16.20 360 -1.8 82 -4.4 0 0 985.2 NA 0.0000 M 620 0 0 0
2017/06/08 07:54:00 BASE 13.98 6 16.20 360 -1.8 82 -4.5 0 0 985.2 NA 0.0000 M 2990 0 0 0
2017/06/08 07:55:00 BASE 13.46 6 16.20 360 -1.8 81 -4.6 0 0 985.3 NA 0.0000 M 690 2850 0 0
2017/06/08 07:56:00 BASE 13.09 6 16.20 360 -1.7 81 -4.6 0 0 985.3 NA 0.0000 M 520 2530 0 0
2017/06/08 07:57:00 BASE 12.96 6 16.20 360 -1.7 80 -4.7 0 0 985.3 NA 0.0000 M 690 0 0 0
2017/06/08 07:58:00 BASE 13.40 1 16.05 1 -1.6 80 -4.7 0 0 985.2 NA 0.0000 M 2660 4950 0 0
2017/06/08 07:59:00 BASE 13.58 359 16.05 1 -1.6 79 -4.7 0 0 985.2 NA 0.0000 M 2360 3080 0 0
2017/06/08 08:00:00 BASE 13.49 3 15.79 3 -1.6 79 -4.8 0 0 985.2 NA 0.0000 M 2530 0 0 0
2017/06/08 08:01:00 BASE 14.20 4 15.79 3 -1.5 78 -4.9 0 0 985.1 NA 0.0000 M 1020 2660 0 0
2017/06/08 08:02:00 BASE 14.16 5 15.79 3 -1.6 78 -5.0 0 0 985.2 NA 0.0000 M 520 0 0 0
2017/06/08 08:03:00 BASE 13.47 6 15.54 2 -1.6 77 -5.1 0 0 985.2 NA 0.0000 M 460 3480 0 0
2017/06/08 08:04:00 BASE 13.67 3 15.54 2 -1.7 77 -5.1 0 0 985.1 NA 0.0000 M 2820 4230 0 0
2017/06/08 08:05:00 BASE 14.14 3 15.54 2 -1.7 77 -5.1 0 0 985.1 NA 0.0000 M 3310 4100 0 0
2017/06/08 08:06:00 BASE 13.70 0 15.43 5 -1.7 78 -5.1 0 0 985.2 NA 0.0000 M 2920 0 0 0
2017/06/08 08:07:00 BASE 12.63 353 15.43 5 -1.7 78 -5.0 0 0 985.2 NA 0.0000 M 690 0 0 0
2017/06/08 08:08:00 BASE 12.55 352 15.43 5 -1.7 78 -4.9 0 0 985.2 NA 0.2540 M 620 0 0 0
2017/06/08 08:09:00 BASE 12.72 354 15.43 5 -1.6 79 -4.9 0 0 985.2 NA 0.0000 M 2560 0 0 0
2017/06/08 08:10:00 BASE 12.72 352 15.43 5 -1.6 79 -4.8 0 0 985.2 NA 0.0000 M 3740 0 0 0
2017/06/08 08:11:00 BASE 13.05 351 15.38 360 -1.6 79 -4.8 0 0 985.2 NA 0.0000 M 3350 4360 0 0
2017/06/08 08:12:00 BASE 12.70 353 15.38 360 -1.6 79 -4.8 0 0 985.2 NA 0.0000 M 0 0 0 0
2017/06/08 08:13:00 BASE 12.70 355 15.38 360 -1.6 79 -4.8 0 0 985.2 NA 0.0000 M 3020 0 0 0
2017/06/08 08:14:00 BASE 12.97 355 15.38 360 -1.6 79 -4.8 0 0 985.2 NA 0.0000 M 3050 0 0 0
2017/06/08 08:15:00 BASE 12.62 347 14.61 354 -1.5 78 -4.8 0 0 985.2 NA 0.0000 M 3220 0 0 0
2017/06/08 08:16:00 BASE 12.17 341 14.61 354 -1.5 78 -4.8 0 0 985.3 NA 0.0000 M 3350 0 0 0
2017/06/08 08:17:00 BASE 11.94 348 14.61 354 -1.6 78 -4.9 0 0 985.3 NA 0.0000 M 3220 8070 0 0
2017/06/08 08:18:00 BASE 12.36 345 14.61 354 -1.6 78 -4.9 0 0 985.2 NA 0.0000 M 3610 8070 0 0
2017/06/08 08:19:00 BASE 12.72 348 14.61 354 -1.6 78 -4.9 0 0 985.2 NA 0.0000 M 3310 8040 0 0
2017/06/08 08:20:00 BASE 12.59 355 14.51 1 -1.6 78 -4.9 0 0 985.3 NA 0.0000 M 3280 0 0 0
2017/06/08 08:21:00 BASE 12.77 355 14.40 353 -1.6 78 -5.0 0 0 985.2 NA 0.0000 M 3080 0 0 0
2017/06/08 08:22:00 BASE 12.94 353 14.40 353 -1.5 77 -5.0 0 0 985.2 NA 0.0000 M 3020 0 0 0
2017/06/08 08:23:00 BASE 12.33 349 14.40 353 -1.5 77 -5.0 0 0 985.3 NA 0.0000 M 3380 0 0 0
2017/06/08 08:24:00 BASE 11.63 3 14.40 353 -1.5 77 -5.0 0 0 985.4 NA 0.0000 M 3610 7740 0 0
2017/06/08 08:25:00 BASE 11.29 4 14.40 353 -1.5 77 -5.1 0 0 985.3 NA 0.0000 M 3310 8010 0 0
2017/06/08 08:26:00 BASE 11.00 351 14.40 353 -1.5 77 -5.1 0 0 985.4 NA 0.0000 M 3510 0 0 0
2017/06/08 08:27:00 BASE 11.23 347 14.40 353 -1.6 77 -5.1 0 0 985.3 NA 0.0000 M 3250 0 0 0
2017/06/08 08:28:00 BASE 11.69 354 14.40 353 -1.6 77 -5.2 0 0 985.3 NA 0.0000 M 3350 0 0 0
2017/06/08 08:29:00 BASE 11.81 357 14.40 353 -1.6 77 -5.2 0 0 985.3 NA 0.0000 M 3350 7840 0 0
2017/06/08 08:30:00 BASE 12.15 352 14.40 353 -1.6 77 -5.1 0 0 985.2 NA 0.0000 M 0 0 0 0
2017/06/08 08:31:00 BASE 12.36 353 13.68 354 -1.6 77 -5.1 0 0 985.3 NA 0.0000 M 7870 0 0 0
2017/06/08 08:32:00 BASE 12.03 356 13.12 1 -1.6 77 -5.1 0 0 985.3 NA 0.0000 M 7840 0 0 0
2017/06/08 08:33:00 BASE 11.42 352 13.12 1 -1.6 77 -5.0 0 0 985.3 NA 0.0000 M 7740 0 0 0
2017/06/08 08:34:00 BASE 10.92 359 13.12 1 -1.6 78 -5.0 0 0 985.4 NA 0.0000 M 7810 0 0 0
2017/06/08 08:35:00 BASE 10.91 0 13.12 1 -1.6 78 -5.0 0 0 985.3 NA 0.0000 M 8100 0 0 0
2017/06/08 08:36:00 BASE 11.73 355 13.38 347 -1.6 78 -5.0 0 0 985.2 NA 0.0000 M 7610 0 0 0
2017/06/08 08:37:00 BASE 12.02 354 13.38 347 -1.6 78 -5.0 0 0 985.3 NA 0.0000 M 7480 0 0 0
2017/06/08 08:38:01 BASE 11.43 349 13.38 347 -1.6 78 -5.0 0 0 985.3 NA 0.0000 M 7610 0 0 0
2017/06/08 08:39:00 BASE 11.28 350 13.38 347 -1.6 77 -5.1 0 0 985.3 NA 0.0000 M 7710 0 0 0
2017/06/08 08:40:00 BASE 11.55 351 13.38 347 -1.6 77 -5.1 0 0 985.2 NA 0.0000 M 7710 0 0 0
2017/06/08 08:41:00 BASE 11.79 351 13.38 347 -1.6 77 -5.1 0 0 985.3 NA 0.0000 M 7680 8240 0 0
2017/06/08 08:42:00 BASE 11.72 351 13.38 347 -1.6 77 -5.2 0 0 985.3 NA 0.0000 M 8070 0 0 0
2017/06/08 08:43:00 BASE 11.64 349 13.38 347 -1.6 77 -5.2 0 0 985.2 NA 0.0000 M 7970 0 0 0
2017/06/08 08:44:00 BASE 11.92 356 13.38 347 -1.6 76 -5.2 0 0 985.3 NA 0.0000 M 7940 0 0 0
2017/06/08 08:45:00 BASE 12.06 3 13.38 347 -1.6 76 -5.2 0 0 985.3 NA 0.0000 M 8010 0 0 0
2017/06/08 08:46:00 BASE 11.59 358 12.96 352 -1.6 76 -5.3 0 0 985.3 NA 0.0000 M 7970 0 0 0
2017/06/08 08:47:00 BASE 11.19 351 12.96 352 -1.6 76 -5.3 0 0 985.3 NA 0.0000 M 8040 0 0 0
2017/06/08 08:48:00 BASE 10.80 351 12.96 352 -1.6 76 -5.3 0 0 985.3 NA 0.0000 M 8040 0 0 0
2017/06/08 08:49:00 BASE 10.63 354 12.96 352 -1.6 76 -5.2 0 0 985.3 NA 0.0000 M 7870 0 0 0
2017/06/08 08:50:00 BASE 11.01 354 12.96 352 -1.6 76 -5.2 0 0 985.4 NA 0.0000 M 7970 0 0 0
2017/06/08 08:51:00 BASE 11.15 351 12.91 1 -1.5 76 -5.2 0 0 985.4 NA 0.0000 M 7840 0 0 0
2017/06/08 08:52:01 BASE 10.61 348 12.91 1 -1.5 76 -5.2 0 0 985.4 NA 0.0000 M 7870 0 0 0
2017/06/08 08:53:01 BASE 10.10 354 12.91 1 -1.5 76 -5.2 0 0 985.4 NA 0.0000 M 7810 0 0 0
2017/06/08 08:54:01 BASE 10.39 358 12.81 2 -1.6 76 -5.2 0 0 985.4 NA 0.0000 M 7740 0 0 0
2017/06/08 08:55:01 BASE 10.74 358 12.60 349 -1.6 76 -5.3 0 0 985.4 NA 0.0000 M 7710 0 0 0
2017/06/08 08:56:01 BASE 11.09 0 12.19 351 -1.7 76 -5.3 0 0 985.3 NA 0.0000 M 7550 0 0 0
2017/06/08 08:57:01 BASE 11.51 2 12.14 1 -1.7 76 -5.3 0 0 985.3 NA 0.0000 M 7640 0 0 0
2017/06/08 08:58:01 BASE 11.55 4 12.14 1 -1.7 76 -5.3 0 0 985.3 NA 0.0000 M 7710 0 0 0
2017/06/08 08:59:01 BASE 11.39 4 12.14 1 -1.7 77 -5.3 0 0 985.3 NA 0.0000 M 7680 0 0 0
2017/06/08 09:00:01 BASE 11.32 360 12.19 242 -1.7 77 -5.3 0 0 985.3 NA 0.0000 M 7710 0 0 0
2017/06/08 09:01:01 BASE 11.64 356 12.45 353 -1.7 77 -5.2 0 0 985.2 NA 0.0000 M 7480 0 0 0
2017/06/08 09:02:01 BASE 11.65 6 12.45 353 -1.7 77 -5.2 0 0 985.3 NA 0.0000 M 8010 0 0 0
2017/06/08 09:03:01 BASE 11.28 6 12.45 353 -1.7 77 -5.2 0 0 985.3 NA 0.0000 M 0 0 0 0
2017/06/08 09:04:01 BASE 11.00 356 12.45 353 -1.7 77 -5.2 0 0 985.3 NA 0.0000 M 0 0 0 0
2017/06/08 09:05:01 BASE 10.83 354 12.45 353 -1.7 77 -5.2 0 0 985.3 NA 0.0000 M 0 0 0 0
2017/06/08 09:06:01 BASE 10.63 359 12.45 353 -1.8 77 -5.3 0 0 985.2 NA 0.0000 M 0 0 0 0
2017/06/08 09:07:01 BASE 10.67 1 12.45 353 -1.8 77 -5.3 0 0 985.3 NA 0.0000 M 0 0 0 0
2017/06/08 09:08:01 BASE 10.80 0 12.45 353 -1.8 77 -5.3 0 0 985.3 NA 0.0000 M 0 0 0 0
2017/06/08 09:09:01 BASE 10.96 2 12.45 353 -1.8 77 -5.3 0 0 985.2 NA 0.0000 M 0 0 0 0
2017/06/08 09:10:01 BASE 11.20 2 12.45 353 -1.8 77 -5.3 0 0 985.2 NA 0.0000 M 0 0 0 0
2017/06/08 09:11:01 BASE 11.27 2 12.14 360 -1.8 77 -5.3 0 0 985.2 NA 0.0000 M 0 0 0 0
2017/06/08 09:12:01 BASE 11.02 4 12.14 360 -1.8 76 -5.4 0 0 985.2 NA 0.0000 M 0 0 0 0
2017/06/08 09:13:01 BASE 10.74 5 12.14 360 -1.8 76 -5.5 0 0 985.2 NA 0.0000 M 0 0 0 0
2017/06/08 09:14:01 BASE 10.89 7 12.14 9 -1.8 75 -5.6 0 0 985.2 NA 0.0000 M 0 0 0 0
2017/06/08 09:15:01 BASE 10.98 14 12.14 9 -1.9 75 -5.7 0 0 985.2 NA 0.0000 M 0 0 0 0
2017/06/08 09:16:01 BASE 10.92 15 12.14 9 -1.9 75 -5.8 0 0 985.2 NA 0.0000 M 0 0 0 0
2017/06/08 09:17:01 BASE 10.76 12 12.14 9 -2.0 74 -5.9 0 0 985.2 NA 0.0000 M 0 0 0 0
2017/06/08 09:18:01 BASE 10.29 11 12.14 9 -2.0 74 -6.0 0 0 985.2 NA 0.0000 M 0 0 0 0
2017/06/08 09:19:01 BASE 10.60 15 12.24 17 -2.1 74 -6.0 0 0 985.2 NA 0.0000 M 12270 0 0 0
2017/06/08 09:20:01 BASE 11.31 17 12.35 2 -2.1 74 -6.1 0 0 985.1 NA 0.0000 M 0 0 0 0
2017/06/08 09:21:01 BASE 11.12 14 12.35 2 -2.2 75 -6.1 0 0 985.1 NA 0.0000 M 0 0 0 0
2017/06/08 09:22:01 BASE 10.65 13 12.35 2 -2.2 75 -6.0 0 0 985.1 NA 0.0000 M 0 0 0 0
2017/06/08 09:23:01 BASE 10.40 13 12.35 2 -2.2 75 -6.0 0 0 985.1 NA 0.0000 M 0 0 0 0
2017/06/08 09:24:01 BASE 10.42 12 12.35 2 -2.2 76 -5.9 0 0 985.1 NA 0.0000 M 0 0 0 0
2017/06/08 09:25:01 BASE 10.58 10 12.55 19 -2.2 76 -5.9 0 0 985.1 NA 0.0000 M 0 0 0 0
2017/06/08 09:26:01 BASE 10.65 7 12.55 19 -2.2 76 -5.9 0 0 985.1 NA 0.0000 9999 0 0 0 0
2017/06/08 09:27:01 BASE 10.82 8 12.55 11 -2.2 76 -5.8 0 0 985.1 NA 0.0000 9999 0 0 0 0
2017/06/08 09:28:01 BASE 11.17 8 12.60 8 -2.2 76 -5.7 0 0 985.1 NA 0.0000 9999 0 0 0 0
2017/06/08 09:29:01 BASE 11.47 7 12.60 8 -2.1 77 -5.7 0 0 985.1 NA 0.0000 9999 0 0 0 0
2017/06/08 09:30:01 BASE 11.61 6 12.60 1 -2.1 77 -5.5 0 0 985.1 NA 0.0000 M 0 0 0 0
2017/06/08 09:31:01 BASE 10.80 8 12.60 1 -2.1 78 -5.4 0 0 985.2 NA 0.0000 M 0 0 0 0
2017/06/08 09:32:01 BASE 10.25 6 12.60 1 -2.1 79 -5.3 0 0 985.1 NA 0.0000 M 0 0 0 0
2017/06/08 09:33:01 BASE 10.24 5 12.60 1 -2.1 80 -5.1 0 0 985.2 NA 0.0000 M 0 0 0 520
2017/06/08 09:34:01 BASE 9.60 6 12.60 1 -2.1 81 -4.9 0 0 985.2 NA 0.0000 M 0 0 0 330
2017/06/08 09:35:01 BASE 9.45 7 12.60 1 -2.0 82 -4.8 0 0 985.2 NA 0.0000 M 0 0 0 0
2017/06/08 09:36:01 BASE 9.65 9 12.60 1 -2.0 82 -4.7 0 0 985.1 NA 0.0000 M 0 0 0 0
2017/06/08 09:37:01 BASE 9.74 11 12.60 1 -2.0 83 -4.6 0 0 985.1 NA 0.0000 M 0 0 0 0
2017/06/08 09:38:01 BASE 9.49 11 12.60 1 -2.0 83 -4.6 0 0 985.1 NA 0.0000 M 0 0 0 0
2017/06/08 09:39:01 BASE 8.84 8 12.60 1 -2.1 83 -4.6 0 0 985.1 NA 0.0000 M 0 0 0 0
2017/06/08 09:40:01 BASE 9.17 5 11.99 360 -2.1 83 -4.6 0 0 985.1 NA 0.0000 M 0 0 0 0
2017/06/08 09:41:01 BASE 9.87 2 11.99 360 -2.0 83 -4.5 0 0 985.1 NA 0.0000 M 7910 0 0 0
2017/06/08 09:42:01 BASE 9.94 3 11.16 9 -2.0 83 -4.5 0 0 985.1 NA 0.0000 M 3710 7970 0 0
2017/06/08 09:43:01 BASE 9.49 8 10.91 5 -2.0 83 -4.5 0 0 985.2 NA 0.0000 M 3610 4200 0 0
2017/06/08 09:44:01 BASE 9.12 10 10.91 5 -2.0 82 -4.5 0 0 985.2 NA 0.0000 M 2330 3510 0 0
2017/06/08 09:45:01 BASE 9.29 6 10.91 5 -1.9 82 -4.6 0 0 985.1 NA 0.0000 M 2330 3670 0 0
2017/06/08 09:46:01 BASE 9.73 3 10.91 5 -2.0 82 -4.6 0 0 985.1 NA 0.0000 M 2260 0 0 0
2017/06/08 09:47:01 BASE 10.15 3 10.91 5 -2.0 82 -4.6 0 0 985.1 NA 0.0000 M 160 2400 0 0
2017/06/08 09:48:01 BASE 9.49 3 10.91 5 -2.0 82 -4.6 0 0 985.2 NA 0.0000 M 230 0 0 0
2017/06/08 09:49:01 BASE 8.64 3 10.91 5 -2.0 83 -4.5 0 0 985.2 NA 0.0000 M 230 0 0 0
2017/06/08 09:50:01 BASE 8.41 356 10.91 5 -1.9 83 -4.4 0 0 985.2 NA 0.0000 M 300 0 0 0
2017/06/08 09:51:01 BASE 8.43 350 10.85 4 -1.9 83 -4.3 0 0 985.2 NA 0.0000 M 300 0 0 0
2017/06/08 09:52:01 BASE 8.00 354 10.85 4 -1.9 84 -4.3 0 0 985.3 NA 0.0000 M 200 0 0 0
2017/06/08 09:53:01 BASE 7.80 351 10.85 4 -1.9 84 -4.2 0 0 985.2 NA 0.0000 M 2720 0 0 0
2017/06/08 09:54:01 BASE 7.65 344 10.85 4 -1.9 84 -4.2 0 0 985.3 NA 0.0000 M 430 0 0 0
2017/06/08 09:55:01 BASE 6.98 338 10.85 4 -1.9 84 -4.2 0 0 985.2 NA 0.0000 M 330 2430 0 0
2017/06/08 09:56:01 BASE 6.61 340 10.80 1 -1.9 84 -4.2 0 0 985.2 NA 0.0000 M 330 0 0 0
2017/06/08 09:57:01 BASE 6.51 343 9.72 2 -1.8 84 -4.2 0 0 985.2 NA 0.0000 M 1610 0 0 0
2017/06/08 09:58:01 BASE 6.20 340 9.21 354 -1.8 84 -4.2 0 0 985.3 NA 0.0000 M 2490 0 0 0
2017/06/08 09:59:01 BASE 6.66 340 9.52 342 -1.8 84 -4.1 0 0 985.2 NA 0.0000 M 2690 0 0 0
2017/06/08 10:00:01 BASE 7.94 346 9.67 1 -1.8 84 -4.1 0 0 985.1 NA 0.0000 M 1770 3020 0 0
2017/06/08 10:01:01 BASE 9.22 350 11.47 347 -1.8 84 -4.1 0 0 985.0 NA 0.0000 M 3710 0 0 0
2017/06/08 10:02:01 BASE 9.15 346 11.47 347 -1.8 84 -4.1 0 0 985.0 NA 0.0000 M 8560 0 0 0
2017/06/08 10:03:01 BASE 8.95 344 11.47 347 -1.8 84 -4.1 0 0 984.9 NA 0.0000 M 8690 0 0 0
2017/06/08 10:04:01 BASE 9.81 349 11.47 347 -1.7 84 -4.2 0 0 984.9 NA 0.0000 M 8600 0 0 0
2017/06/08 10:05:01 BASE 10.40 351 11.78 3 -1.7 83 -4.2 0 0 984.9 NA 0.0000 9999 8660 0 0 0
2017/06/08 10:06:01 BASE 10.11 351 11.78 3 -1.7 83 -4.2 0 0 984.9 NA 0.0000 9999 8530 0 0 0
2017/06/08 10:07:01 BASE 9.63 351 11.78 3 -1.7 83 -4.2 0 0 984.8 NA 0.0000 9999 8460 0 0 0
2017/06/08 10:08:01 BASE 10.36 353 12.60 354 -1.6 82 -4.3 0 0 984.8 NA 0.0000 9999 8690 0 0 0
2017/06/08 10:09:01 BASE 10.95 349 12.60 354 -1.6 82 -4.3 0 0 984.8 NA 0.0000 9999 8660 0 0 0
2017/06/08 10:10:01 BASE 11.77 348 13.53 194 -1.6 81 -4.4 0 0 984.7 NA 0.0000 9999 8660 0 0 0
2017/06/08 10:11:01 BASE 12.16 352 13.53 194 -1.6 81 -4.5 0 0 984.7 NA 0.0000 9999 8460 0 0 0
2017/06/08 10:12:01 BASE 11.36 354 13.53 194 -1.6 80 -4.5 0 0 984.7 NA 0.0000 9999 8500 0 0 0
2017/06/08 10:13:01 BASE 11.56 1 13.53 194 -1.6 80 -4.6 0 0 984.7 NA 0.0000 9999 8530 0 0 0
2017/06/08 10:14:01 BASE 12.25 4 13.79 6 -1.6 80 -4.6 0 0 984.6 NA 0.0000 9999 8660 0 0 0
2017/06/08 10:15:01 BASE 12.68 4 14.40 4 -1.6 80 -4.7 0 0 984.6 NA 0.0000 9999 8830 0 0 0
2017/06/08 10:16:01 BASE 13.34 4 14.40 4 -1.7 80 -4.7 0 0 984.5 NA 0.0000 9999 8860 0 0 0
2017/06/08 10:17:01 BASE 13.19 6 14.40 4 -1.7 79 -4.8 0 0 984.5 NA 0.0000 9999 8500 0 0 0
2017/06/08 10:18:01 BASE 13.17 7 14.40 4 -1.7 79 -4.8 0 0 984.4 NA 0.0000 9999 8170 0 0 0
2017/06/08 10:19:01 BASE 13.30 7 14.61 6 -1.7 79 -4.8 0 0 984.4 NA 0.0000 9999 7870 0 0 0
2017/06/08 10:20:01 BASE 12.89 5 14.61 6 -1.6 79 -4.8 0 0 984.4 NA 0.0000 9999 7740 0 0 0
2017/06/08 10:21:01 BASE 12.69 2 14.61 6 -1.6 79 -4.8 0 0 984.4 NA 0.0000 9999 7970 0 0 0
2017/06/08 10:22:01 BASE 12.74 1 14.61 6 -1.6 79 -4.8 0 0 984.4 NA 0.0000 9999 7450 0 0 0
2017/06/08 10:23:01 BASE 12.94 2 14.61 6 -1.6 78 -4.8 0 0 984.4 NA 0.0000 9999 8070 0 0 0
2017/06/08 10:24:01 BASE 13.01 1 14.61 6 -1.5 78 -4.8 0 0 984.4 NA 0.0000 9999 8140 0 0 0
2017/06/08 10:25:01 BASE 13.24 358 14.61 6 -1.5 78 -4.9 0 0 984.4 NA 0.0000 9999 0 0 0 0
2017/06/08 10:26:01 BASE 13.31 356 14.61 6 -1.5 78 -4.8 0 0 984.4 NA 0.0000 9999 0 0 0 2230
2017/06/08 10:27:01 BASE 12.73 359 14.61 6 -1.5 78 -4.8 0 0 984.6 NA 0.0000 9999 460 0 0 0
2017/06/08 10:28:01 BASE 12.61 1 14.61 6 -1.5 79 -4.8 0 0 984.5 NA 0.0000 9999 0 0 0 3900
2017/06/08 10:29:01 BASE 12.65 354 14.25 353 -1.5 79 -4.7 0 0 984.5 NA 0.0000 9999 430 0 0 0
2017/06/08 10:30:01 BASE 12.61 350 14.25 353 -1.6 79 -4.7 0 0 984.5 NA 0.0000 9999 300 0 0 0
2017/06/08 10:31:01 BASE 12.37 349 14.25 353 -1.6 79 -4.7 0 0 984.6 NA 0.0000 9999 260 0 0 0
2017/06/08 10:32:01 BASE 11.80 349 14.25 353 -1.6 79 -4.7 0 0 984.6 NA 0.0000 9999 330 0 0 0
2017/06/08 10:33:01 BASE 11.54 351 14.25 353 -1.6 80 -4.7 0 0 984.6 NA 0.0000 9999 360 0 0 0
2017/06/08 10:34:01 BASE 11.07 350 14.25 353 -1.6 80 -4.6 0 0 984.6 NA 0.0000 9999 0 0 0 3020
2017/06/08 10:35:01 BASE 10.90 357 14.15 354 -1.6 80 -4.6 0 0 984.6 NA 0.0000 9999 0 0 0 3510
2017/06/08 10:36:01 BASE 11.26 5 14.15 354 -1.5 80 -4.5 0 0 984.5 NA 0.0000 M 3350 0 0 0
2017/06/08 10:37:00 BASE 11.48 6 14.15 354 -1.5 80 -4.5 0 0 984.5 NA 0.0000 M 4130 0 0 0
2017/06/08 10:38:00 BASE 11.76 5 14.15 354 -1.5 79 -4.6 0 0 984.5 NA 0.0000 M 2560 0 0 0
2017/06/08 10:39:00 BASE 12.15 1 14.15 354 -1.5 79 -4.6 0 0 984.5 NA 0.0000 M 3870 0 0 0
2017/06/08 10:40:00 BASE 12.35 358 13.07 5 -1.4 78 -4.7 0 0 984.5 NA 0.0000 9999 4270 5120 0 0
2017/06/08 10:41:00 BASE 13.05 0 14.76 1 -1.4 78 -4.8 0 0 984.4 NA 0.0000 9999 3740 0 0 0
2017/06/08 10:42:00 BASE 13.53 1 14.76 1 -1.4 77 -4.8 0 0 984.5 NA 0.0000 9999 0 0 0 5020
2017/06/08 10:43:00 BASE 13.51 1 14.82 1 -1.4 77 -4.8 0 0 984.5 NA 0.0000 9999 260 0 0 0
2017/06/08 10:44:00 BASE 13.80 2 14.87 2 -1.4 77 -4.8 0 0 984.5 NA 0.0000 M 200 0 0 0
2017/06/08 10:45:00 BASE 13.77 3 14.87 2 -1.4 78 -4.8 0 0 984.5 NA 0.0000 M 0 0 0 1900
2017/06/08 10:46:00 BASE 12.95 4 14.87 2 -1.5 78 -4.7 0 0 984.6 NA 0.0000 M 0 0 0 1870
2017/06/08 10:47:00 BASE 12.22 3 14.87 2 -1.5 79 -4.6 0 0 984.7 NA 0.0000 M 0 0 0 1800
2017/06/08 10:48:00 BASE 11.66 2 14.87 2 -1.6 80 -4.6 0 0 984.7 NA 0.0000 M 0 0 0 1440
2017/06/08 10:49:00 BASE 10.82 0 14.87 2 -1.6 81 -4.5 0 0 984.7 NA 0.0000 M 0 0 0 1480
2017/06/08 10:50:00 BASE 10.01 355 14.87 2 -1.6 81 -4.4 0 0 984.7 NA 0.0000 M 260 0 0 0
2017/06/08 10:51:00 BASE 9.48 354 14.87 2 -1.6 82 -4.3 0 0 984.8 NA 0.0000 M 300 0 0 0
2017/06/08 10:52:00 BASE 9.37 357 14.87 2 -1.6 82 -4.3 0 0 984.8 NA 0.0000 M 230 0 0 0
2017/06/08 10:53:00 BASE 9.79 355 14.87 2 -1.6 82 -4.3 0 0 984.7 NA 0.0000 M 390 0 0 0
2017/06/08 10:54:00 BASE 10.60 358 14.40 5 -1.6 82 -4.2 0 0 984.6 NA 0.0000 M 0 0 0 3610
2017/06/08 10:55:00 BASE 11.34 3 13.27 6 -1.6 82 -4.2 0 0 984.6 NA 0.0000 M 260 0 0 0
2017/06/08 10:56:00 BASE 11.53 7 13.17 6 -1.5 82 -4.3 0 0 984.6 NA 0.0000 M 300 0 0 0
2017/06/08 10:57:00 BASE 10.92 10 13.17 6 -1.5 82 -4.3 0 0 984.6 NA 0.0000 M 0 0 0 5120
2017/06/08 10:58:00 BASE 9.89 10 13.17 6 -1.6 81 -4.3 0 0 984.6 NA 0.0000 M 2560 0 0 0
2017/06/08 10:59:00 BASE 10.24 10 13.27 5 -1.6 81 -4.4 0 0 984.5 NA 0.0000 M 390 0 0 0
2017/06/08 11:00:00 BASE 10.57 8 13.27 5 -1.5 81 -4.4 0 0 984.5 NA 0.0000 M 390 0 0 0
2017/06/08 11:01:00 BASE 10.23 5 13.27 5 -1.5 81 -4.4 0 0 984.5 NA 0.0000 M 4460 0 0 0
2017/06/08 11:02:00 BASE 10.56 8 13.27 5 -1.5 80 -4.5 0 0 984.5 NA 0.0000 M 4530 0 0 0
2017/06/08 11:03:00 BASE 10.94 9 13.27 11 -1.5 80 -4.5 0 0 984.4 NA 0.0000 M 4660 0 0 0
2017/06/08 11:04:00 BASE 11.52 5 13.53 10 -1.6 80 -4.6 0 0 984.4 NA 0.0000 M 0 0 0 2690
2017/06/08 11:05:00 BASE 12.03 3 13.53 10 -1.6 80 -4.6 0 0 984.3 NA 0.0000 M 0 0 0 2000
2017/06/08 11:06:00 BASE 11.86 4 13.53 10 -1.6 80 -4.6 0 0 984.3 NA 0.0000 M 0 0 0 3310
2017/06/08 11:07:00 BASE 11.76 5 13.58 17 -1.6 80 -4.6 0 0 984.3 NA 0.0000 M 2990 0 0 0
2017/06/08 11:08:00 BASE 12.21 5 13.58 17 -1.6 80 -4.7 0 0 984.2 NA 0.0000 M 2850 0 0 0
2017/06/08 11:09:00 BASE 12.82 6 14.40 11 -1.6 79 -4.7 0 0 984.1 NA 0.0000 M 0 0 0 0
2017/06/08 11:10:00 BASE 13.84 6 15.38 6 -1.6 79 -4.8 0 0 984.0 NA 0.0000 9999 0 0 0 0
2017/06/08 11:11:00 BASE 14.46 6 15.64 5 -1.6 79 -4.8 0 0 984.0 NA 0.0000 9999 0 0 0 0
2017/06/08 11:12:00 BASE 13.95 7 15.64 5 -1.6 78 -4.9 0 0 984.0 NA 0.0000 9999 0 0 0 0
2017/06/08 11:13:00 BASE 13.62 6 15.64 5 -1.6 78 -4.9 0 0 984.0 NA 0.0000 9999 0 0 0 0
2017/06/08 11:14:00 BASE 13.81 6 15.64 5 -1.6 78 -5.0 0 0 984.0 NA 0.0000 9999 0 0 0 0
2017/06/08 11:15:00 BASE 12.95 7 15.64 5 -1.6 78 -5.0 0 0 984.1 NA 0.0000 9999 0 0 0 0
2017/06/08 11:16:00 BASE 12.07 7 15.64 5 -1.6 77 -5.0 0 0 984.1 NA 0.0000 9999 0 0 0 0
2017/06/08 11:17:00 BASE 11.96 7 15.64 5 -1.6 77 -5.1 0 0 984.1 NA 0.0000 9999 6660 0 0 0
2017/06/08 11:18:00 BASE 12.12 10 15.64 5 -1.7 77 -5.2 0 0 984.1 NA 0.0000 9999 0 0 0 0
2017/06/08 11:19:00 BASE 13.05 7 15.64 5 -1.7 77 -5.2 0 0 984.0 NA 0.0000 9999 0 0 0 0
2017/06/08 11:20:00 BASE 13.59 4 15.64 5 -1.8 77 -5.2 0 0 983.9 NA 0.0000 9999 0 0 0 0
2017/06/08 11:21:00 BASE 14.23 6 16.41 4 -1.8 77 -5.2 0 0 983.9 NA 0.0000 9999 7780 0 0 0
2017/06/08 11:22:00 BASE 15.19 6 16.41 4 -1.8 78 -5.2 0 0 983.8 NA 0.0000 9999 7450 0 0 0
2017/06/08 11:23:00 BASE 14.88 6 16.41 4 -1.8 78 -5.2 0 0 983.9 NA 0.0000 9999 7450 0 0 0
2017/06/08 11:24:00 BASE 14.66 4 16.41 4 -1.8 78 -5.1 0 0 983.8 NA 0.0000 9999 0 0 0 0
2017/06/08 11:25:00 BASE 14.15 3 16.41 4 -1.7 78 -5.1 0 0 983.9 NA 0.0000 9999 0 0 0 0
2017/06/08 11:26:00 BASE 13.77 6 16.41 4 -1.7 78 -5.1 0 0 983.9 NA 0.0000 9999 0 0 0 560
2017/06/08 11:27:00 BASE 14.51 8 16.82 12 -1.7 77 -5.1 0 0 983.8 NA 0.0000 9999 0 0 0 490
2017/06/08 11:28:00 BASE 15.04 7 17.18 9 -1.7 77 -5.2 0 0 983.8 NA 0.0000 9999 0 0 0 620
2017/06/08 11:29:00 BASE 14.24 7 17.18 9 -1.8 77 -5.3 0 0 983.9 NA 0.0000 9999 0 0 0 590
2017/06/08 11:30:00 BASE 13.67 7 17.18 9 -1.8 77 -5.3 0 0 983.9 NA 0.0000 9999 300 7220 0 0
2017/06/08 11:31:00 BASE 14.50 6 17.18 9 -1.8 77 -5.3 0 0 983.8 NA 0.0000 9999 300 0 0 0
2017/06/08 11:32:00 BASE 15.09 5 17.18 9 -1.8 77 -5.2 0 0 983.8 NA 0.0000 9999 0 0 0 1150
2017/06/08 11:33:00 BASE 15.46 5 17.18 9 -1.8 78 -5.1 0 0 983.8 NA 0.0000 M 0 0 0 1710
2017/06/08 11:34:00 BASE 15.48 4 17.18 9 -1.8 78 -5.0 0 0 983.9 NA 0.0000 M 0 0 0 2850
2017/06/08 11:35:00 BASE 15.27 4 17.18 9 -1.7 79 -4.9 0 0 983.9 NA 0.0000 M 260 0 0 0
2017/06/08 11:36:00 BASE 15.03 4 17.18 9 -1.7 79 -4.8 0 0 983.9 NA 0.0000 M 260 0 0 0
2017/06/08 11:37:00 BASE 14.74 4 17.18 9 -1.7 79 -4.8 0 0 983.9 NA 0.0000 M 330 0 0 0
2017/06/08 11:38:00 BASE 14.16 6 16.98 22 -1.6 79 -4.7 0 0 984.0 NA 0.0000 M 360 0 0 0
2017/06/08 11:39:00 BASE 13.80 8 16.98 22 -1.6 79 -4.7 0 0 984.0 NA 0.0000 M 720 2660 0 0
2017/06/08 11:40:00 BASE 13.48 9 16.98 22 -1.6 79 -4.7 0 0 984.0 NA 0.0000 M 3180 0 0 0
2017/06/08 11:41:00 BASE 12.80 8 16.72 5 -1.6 79 -4.8 0 0 984.0 NA 0.0000 M 2990 0 0 0
2017/06/08 11:42:00 BASE 12.98 8 16.72 5 -1.5 78 -4.8 0 0 984.0 NA 0.0000 9999 3580 0 0 0
2017/06/08 11:43:00 BASE 12.95 8 16.72 5 -1.5 78 -4.9 0 0 984.1 NA 0.0000 9999 5150 0 0 0
2017/06/08 11:44:00 BASE 12.45 7 16.72 5 -1.5 77 -4.9 0 0 984.0 NA 0.0000 9999 6730 0 0 0
2017/06/08 11:45:00 BASE 12.29 8 16.31 5 -1.5 77 -5.0 0 0 984.0 NA 0.0000 9999 5840 0 0 0
2017/06/08 11:46:00 BASE 12.63 10 16.00 5 -1.5 77 -5.1 0 0 984.0 NA 0.0000 9999 7480 0 0 0
2017/06/08 11:47:00 BASE 12.36 12 15.84 7 -1.5 77 -5.1 0 0 984.0 NA 0.0000 9999 0 0 0 0
2017/06/08 11:48:00 BASE 11.58 13 15.84 7 -1.6 77 -5.1 0 0 984.0 NA 0.0000 9999 1800 0 0 0
2017/06/08 11:49:00 BASE 11.74 13 15.43 6 -1.6 77 -5.1 0 0 983.9 NA 0.0000 9999 0 0 0 1350
2017/06/08 11:50:00 BASE 11.56 14 15.43 6 -1.6 77 -5.1 0 0 984.0 NA 0.0000 9999 0 0 0 0
2017/06/08 11:51:00 BASE 11.63 16 15.43 6 -1.6 77 -5.2 0 0 984.0 NA 0.0000 9999 0 0 0 0
2017/06/08 11:52:00 BASE 11.90 13 14.46 9 -1.6 76 -5.2 0 0 983.9 NA 0.0000 9999 0 0 0 0
2017/06/08 11:53:00 BASE 11.50 11 14.46 9 -1.6 76 -5.3 0 0 983.9 NA 0.0000 9999 0 0 0 0
2017/06/08 11:54:00 BASE 10.44 13 14.46 9 -1.7 76 -5.3 0 0 984.0 NA 0.0000 9999 0 0 0 0
2017/06/08 11:55:00 BASE 10.24 13 14.46 9 -1.7 76 -5.4 0 0 984.0 NA 0.0000 9999 6690 0 0 0
2017/06/08 11:56:00 BASE 10.48 12 13.58 2 -1.7 76 -5.4 0 0 984.0 NA 0.0000 9999 0 0 0 0
2017/06/08 11:57:00 BASE 10.47 14 13.58 26 -1.8 76 -5.4 0 0 983.9 NA 0.0000 9999 0 0 0 0
2017/06/08 11:58:00 BASE 11.43 12 13.58 26 -1.8 76 -5.5 0 0 983.8 NA 0.0000 9999 0 0 0 0
2017/06/08 11:59:00 BASE 11.64 11 13.58 26 -1.8 76 -5.5 0 0 983.9 NA 0.0000 9999 0 0 0 0
2017/06/08 12:00:00 BASE 11.88 9 14.40 2 -1.9 76 -5.5 0 0 983.8 NA 0.0000 9999 0 0 0 560
2017/06/08 12:01:00 BASE 12.64 9 14.82 14 -1.9 76 -5.6 0 0 983.8 NA 0.0000 9999 0 0 0 590
2017/06/08 12:02:00 BASE 12.45 12 14.82 14 -1.9 76 -5.5 0 0 983.8 NA 0.0000 9999 7910 0 0 0
2017/06/08 12:03:00 BASE 12.75 12 14.82 14 -1.9 76 -5.5 0 0 983.7 NA 0.0000 9999 6960 0 0 0
2017/06/08 12:04:00 BASE 13.08 10 14.82 14 -1.8 76 -5.5 0 0 983.7 NA 0.0000 9999 6530 0 0 0
2017/06/08 12:05:00 BASE 13.18 8 14.82 14 -1.8 76 -5.4 0 0 983.7 NA 0.0000 9999 360 0 0 0
2017/06/08 12:06:00 BASE 13.15 10 14.82 14 -1.7 76 -5.4 0 0 983.7 NA 0.0000 9999 260 0 0 0
2017/06/08 12:07:00 BASE 12.81 8 14.82 14 -1.7 76 -5.4 0 0 983.8 NA 0.0000 -SN 9999 300 0 0 0
2017/06/08 12:08:00 BASE 12.87 5 14.82 14 -1.7 76 -5.3 0 0 983.8 NA 0.0000 -SN 9999 260 0 0 0
2017/06/08 12:09:00 BASE 12.64 7 14.82 14 -1.6 76 -5.3 0 0 983.9 NA 0.0000 -SN 9999 300 0 0 0
2017/06/08 12:10:00 BASE 11.99 10 14.82 14 -1.6 77 -5.2 0 0 983.9 NA 0.0000 -SN 9999 200 0 0 0
2017/06/08 12:11:00 BASE 11.19 11 14.71 11 -1.6 77 -5.1 0 0 984.0 NA 0.0000 -SN 9999 300 0 0 0
2017/06/08 12:12:00 BASE 11.15 12 14.66 15 -1.6 77 -5.1 0 0 983.9 NA 0.0000 -SN M 230 0 0 0
2017/06/08 12:13:00 BASE 10.71 13 14.46 3 -1.6 77 -5.1 0 0 984.0 NA 0.0000 -SN 9999 230 0 0 0
2017/06/08 12:14:00 BASE 9.45 15 14.46 3 -1.7 78 -5.0 0 0 984.0 NA 0.0000 -SN 9999 0 0 0 1870
2017/06/08 12:15:00 BASE 8.86 17 14.30 6 -1.7 78 -5.0 0 0 983.9 NA 0.0000 -SN 9999 0 0 0 1800
2017/06/08 12:16:00 BASE 8.76 19 14.30 6 -1.7 79 -5.0 0 0 984.0 NA 0.0000 -SN M 0 0 0 3180
2017/06/08 12:17:00 BASE 8.24 19 13.74 6 -1.7 79 -4.9 0 0 984.0 NA 0.0000 -SN M 360 0 0 0
2017/06/08 12:18:00 BASE 8.43 19 13.74 6 -1.8 79 -4.9 0 0 983.9 NA 0.0000 -SN M 390 0 0 0
2017/06/08 12:19:00 BASE 9.29 21 12.91 15 -1.8 79 -4.9 0 0 983.9 NA 0.0000 -SN 9999 590 0 0 0
2017/06/08 12:20:00 BASE 9.28 22 12.91 15 -1.8 79 -5.0 0 0 983.8 NA 0.0000 -SN 9999 0 0 0 4560
2017/06/08 12:21:00 BASE 9.31 19 12.91 15 -1.8 78 -5.0 0 0 983.9 NA 0.0000 -SN 9999 3120 0 0 0
2017/06/08 12:22:00 BASE 9.83 17 11.99 17 -1.7 78 -5.1 0 0 983.8 NA 0.0000 -SN 9999 1080 0 0 0
2017/06/08 12:23:00 BASE 10.79 15 12.91 17 -1.7 77 -5.2 0 0 983.8 NA 0.0000 -SN 9999 330 0 0 0
2017/06/08 12:24:00 BASE 11.20 14 12.91 17 -1.7 77 -5.3 0 0 983.8 NA 0.0000 -SN 9000 0 0 0 1480
2017/06/08 12:25:00 BASE 10.62 19 12.91 17 -1.8 77 -5.3 0 0 983.8 NA 0.0000 -SN 6000 0 0 0 1380
2017/06/08 12:26:00 BASE 10.40 26 12.91 17 -1.8 77 -5.4 0 0 983.8 NA 0.0000 -SN 6000 0 0 0 1870
2017/06/08 12:27:00 BASE 9.75 28 12.91 17 -1.9 77 -5.4 0 0 983.8 NA 0.0000 -SN 9000 230 0 0 0
2017/06/08 12:28:00 BASE 9.38 28 12.91 17 -2.1 78 -5.4 0 0 983.8 NA 0.0000 -SN 9999 0 0 0 2330
2017/06/08 12:29:00 BASE 9.87 28 12.91 17 -2.2 79 -5.4 0 0 983.8 NA 0.0000 -SN 9999 0 0 0 2850
2017/06/08 12:30:00 BASE 10.74 28 12.91 17 -2.2 80 -5.3 0 0 983.7 NA 0.0000 -SN 9999 0 0 0 2890
2017/06/08 12:31:00 BASE 11.17 33 12.91 17 -2.3 80 -5.2 0 0 983.7 NA 0.0000 -SN 7000 160 0 0 0
2017/06/08 12:32:00 BASE 10.71 33 12.91 17 -2.3 81 -5.2 0 0 983.6 NA 0.0000 -SN 7000 0 0 0 2200
2017/06/08 12:33:00 BASE 10.75 28 12.60 32 -2.4 81 -5.2 0 0 983.6 NA 0.0000 -SN 9999 0 0 0 2100
2017/06/08 12:34:00 BASE 10.82 22 12.60 32 -2.4 81 -5.2 0 0 983.6 NA 0.0000 -SN 9999 0 0 0 0
2017/06/08 12:35:00 BASE 10.51 19 12.60 32 -2.4 81 -5.2 0 0 983.6 NA 0.0000 -SN 9999 0 0 0 0
2017/06/08 12:36:00 BASE 9.94 20 12.60 32 -2.4 81 -5.2 0 0 983.6 NA 0.0000 -SN 9999 0 0 0 0
2017/06/08 12:37:00 BASE 9.98 19 12.60 32 -2.3 80 -5.2 0 0 983.5 NA 0.0000 -SN 9999 0 0 0 0
2017/06/08 12:38:00 BASE 10.02 16 12.60 32 -2.2 80 -5.2 0 0 983.5 NA 0.0000 -SN 9999 0 0 0 0
2017/06/08 12:39:00 BASE 9.58 13 12.60 32 -2.1 79 -5.3 0 0 983.5 NA 0.0000 -SN 9999 0 0 0 0
2017/06/08 12:40:00 BASE 10.08 13 12.50 10 -2.0 78 -5.3 0 0 983.4 NA 0.0000 -SN 9999 0 0 0 0
2017/06/08 12:41:00 BASE 10.25 11 12.50 10 -2.0 77 -5.4 0 0 983.5 NA 0.0000 9999 0 0 0 0
2017/06/08 12:42:00 BASE 9.52 9 12.50 10 -1.9 77 -5.4 0 0 983.5 NA 0.0000 9999 7320 0 0 0
2017/06/08 12:43:00 BASE 9.35 11 12.50 10 -1.8 76 -5.5 0 0 983.5 NA 0.0000 9999 3120 0 0 0
2017/06/08 12:44:00 BASE 9.30 12 12.50 10 -1.8 76 -5.5 0 0 983.4 NA 0.0000 9999 0 0 0 2690
2017/06/08 12:45:00 BASE 9.35 12 12.50 10 -1.7 75 -5.5 0 0 983.4 NA 0.0000 9999 0 0 0 2560
2017/06/08 12:46:00 BASE 9.25 11 12.50 10 -1.7 75 -5.6 0 0 983.3 NA 0.0000 9999 300 0 0 0
2017/06/08 12:47:00 BASE 9.89 11 12.50 10 -1.7 75 -5.6 0 0 983.3 NA 0.0000 9999 330 0 0 0
2017/06/08 12:48:00 BASE 11.32 9 13.27 13 -1.7 75 -5.6 0 0 983.2 NA 0.0000 9999 430 0 0 0
2017/06/08 12:49:00 BASE 11.77 7 13.27 13 -1.7 75 -5.6 0 0 983.2 NA 0.0000 9999 0 0 0 5680
2017/06/08 12:50:00 BASE 12.03 9 14.92 8 -1.7 75 -5.5 0 0 983.1 NA 0.0000 9999 0 0 0 660
2017/06/08 12:51:00 BASE 12.19 11 14.92 8 -1.7 75 -5.5 0 0 983.1 NA 0.0000 9999 0 0 0 390
2017/06/08 12:52:00 BASE 12.05 14 14.92 8 -1.7 76 -5.4 0 0 983.2 NA 0.0000 9999 0 0 0 460
2017/06/08 12:53:00 BASE 11.46 16 14.92 8 -1.7 76 -5.5 0 0 983.2 NA 0.0000 9999 0 0 0 430
2017/06/08 12:54:00 BASE 11.11 18 14.92 8 -1.7 76 -5.5 0 0 983.2 NA 0.0000 9999 5770 0 0 0
2017/06/08 12:55:00 BASE 10.69 21 14.92 8 -1.7 75 -5.5 0 0 983.3 NA 0.0000 9999 5220 0 0 0
2017/06/08 12:56:00 BASE 10.44 21 14.92 8 -1.8 75 -5.6 0 0 983.2 NA 0.0000 9999 6000 0 0 0
2017/06/08 12:57:00 BASE 11.11 21 14.92 8 -1.8 75 -5.7 0 0 983.3 NA 0.0000 9999 6560 0 0 0
2017/06/08 12:58:00 BASE 10.96 23 14.92 8 -1.9 74 -5.8 0 0 983.3 NA 0.0000 9999 6040 0 0 0
2017/06/08 12:59:01 BASE 10.49 23 14.92 8 -1.9 74 -5.9 0 0 983.2 NA 0.0000 9999 7150 0 0 0
2017/06/08 13:00:01 BASE 10.45 17 13.68 31 -2.0 74 -6.0 0 0 983.2 NA 0.0000 9999 7710 0 0 0
2017/06/08 13:01:01 BASE 10.41 10 13.68 31 -2.0 74 -6.0 0 0 983.2 NA 0.0000 9999 7380 0 0 0
2017/06/08 13:02:01 BASE 10.46 8 13.68 31 -2.0 74 -6.0 0 0 983.2 NA 0.0000 9999 6630 0 0 0
2017/06/08 13:03:01 BASE 11.21 9 13.94 15 -2.0 75 -5.9 0 0 983.1 NA 0.0000 9999 0 0 0 1310
2017/06/08 13:04:01 BASE 11.49 11 13.94 15 -2.0 75 -5.8 0 0 983.2 NA 0.0000 9999 330 0 0 0
2017/06/08 13:05:01 BASE 10.50 11 13.94 15 -1.9 75 -5.7 0 0 983.2 NA 0.0000 9999 360 0 0 0
2017/06/08 13:06:01 BASE 10.36 10 13.94 15 -1.8 75 -5.6 0 0 983.2 NA 0.0000 9999 850 0 0 0
2017/06/08 13:07:01 BASE 10.70 11 13.94 15 -1.8 75 -5.6 0 0 983.2 NA 0.0000 9999 0 0 0 3020
2017/06/08 13:08:01 BASE 10.95 9 13.94 15 -1.7 75 -5.6 0 0 983.1 NA 0.0000 9999 0 0 0 3540
2017/06/08 13:09:01 BASE 11.88 5 14.25 7 -1.7 75 -5.5 0 0 983.1 NA 0.0000 9999 6430 0 0 0
2017/06/08 13:10:00 BASE 12.66 5 14.61 9 -1.6 75 -5.5 0 0 983.0 NA 0.0000 9999 4200 0 0 0
2017/06/08 13:11:00 BASE 12.70 6 14.61 9 -1.6 75 -5.4 0 0 983.0 NA 0.0000 9999 5580 0 0 0
2017/06/08 13:12:00 BASE 12.43 7 14.61 9 -1.5 75 -5.4 0 0 983.0 NA 0.0000 9999 6400 0 0 0
2017/06/08 13:13:00 BASE 12.28 9 14.61 9 -1.5 75 -5.4 0 0 983.1 NA 0.0000 9999 6500 0 0 0
2017/06/08 13:14:01 BASE 11.65 8 14.61 9 -1.5 74 -5.5 0 0 983.1 NA 0.0000 9999 5180 0 0 0
2017/06/08 13:15:00 BASE 10.86 6 14.61 9 -1.5 74 -5.5 0 0 983.2 NA 0.0000 9999 5380 0 0 0
2017/06/08 13:16:00 BASE 10.69 6 14.61 9 -1.5 74 -5.5 0 0 983.2 NA 0.0000 9999 5540 0 0 0
2017/06/08 13:17:00 BASE 10.56 7 14.61 9 -1.5 74 -5.6 0 0 983.2 NA 0.0000 9999 5480 0 0 0
2017/06/08 13:18:00 BASE 10.40 9 14.61 9 -1.5 74 -5.6 0 0 983.2 NA 0.0000 9999 6200 0 0 0
2017/06/08 13:19:00 BASE 10.28 12 14.61 9 -1.4 73 -5.6 0 0 983.2 NA 0.0000 9999 0 0 0 2070
2017/06/08 13:20:00 BASE 10.32 13 13.94 13 -1.4 73 -5.6 0 0 983.2 NA 0.0000 9999 0 0 0 2400
2017/06/08 13:21:00 BASE 10.25 15 13.94 13 -1.4 73 -5.7 0 0 983.2 NA 0.0000 9999 7250 0 0 0
2017/06/08 13:22:00 BASE 9.83 15 12.91 15 -1.5 72 -5.8 0 0 983.3 NA 0.0000 9999 360 0 0 0
2017/06/08 13:23:00 BASE 9.77 15 12.35 3 -1.5 72 -5.9 0 0 983.2 NA 0.0000 -SN 9999 300 0 0 0
2017/06/08 13:24:00 BASE 9.66 13 12.04 11 -1.6 73 -5.9 0 0 983.3 NA 0.0000 -SN 9999 360 0 0 0
2017/06/08 13:25:01 BASE 9.41 11 12.04 11 -1.7 73 -5.9 0 0 983.3 NA 0.0000 -SN 9999 360 0 0 0
2017/06/08 13:26:01 BASE 9.39 10 11.47 1 -1.7 73 -5.9 0 0 983.3 NA 0.0000 -SN 9999 330 0 0 0
2017/06/08 13:27:01 BASE 8.52 11 11.42 14 -1.8 74 -5.8 1 0 983.4 NA 0.0000 -SN 9999 260 0 0 0
2017/06/08 13:28:01 BASE 8.28 15 11.42 14 -1.8 74 -5.9 1 0 983.3 NA 0.0000 -SN 9999 300 0 0 0
2017/06/08 13:29:01 BASE 9.26 20 11.42 14 -1.9 74 -5.9 1 0 983.3 NA 0.0000 -SN 9999 430 0 0 0
2017/06/08 13:30:01 BASE 9.13 24 11.42 14 -1.9 74 -5.9 1 0 983.2 NA 0.0000 -SN 8000 330 0 0 0
2017/06/08 13:31:01 BASE 9.21 25 12.24 23 -2.0 74 -6.0 1 0 983.2 NA 0.0000 -SN 9000 0 0 0 2330
2017/06/08 13:32:01 BASE 10.60 25 13.48 20 -2.1 75 -6.0 1 1 983.1 NA 0.0000 -SN 8000 0 0 0 2790
2017/06/08 13:33:01 BASE 10.71 25 13.48 20 -2.1 75 -6.0 1 1 983.1 NA 0.0000 -SN 7000 0 0 0 2760
2017/06/08 13:34:01 BASE 10.67 25 13.48 20 -2.2 75 -6.0 1 1 983.1 NA 0.0000 -SN 8000 0 0 0 2260
2017/06/08 13:35:01 BASE 11.38 25 13.48 20 -2.2 75 -6.0 1 1 983.1 NA 0.0000 -SN 9000 5410 7780 0 0
2017/06/08 13:36:01 BASE 10.69 26 13.48 20 -2.2 76 -6.0 1 1 983.1 NA 0.0000 -SN 8000 6070 0 0 0
2017/06/08 13:37:01 BASE 10.30 27 13.48 20 -2.3 76 -6.0 1 1 983.1 NA 0.0000 -SN 8000 0 0 0 1280
2017/06/08 13:38:01 BASE 10.24 25 13.48 20 -2.3 76 -5.9 1 1 983.1 NA 0.0000 -SN 8000 0 0 0 620
2017/06/08 13:39:01 BASE 9.53 21 13.48 20 -2.3 76 -5.9 1 2 983.0 NA 0.0000 -SN 8000 0 0 0 0
2017/06/08 13:40:01 BASE 9.18 23 13.48 20 -2.3 76 -5.9 2 2 983.0 NA 0.0000 -SN 9999 0 0 0 0
2017/06/08 13:41:01 BASE 9.47 23 13.48 20 -2.2 76 -6.0 2 2 982.9 NA 0.0000 HZ 9999 0 0 0 0
2017/06/08 13:42:01 BASE 9.68 19 12.81 27 -2.2 75 -6.0 2 2 982.9 NA 0.0000 HZ 9999 6270 0 0 0
2017/06/08 13:43:01 BASE 10.85 14 14.15 10 -2.2 75 -6.0 2 2 982.7 NA 0.0000 HZ 9000 0 0 0 0
2017/06/08 13:44:01 BASE 12.58 13 15.18 15 -2.1 75 -6.0 2 2 982.6 NA 0.0000 HZ 9000 0 0 0 0
2017/06/08 13:45:01 BASE 13.12 13 15.48 22 -2.1 75 -5.9 2 2 982.6 NA 0.0000 HZ 9000 0 0 0 0
2017/06/08 13:46:01 BASE 13.35 13 15.64 16 -2.0 75 -5.8 2 2 982.6 NA 0.0000 HZ 9000 0 0 0 0
2017/06/08 13:47:01 BASE 13.60 14 15.64 16 -1.9 75 -5.8 2 3 982.5 NA 0.0000 HZ 9000 0 0 0 1350
2017/06/08 13:48:01 BASE 13.44 11 15.64 16 -1.9 75 -5.7 2 3 982.5 NA 0.0000 HZ 9999 0 0 0 1670
2017/06/08 13:49:01 BASE 13.33 11 16.31 26 -1.8 75 -5.7 2 3 982.5 NA 0.0000 HZ 9000 7740 0 0 0
2017/06/08 13:50:01 BASE 13.48 11 16.31 26 -1.8 75 -5.7 2 3 982.5 NA 0.0000 HZ 9000 790 0 0 0
2017/06/08 13:51:01 BASE 13.90 9 16.31 26 -1.8 75 -5.6 2 3 982.4 NA 0.0000 HZ 8000 0 0 0 1870
2017/06/08 13:52:01 BASE 14.14 9 16.31 26 -1.8 75 -5.6 2 3 982.4 NA 0.0000 HZ 8000 0 0 0 2200
2017/06/08 13:53:01 BASE 14.37 8 16.46 14 -1.8 75 -5.6 2 4 982.4 NA 0.0000 HZ 8000 0 0 0 2300
2017/06/08 13:54:01 BASE 14.31 6 16.46 14 -1.8 75 -5.6 2 4 982.5 NA 0.0000 HZ 8000 0 0 0 2400
2017/06/08 13:55:01 BASE 14.12 6 16.46 14 -1.8 75 -5.6 2 4 982.5 NA 0.0000 HZ 9000 0 0 0 2360
2017/06/08 13:56:01 BASE 14.15 8 16.46 14 -1.7 75 -5.7 2 4 982.6 NA 0.0000 HZ 8000 0 0 0 1570
2017/06/08 13:57:01 BASE 14.09 10 16.46 14 -1.7 74 -5.7 2 5 982.5 NA 0.0000 HZ 8000 0 0 0 1570
2017/06/08 13:58:01 BASE 13.50 10 16.46 14 -1.7 74 -5.7 3 5 982.6 NA 0.0000 HZ 8000 0 0 0 1710
2017/06/08 13:59:01 BASE 12.81 11 16.46 14 -1.7 74 -5.7 3 6 982.6 NA 0.0000 HZ 8000 0 0 0 2200
2017/06/08 14:00:01 BASE 12.98 13 16.46 14 -1.6 74 -5.7 3 6 982.6 NA 0.0000 HZ 8000 6530 0 0 0
2017/06/08 14:01:01 BASE 12.52 15 16.46 14 -1.6 74 -5.6 3 6 982.7 NA 0.0000 HZ 8000 5380 0 0 0
2017/06/08 14:02:01 BASE 12.19 13 16.46 14 -1.6 74 -5.7 4 7 982.6 NA 0.0000 HZ 8000 5320 0 0 0
2017/06/08 14:03:01 BASE 12.14 11 16.00 10 -1.6 74 -5.7 4 7 982.6 NA 0.0000 HZ 8000 5540 0 0 0
2017/06/08 14:04:01 BASE 12.09 12 16.00 10 -1.6 73 -5.8 4 7 982.6 NA 0.0000 HZ 8000 4950 0 0 0
2017/06/08 14:05:01 BASE 12.40 12 16.00 10 -1.7 73 -5.8 4 8 982.5 NA 0.0000 HZ 8000 5250 0 0 0
2017/06/08 14:06:01 BASE 12.60 11 16.00 10 -1.7 73 -5.9 4 8 982.5 NA 0.0000 HZ 8000 5150 0 0 0
2017/06/08 14:07:01 BASE 12.85 13 14.46 18 -1.7 73 -6.0 5 8 982.5 NA 0.0000 HZ 8000 7090 0 0 0
2017/06/08 14:08:01 BASE 12.40 13 14.46 18 -1.7 72 -6.0 5 9 982.6 NA 0.0000 HZ 8000 5740 7150 0 0
2017/06/08 14:09:01 BASE 12.11 12 14.46 18 -1.8 72 -6.1 5 9 982.5 NA 0.0000 HZ 8000 5970 7480 0 0
2017/06/08 14:10:01 BASE 11.79 13 14.46 18 -1.8 72 -6.1 5 9 982.6 NA 0.0000 HZ 9000 5840 7420 0 0
2017/06/08 14:11:01 BASE 11.84 13 15.28 17 -1.8 73 -6.1 5 10 982.5 NA 0.0000 HZ 9999 6200 7450 0 0
2017/06/08 14:12:01 BASE 12.17 14 15.28 17 -1.8 73 -6.1 6 10 982.6 NA 0.0000 HZ 9999 6460 7510 0 0
2017/06/08 14:13:01 BASE 12.01 18 15.28 17 -1.8 73 -6.0 6 11 982.6 NA 0.0000 HZ 9999 0 0 0 0
2017/06/08 14:14:01 BASE 11.92 16 15.28 17 -1.8 73 -6.1 6 11 982.6 NA 0.0000 HZ 9999 8010 0 0 0
2017/06/08 14:15:01 BASE 11.74 14 15.28 17 -1.8 73 -6.1 6 11 982.6 NA 0.0000 HZ 9999 0 0 0 0
2017/06/08 14:16:01 BASE 11.33 15 15.28 17 -1.8 72 -6.1 6 12 982.6 NA 0.0000 HZ 9999 0 0 0 0
2017/06/08 14:17:01 BASE 10.29 15 15.28 17 -1.8 72 -6.2 7 12 982.7 NA 0.0000 9999 7610 0 0 0
2017/06/08 14:18:01 BASE 9.89 20 15.28 17 -1.8 72 -6.3 7 13 982.6 NA 0.0000 9999 0 0 0 0
2017/06/08 14:19:01 BASE 10.47 23 15.28 17 -1.9 72 -6.3 7 13 982.6 NA 0.0000 9999 0 0 0 0
2017/06/08 14:20:01 BASE 10.62 20 15.28 17 -1.9 71 -6.4 8 14 982.6 NA 0.0000 9999 0 0 0 0
2017/06/08 14:21:01 BASE 10.00 17 13.27 19 -1.9 71 -6.5 8 14 982.5 NA 0.0000 9999 0 0 0 0
2017/06/08 14:22:01 BASE 10.22 16 13.27 19 -1.9 70 -6.6 8 14 982.5 NA 0.0000 9999 0 0 0 0
2017/06/08 14:23:01 BASE 10.93 14 13.27 19 -1.9 70 -6.7 8 15 982.4 NA 0.0000 9999 0 0 0 0
2017/06/08 14:24:01 BASE 11.48 13 13.58 10 -1.9 69 -6.8 8 15 982.4 NA 0.0000 9999 0 0 0 0
2017/06/08 14:25:01 BASE 11.78 11 13.58 10 -1.9 69 -6.8 8 15 982.4 NA 0.0000 9999 0 0 0 0
2017/06/08 14:26:01 BASE 12.04 13 14.15 29 -1.9 69 -6.8 8 15 982.3 NA 0.0000 9999 0 0 0 0
2017/06/08 14:27:01 BASE 12.10 14 14.15 29 -1.9 69 -6.8 8 15 982.3 NA 0.0000 9999 0 0 0 0
2017/06/08 14:28:01 BASE 11.30 15 14.15 29 -1.9 70 -6.7 8 16 982.3 NA 0.0000 9999 0 0 0 0
2017/06/08 14:29:01 BASE 11.46 15 14.15 29 -1.9 70 -6.6 8 16 982.2 NA 0.0000 9999 0 0 0 0
2017/06/08 14:30:01 BASE 11.96 15 14.15 29 -1.8 70 -6.6 8 17 982.3 NA 0.0000 9999 0 0 0 0
2017/06/08 14:31:01 BASE 12.10 14 14.66 13 -1.8 70 -6.6 8 18 982.2 NA 0.0000 9999 0 0 0 0
2017/06/08 14:32:01 BASE 11.73 12 14.66 13 -1.8 70 -6.5 9 18 982.3 NA 0.0000 9999 0 0 0 0
2017/06/08 14:33:01 BASE 11.55 12 14.66 13 -1.8 70 -6.5 9 19 982.3 NA 0.0000 9999 0 0 0 0
2017/06/08 14:34:01 BASE 12.13 13 14.66 13 -1.8 71 -6.4 10 20 982.3 NA 0.0000 9999 0 0 0 0
2017/06/08 14:35:01 BASE 11.95 12 14.66 13 -1.8 71 -6.4 10 20 982.3 NA 0.0000 9999 0 0 0 0
2017/06/08 14:36:01 BASE 11.57 12 14.66 13 -1.8 71 -6.4 10 20 982.3 NA 0.0000 9999 0 0 0 0
2017/06/08 14:37:01 BASE 11.84 15 14.66 13 -1.8 71 -6.4 10 21 982.3 NA 0.0000 9999 0 0 0 0
2017/06/08 14:38:01 BASE 11.98 17 14.66 13 -1.8 71 -6.4 10 21 982.3 NA 0.0000 9999 0 0 0 0
2017/06/08 14:39:01 BASE 11.80 16 14.66 13 -1.8 71 -6.4 10 21 982.3 NA 0.0000 9999 0 0 0 0
2017/06/08 14:40:01 BASE 11.74 15 14.66 13 -1.8 71 -6.4 10 22 982.3 NA 0.0000 9999 0 0 0 0
2017/06/08 14:41:01 BASE 11.63 14 13.94 9 -1.9 71 -6.4 10 22 982.3 NA 0.0000 9999 0 0 0 0
2017/06/08 14:42:01 BASE 11.91 14 13.94 9 -1.9 71 -6.4 10 22 982.2 NA 0.0000 9999 0 0 0 0
2017/06/08 14:43:01 BASE 11.96 14 14.61 19 -1.9 71 -6.5 10 23 982.2 NA 0.0000 9999 0 0 0 0
2017/06/08 14:44:01 BASE 11.88 11 14.61 19 -1.9 71 -6.5 10 23 982.2 NA 0.0000 9999 0 0 0 0
2017/06/08 14:45:01 BASE 11.96 11 14.61 19 -1.9 71 -6.5 10 24 982.2 NA 0.0000 9999 0 0 0 0
2017/06/08 14:46:01 BASE 11.94 10 14.61 19 -1.9 71 -6.5 10 24 982.2 NA 0.0000 9999 0 0 0 0
2017/06/08 14:47:01 BASE 11.89 9 14.61 19 -1.9 71 -6.5 10 24 982.2 NA 0.0000 9999 0 0 0 0
2017/06/08 14:48:01 BASE 11.74 11 14.61 19 -1.9 71 -6.5 10 25 982.2 NA 0.0000 9999 0 0 0 0
2017/06/08 14:49:01 BASE 11.92 12 14.61 19 -2.0 71 -6.5 10 25 982.2 NA 0.0000 9999 0 0 0 0
2017/06/08 14:50:01 BASE 11.76 13 14.61 19 -2.0 71 -6.5 10 25 982.1 NA 0.0000 9999 0 0 0 0
2017/06/08 14:51:01 BASE 12.09 15 16.36 17 -2.0 71 -6.6 10 25 982.1 NA 0.0000 9999 0 0 0 0
2017/06/08 14:52:01 BASE 12.48 16 16.36 17 -2.0 71 -6.6 10 26 982.1 NA 0.0000 9999 0 0 0 0
2017/06/08 14:53:01 BASE 12.45 14 16.36 17 -2.0 71 -6.6 10 26 982.1 NA 0.0000 9999 0 0 0 0
2017/06/08 14:54:01 BASE 12.23 13 16.36 17 -2.0 71 -6.5 10 26 982.2 NA 0.0000 9999 0 0 0 0
2017/06/08 14:55:01 BASE 11.87 12 16.36 17 -2.0 71 -6.6 9 26 982.2 NA 0.0000 9999 0 0 0 0
2017/06/08 14:56:01 BASE 11.68 13 16.36 17 -2.0 71 -6.6 9 26 982.3 NA 0.0000 9999 0 0 0 0
2017/06/08 14:57:01 BASE 11.19 15 16.36 17 -2.0 70 -6.6 9 26 982.3 NA 0.0000 9999 0 0 0 0
2017/06/08 14:58:01 BASE 10.95 16 16.36 17 -2.0 70 -6.7 9 26 982.3 NA 0.0000 9999 0 0 0 0
2017/06/08 14:59:01 BASE 11.09 16 16.36 17 -2.0 70 -6.8 9 25 982.3 NA 0.0000 9999 0 0 0 0
2017/06/08 15:00:01 BASE 11.24 17 16.36 17 -2.1 70 -6.8 9 25 982.3 NA 0.0000 9999 0 0 0 0
2017/06/08 15:01:01 BASE 10.96 17 14.82 10 -2.1 70 -6.9 8 25 982.3 NA 0.0000 9999 0 0 0 0
2017/06/08 15:02:00 BASE 11.09 17 14.20 16 -2.2 70 -6.9 8 25 982.3 NA 0.0000 9999 0 0 0 0
2017/06/08 15:03:00 BASE 11.31 16 14.04 6 -2.2 70 -7.0 8 25 982.3 NA 0.0000 9999 0 0 0 0
2017/06/08 15:04:00 BASE 10.80 14 14.04 6 -2.2 70 -7.0 8 25 982.3 NA 0.0000 9999 0 0 0 0
2017/06/08 15:05:00 BASE 10.40 17 13.27 25 -2.2 69 -7.1 8 25 982.3 NA 0.0000 9999 0 0 0 0
2017/06/08 15:06:00 BASE 10.54 17 13.27 25 -2.2 69 -7.1 8 26 982.3 NA 0.0000 9999 0 0 0 0
2017/06/08 15:07:00 BASE 10.45 16 13.27 25 -2.2 69 -7.1 8 26 982.3 NA 0.0000 9999 0 0 0 0
2017/06/08 15:08:00 BASE 10.99 18 13.27 25 -2.2 69 -7.0 8 26 982.2 NA 0.0000 9999 0 0 0 0
2017/06/08 15:09:01 BASE 11.65 17 13.27 16 -2.2 70 -7.0 8 26 982.2 NA 0.0000 9999 0 0 0 0
2017/06/08 15:10:00 BASE 11.85 18 14.35 22 -2.1 70 -6.9 8 26 982.2 NA 0.0000 9999 0 0 0 0
2017/06/08 15:11:00 BASE 11.94 21 14.35 22 -2.1 70 -6.8 8 27 982.2 NA 0.0000 9999 0 0 0 0
2017/06/08 15:12:00 BASE 11.45 22 14.35 22 -2.0 70 -6.8 8 27 982.2 NA 0.0000 9999 0 0 0 0
2017/06/08 15:13:00 BASE 10.78 20 14.35 22 -2.0 70 -6.7 9 28 982.2 NA 0.0000 9999 0 0 0 0
2017/06/08 15:14:00 BASE 10.89 19 14.35 22 -2.0 70 -6.7 9 28 982.2 NA 0.0000 9999 0 0 0 0
2017/06/08 15:15:00 BASE 11.31 19 14.35 22 -2.0 70 -6.7 9 28 982.2 NA 0.0000 9999 0 0 0 0
2017/06/08 15:16:00 BASE 10.97 20 14.35 22 -1.9 70 -6.7 9 29 982.1 NA 0.0000 9999 0 0 0 0
2017/06/08 15:17:00 BASE 10.81 20 14.35 22 -1.9 70 -6.8 9 29 982.1 NA 0.0000 9999 0 0 0 360
2017/06/08 15:18:00 BASE 10.89 16 14.35 22 -2.0 69 -6.8 9 29 982.1 NA 0.0000 9999 0 0 0 460
2017/06/08 15:19:00 BASE 10.48 16 14.35 22 -2.0 69 -6.9 9 29 982.1 NA 0.0000 9999 0 0 0 0
2017/06/08 15:20:00 BASE 10.16 22 13.43 12 -2.0 69 -6.9 9 29 982.1 NA 0.0000 9999 0 0 0 0
2017/06/08 15:21:00 BASE 10.70 23 13.43 12 -2.1 69 -6.9 9 29 982.1 NA 0.0000 9999 0 0 0 0
2017/06/08 15:22:00 BASE 10.69 21 13.43 12 -2.1 69 -7.0 9 29 982.1 NA 0.0000 9999 0 0 0 0
2017/06/08 15:23:00 BASE 10.84 23 13.43 12 -2.1 69 -7.0 10 30 982.1 NA 0.0000 9999 0 0 0 0
2017/06/08 15:24:00 BASE 10.83 23 13.43 12 -2.1 69 -7.0 10 30 982.1 NA 0.0000 9999 0 0 0 0
2017/06/08 15:25:00 BASE 9.93 23 13.02 22 -2.1 69 -7.0 10 30 982.1 NA 0.0000 9999 0 0 0 0
2017/06/08 15:26:00 BASE 9.34 24 13.02 22 -2.1 69 -7.1 10 31 982.1 NA 0.0000 9999 0 0 0 0
2017/06/08 15:27:00 BASE 9.05 26 13.02 22 -2.2 68 -7.2 10 31 982.1 NA 0.0000 9999 0 0 0 0
2017/06/08 15:28:00 BASE 9.66 26 13.02 22 -2.2 68 -7.3 11 31 982.1 NA 0.0000 9999 0 0 0 0
2017/06/08 15:29:00 BASE 9.70 26 13.02 22 -2.3 68 -7.4 11 32 982.1 NA 0.0000 9999 0 0 0 0
2017/06/08 15:30:00 BASE 9.20 29 13.02 22 -2.3 68 -7.4 12 32 982.1 NA 0.0000 9999 0 0 0 0
2017/06/08 15:31:00 BASE 9.47 30 13.02 22 -2.4 68 -7.4 12 32 982.1 NA 0.0000 9999 0 0 0 920
2017/06/08 15:32:00 BASE 9.65 30 13.02 22 -2.4 68 -7.5 12 33 982.1 NA 0.0000 9999 0 0 0 0
2017/06/08 15:33:00 BASE 10.16 32 12.04 30 -2.5 69 -7.5 13 33 982.0 NA 0.0000 9999 0 0 0 0
2017/06/08 15:34:00 BASE 10.06 31 12.04 30 -2.5 69 -7.5 13 34 982.0 NA 0.0000 9999 0 0 0 0
2017/06/08 15:35:00 BASE 9.67 30 12.04 30 -2.6 69 -7.5 13 34 982.0 NA 0.0000 9999 0 0 0 0
2017/06/08 15:36:00 BASE 9.82 30 12.04 30 -2.7 69 -7.5 13 34 981.9 NA 0.0000 9999 0 0 0 0
2017/06/08 15:37:00 BASE 9.80 28 12.04 30 -2.7 69 -7.5 13 34 981.9 NA 0.0000 9999 0 0 0 0
2017/06/08 15:38:00 BASE 10.65 28 12.45 27 -2.7 70 -7.5 14 34 981.8 NA 0.0000 9999 0 0 0 0
2017/06/08 15:39:00 BASE 10.98 27 12.45 27 -2.7 70 -7.4 14 35 981.8 NA 0.0000 9999 0 0 0 0
2017/06/08 15:40:00 BASE 10.75 27 12.45 26 -2.6 70 -7.4 14 35 981.8 NA 0.0000 9999 0 0 0 0
2017/06/08 15:41:00 BASE 10.72 25 12.45 26 -2.6 70 -7.3 15 36 981.8 NA 0.0000 9999 0 0 0 0
2017/06/08 15:42:00 BASE 11.05 23 13.27 31 -2.5 70 -7.3 15 36 981.8 NA 0.0000 9999 0 0 0 0
2017/06/08 15:43:00 BASE 11.02 23 13.27 31 -2.5 69 -7.3 15 37 981.8 NA 0.0000 9999 0 0 0 0
2017/06/08 15:44:00 BASE 10.65 24 13.27 31 -2.5 69 -7.3 15 37 981.9 NA 0.0000 9999 0 0 0 2100
2017/06/08 15:45:00 BASE 11.18 26 13.27 31 -2.5 69 -7.4 16 37 981.8 NA 0.0000 9999 0 0 0 2690
2017/06/08 15:46:00 BASE 11.00 28 13.27 31 -2.4 69 -7.4 16 38 981.8 NA 0.0000 9999 0 0 0 1740
2017/06/08 15:47:00 BASE 11.11 29 13.27 31 -2.4 69 -7.4 16 38 981.8 NA 0.0000 9999 0 0 0 0
2017/06/08 15:48:00 BASE 11.54 29 13.27 31 -2.4 68 -7.4 16 38 981.8 NA 0.0000 9999 0 0 0 690
2017/06/08 15:49:00 BASE 11.16 28 13.27 31 -2.4 68 -7.5 16 38 981.8 NA 0.0000 9999 0 0 0 850
2017/06/08 15:50:00 BASE 10.76 29 13.27 31 -2.4 68 -7.5 16 38 981.8 NA 0.0000 9999 0 0 0 0
2017/06/08 15:51:00 BASE 10.62 31 13.27 31 -2.5 68 -7.5 16 38 981.8 NA 0.0000 9999 0 0 0 0
2017/06/08 15:52:00 BASE 10.75 32 12.91 32 -2.5 68 -7.5 16 38 981.8 NA 0.0000 9999 0 0 0 2170
2017/06/08 15:53:00 BASE 11.06 32 12.91 32 -2.6 69 -7.5 16 38 981.7 NA 0.0000 9999 0 0 0 0
2017/06/08 15:54:00 BASE 11.15 32 13.02 32 -2.6 69 -7.5 16 38 981.7 NA 0.0000 9999 0 0 0 0
2017/06/08 15:55:00 BASE 10.83 33 13.02 32 -2.6 69 -7.5 16 38 981.7 NA 0.0000 9999 0 0 0 0
2017/06/08 15:56:00 BASE 11.03 34 13.02 32 -2.6 69 -7.5 17 38 981.7 NA 0.0000 9999 0 0 0 0
2017/06/08 15:57:00 BASE 11.55 33 13.58 25 -2.6 69 -7.5 17 38 981.7 NA 0.0000 9999 0 0 0 0
2017/06/08 15:58:00 BASE 11.99 30 13.58 25 -2.6 70 -7.4 17 38 981.6 NA 0.0000 9999 0 0 0 0
2017/06/08 15:59:00 BASE 12.04 31 13.58 25 -2.6 70 -7.4 17 38 981.6 NA 0.0000 9999 0 0 0 0
2017/06/08 16:00:00 BASE 11.97 32 13.58 25 -2.6 70 -7.3 17 38 981.6 NA 0.0000 9999 0 0 0 0
2017/06/08 16:01:00 BASE 12.49 32 15.02 25 -2.6 70 -7.3 17 39 981.6 NA 0.0000 9999 0 0 0 0
2017/06/08 16:02:00 BASE 12.76 31 15.02 25 -2.6 70 -7.3 17 39 981.6 NA 0.0000 9999 0 0 0 0
2017/06/08 16:03:00 BASE 12.35 32 15.02 25 -2.5 70 -7.3 17 39 981.6 NA 0.0000 9999 0 0 0 0
2017/06/08 16:04:00 BASE 12.06 31 15.02 25 -2.5 69 -7.4 17 39 981.6 NA 0.0000 9999 0 0 0 0
2017/06/08 16:05:00 BASE 12.21 31 15.02 25 -2.5 69 -7.3 17 39 981.6 NA 0.0000 9999 0 0 0 0
2017/06/08 16:06:00 BASE 12.08 34 15.02 25 -2.5 69 -7.3 17 39 981.5 NA 0.0000 9999 0 0 0 0
2017/06/08 16:07:00 BASE 11.53 34 15.02 25 -2.5 69 -7.3 17 39 981.6 NA 0.0000 9999 0 0 0 0
2017/06/08 16:08:00 BASE 11.64 35 15.02 25 -2.5 69 -7.4 17 39 981.6 NA 0.0000 9999 0 0 0 0
2017/06/08 16:09:00 BASE 11.83 33 15.02 25 -2.5 70 -7.3 17 39 981.5 NA 0.0000 9999 0 0 0 0
2017/06/08 16:10:00 BASE 11.91 33 15.02 25 -2.6 69 -7.4 17 39 981.5 NA 0.0000 9999 0 0 0 0
2017/06/08 16:11:00 BASE 12.00 33 14.04 28 -2.6 69 -7.4 17 39 981.4 NA 0.0000 9999 0 0 0 0
2017/06/08 16:12:00 BASE 12.38 34 14.56 27 -2.6 70 -7.4 17 39 981.3 NA 0.0000 9999 0 0 0 0
2017/06/08 16:13:00 BASE 12.88 34 14.56 27 -2.6 70 -7.4 17 39 981.3 NA 0.0000 9999 0 0 0 0
2017/06/08 16:14:00 BASE 12.73 34 14.56 27 -2.6 70 -7.4 17 39 981.3 NA 0.0000 9999 0 0 0 0
2017/06/08 16:15:00 BASE 12.51 32 14.56 27 -2.6 70 -7.3 17 39 981.3 NA 0.0000 9999 0 0 0 0
2017/06/08 16:16:00 BASE 12.36 31 14.56 27 -2.6 70 -7.4 17 39 981.3 NA 0.0000 9999 0 0 0 0
2017/06/08 16:17:00 BASE 12.82 33 14.87 31 -2.6 69 -7.4 17 38 981.3 NA 0.0000 9999 0 0 0 0
2017/06/08 16:18:00 BASE 13.33 35 15.07 27 -2.6 69 -7.4 17 39 981.2 NA 0.0000 9999 0 0 0 0
2017/06/08 16:19:00 BASE 13.10 33 15.07 27 -2.6 69 -7.5 17 39 981.2 NA 0.0000 9999 0 0 0 0
2017/06/08 16:20:00 BASE 13.17 33 15.07 27 -2.6 69 -7.5 18 39 981.1 NA 0.0000 9000 0 0 0 0
2017/06/08 16:21:00 BASE 13.56 33 15.07 27 -2.6 69 -7.5 18 39 981.1 NA 0.0000 9000 0 0 0 0
2017/06/08 16:22:00 BASE 13.37 32 15.38 31 -2.6 69 -7.5 18 39 981.0 NA 0.0000 HZ 9000 0 0 0 0
2017/06/08 16:23:00 BASE 13.30 33 16.26 27 -2.6 69 -7.4 18 39 981.0 NA 0.0000 HZ 9000 0 0 0 0
2017/06/08 16:24:00 BASE 13.83 33 16.26 27 -2.6 70 -7.4 18 39 980.9 NA 0.0000 HZ 9000 0 0 0 0
2017/06/08 16:25:00 BASE 14.31 33 16.26 27 -2.6 70 -7.3 18 39 980.9 NA 0.0000 HZ 8000 0 0 0 0
2017/06/08 16:26:00 BASE 14.56 34 16.41 31 -2.6 70 -7.3 18 39 980.9 NA 0.0000 HZ 8000 0 0 0 0
2017/06/08 16:27:00 BASE 14.50 33 16.87 26 -2.6 70 -7.3 18 39 980.9 NA 0.0000 HZ 8000 0 0 0 0
2017/06/08 16:28:00 BASE 13.90 33 16.87 26 -2.6 70 -7.3 18 39 980.8 NA 0.0000 HZ 8000 0 0 0 0
2017/06/08 16:29:00 BASE 14.09 32 16.87 26 -2.6 70 -7.3 18 38 980.8 NA 0.0000 HZ 8000 0 0 0 0
2017/06/08 16:30:00 BASE 15.13 32 16.87 27 -2.6 70 -7.4 18 38 980.8 NA 0.0000 HZ 7000 0 0 0 0
2017/06/08 16:31:00 BASE 16.10 30 17.59 24 -2.7 70 -7.4 18 38 980.7 NA 0.0000 HZ 6000 0 0 0 0
2017/06/08 16:32:00 BASE 16.55 28 18.01 30 -2.7 70 -7.4 18 38 980.7 NA 0.0000 HZ 5000 0 0 0 0
2017/06/08 16:33:00 BASE 16.40 27 18.01 30 -2.6 70 -7.4 18 38 980.7 NA 0.0000 HZ 6000 0 0 0 0
2017/06/08 16:34:00 BASE 15.89 27 18.01 30 -2.6 70 -7.4 18 38 980.7 NA 0.0000 HZ 5000 0 0 0 0
2017/06/08 16:35:00 BASE 15.25 27 18.01 30 -2.6 70 -7.4 18 38 980.7 NA 0.0000 HZ 5000 0 0 0 0
2017/06/08 16:36:00 BASE 14.68 26 18.01 30 -2.6 70 -7.4 17 38 980.8 NA 0.0000 HZ 7000 0 0 0 0
2017/06/08 16:37:00 BASE 14.86 27 18.01 30 -2.6 70 -7.4 17 37 980.8 NA 0.0000 HZ 7000 0 0 0 0
2017/06/08 16:38:00 BASE 15.00 27 18.01 30 -2.7 70 -7.4 17 37 980.8 NA 0.0000 HZ 7000 0 0 0 0
2017/06/08 16:39:00 BASE 14.94 25 18.01 30 -2.7 70 -7.4 16 36 980.8 NA 0.0000 HZ 7000 0 0 0 0
2017/06/08 16:40:00 BASE 14.74 26 18.01 30 -2.7 70 -7.4 16 35 980.9 NA 0.0000 HZ 7000 0 0 0 0
2017/06/08 16:41:00 BASE 14.21 26 18.01 30 -2.7 70 -7.4 16 35 980.9 NA 0.0000 HZ 7000 0 0 0 0
2017/06/08 16:42:00 BASE 14.06 24 17.75 27 -2.7 70 -7.4 15 35 980.9 NA 0.0000 HZ 8000 0 0 0 0
2017/06/08 16:43:00 BASE 13.40 25 17.75 27 -2.7 70 -7.4 15 34 981.0 NA 0.0000 HZ 8000 0 0 0 0
2017/06/08 16:44:00 BASE 13.17 28 17.75 27 -2.8 70 -7.5 15 34 981.0 NA 0.0000 HZ 7000 0 0 0 0
2017/06/08 16:45:00 BASE 13.32 28 17.75 27 -2.8 70 -7.5 15 34 981.0 NA 0.0000 HZ 7000 0 0 0 0
2017/06/08 16:46:00 BASE 13.32 29 17.75 27 -2.8 70 -7.5 14 33 981.0 NA 0.0000 HZ 8000 0 0 0 0
2017/06/08 16:47:00 BASE 12.66 30 17.75 27 -2.8 70 -7.5 14 32 981.0 NA 0.0000 HZ 7000 0 0 0 0
2017/06/08 16:48:00 BASE 12.30 32 17.75 27 -2.8 70 -7.5 14 32 981.0 NA 0.0000 HZ 8000 0 0 0 0
2017/06/08 16:49:00 BASE 13.04 33 16.72 27 -2.8 70 -7.6 14 32 980.9 NA 0.0000 HZ 8000 0 0 0 0
2017/06/08 16:50:00 BASE 13.51 34 16.72 27 -2.8 70 -7.6 14 32 981.0 NA 0.0000 HZ 8000 0 0 0 0
2017/06/08 16:51:00 BASE 13.33 36 15.18 16 -2.8 69 -7.6 14 31 980.9 NA 0.0000 HZ 8000 0 0 0 0
2017/06/08 16:52:00 BASE 12.98 39 14.87 35 -2.8 69 -7.7 13 31 980.9 NA 0.0000 HZ 8000 0 0 0 0
2017/06/08 16:53:00 BASE 12.99 41 14.87 35 -2.8 69 -7.7 13 31 980.9 NA 0.0000 HZ 7000 0 0 0 0
2017/06/08 16:54:00 BASE 12.94 42 14.87 35 -2.7 69 -7.7 13 30 980.8 NA 0.0000 HZ 7000 0 0 0 0
2017/06/08 16:55:00 BASE 13.05 40 14.87 35 -2.7 69 -7.6 13 30 980.8 NA 0.0000 HZ 7000 0 0 0 0
2017/06/08 16:56:00 BASE 13.25 41 14.87 35 -2.7 69 -7.7 13 30 980.8 NA 0.0000 HZ 7000 0 0 0 0
2017/06/08 16:57:00 BASE 13.22 41 14.87 35 -2.7 68 -7.7 13 30 980.7 NA 0.0000 HZ 7000 0 0 0 0
2017/06/08 16:58:00 BASE 13.07 40 14.87 35 -2.7 68 -7.7 13 30 980.7 NA 0.0000 HZ 7000 0 0 0 0
2017/06/08 16:59:00 BASE 13.41 39 14.87 35 -2.7 68 -7.8 13 29 980.6 NA 0.0000 HZ 7000 0 0 0 0
2017/06/08 17:00:00 BASE 13.97 40 14.87 44 -2.6 67 -7.8 13 29 980.7 NA 0.0000 HZ 7000 0 0 0 0
2017/06/08 17:01:00 BASE 13.85 41 14.87 44 -2.5 67 -7.8 13 29 980.7 NA 0.0000 HZ 7000 0 0 0 0
2017/06/08 17:02:00 BASE 13.34 42 14.87 44 -2.5 67 -7.8 13 29 980.7 NA 0.0000 HZ 6000 0 0 0 0
2017/06/08 17:03:00 BASE 12.83 40 14.87 44 -2.4 66 -7.8 13 29 980.7 NA 0.0000 HZ 6000 0 0 0 0
2017/06/08 17:04:00 BASE 12.60 41 14.87 44 -2.3 66 -7.8 13 29 980.7 NA 0.0000 HZ 7000 0 0 0 0
2017/06/08 17:05:00 BASE 12.29 42 14.87 44 -2.4 66 -7.9 13 29 980.7 NA 0.0000 HZ 7000 0 0 0 0
2017/06/08 17:06:00 BASE 12.19 41 14.87 44 -2.4 66 -7.9 13 29 980.7 NA 0.0000 HZ 7000 0 0 0 0
2017/06/08 17:07:00 BASE 11.97 41 14.87 44 -2.4 66 -7.9 13 29 980.7 NA 0.0000 HZ 7000 0 0 0 0
2017/06/08 17:08:00 BASE 11.16 41 14.87 44 -2.4 66 -8.0 13 29 980.7 NA 0.0000 HZ 7000 0 0 0 0
2017/06/08 17:09:00 BASE 11.16 40 14.87 44 -2.5 66 -7.9 13 29 980.7 NA 0.0000 HZ 7000 0 0 0 0
2017/06/08 17:10:00 BASE 11.09 39 14.61 40 -2.4 66 -7.9 13 29 980.7 NA 0.0000 HZ 6000 0 0 0 0
2017/06/08 17:11:00 BASE 10.69 39 14.46 37 -2.4 67 -7.8 13 29 980.7 NA 0.0000 HZ 6000 0 0 0 0
2017/06/08 17:12:00 BASE 10.56 39 14.25 34 -2.4 67 -7.8 13 29 980.6 NA 0.0000 HZ 6000 0 0 0 0
2017/06/08 17:13:00 BASE 10.60 38 13.43 44 -2.4 67 -7.7 13 29 980.6 NA 0.0000 HZ 7000 0 0 0 0
2017/06/08 17:14:00 BASE 10.45 39 13.38 39 -2.4 67 -7.7 13 29 980.6 NA 0.0000 HZ 7000 0 0 0 0
2017/06/08 17:15:00 BASE 10.45 40 13.38 39 -2.5 67 -7.7 13 28 980.6 NA 0.0000 HZ 7000 0 0 0 0
2017/06/08 17:16:00 BASE 10.78 39 12.91 39 -2.5 67 -7.8 13 29 980.5 NA 0.0000 HZ 6000 0 0 0 0
2017/06/08 17:17:00 BASE 10.59 40 12.45 37 -2.5 67 -7.8 13 28 980.5 NA 0.0000 HZ 7000 0 0 0 0
2017/06/08 17:18:00 BASE 10.48 42 12.45 37 -2.5 67 -7.9 13 28 980.5 NA 0.0000 HZ 7000 0 0 0 0
2017/06/08 17:19:00 BASE 10.83 44 12.40 42 -2.5 66 -7.9 13 28 980.5 NA 0.0000 HZ 6000 0 0 0 0
2017/06/08 17:20:00 BASE 11.08 43 12.40 42 -2.5 66 -8.0 13 28 980.4 NA 0.0000 HZ 6000 0 0 0 0
2017/06/08 17:21:00 BASE 11.03 40 12.40 42 -2.6 66 -8.0 13 28 980.5 NA 0.0000 HZ 6000 0 0 0 0
2017/06/08 17:22:00 BASE 10.70 40 12.40 42 -2.6 66 -8.0 13 27 980.5 NA 0.0000 HZ 7000 0 0 0 0
2017/06/08 17:23:00 BASE 10.88 43 12.40 42 -2.6 66 -8.0 13 27 980.5 NA 0.0000 HZ 6000 0 0 0 0
2017/06/08 17:24:00 BASE 10.98 46 12.66 44 -2.6 66 -8.0 13 27 980.4 NA 0.0000 HZ 6000 0 0 0 0
2017/06/08 17:25:00 BASE 10.72 44 12.66 44 -2.5 66 -8.0 13 27 980.4 NA 0.0000 HZ 6000 0 0 0 0
2017/06/08 17:26:00 BASE 10.66 43 12.66 44 -2.5 66 -8.0 13 26 980.4 NA 0.0000 HZ 6000 0 0 0 0
2017/06/08 17:27:00 BASE 10.59 42 12.66 44 -2.5 65 -8.1 12 26 980.4 NA 0.0000 HZ 7000 0 0 0 0
2017/06/08 17:28:00 BASE 10.69 41 12.66 44 -2.5 65 -8.2 12 26 980.3 NA 0.0000 HZ 7000 0 0 0 0
2017/06/08 17:29:00 BASE 10.84 42 12.66 44 -2.5 64 -8.3 12 25 980.3 NA 0.0000 HZ 6000 0 0 0 0
2017/06/08 17:30:00 BASE 11.20 43 12.66 44 -2.6 64 -8.3 12 25 980.3 NA 0.0000 HZ 6000 0 0 0 0
2017/06/08 17:31:00 BASE 11.33 41 12.66 44 -2.6 65 -8.3 12 24 980.3 NA 0.0000 HZ 6000 0 0 0 0
2017/06/08 17:32:00 BASE 11.30 40 12.66 44 -2.7 65 -8.3 12 24 980.3 NA 0.0000 HZ 6000 0 0 0 0
2017/06/08 17:33:00 BASE 11.57 41 12.71 43 -2.7 66 -8.3 11 24 980.3 NA 0.0000 HZ 6000 0 0 0 0
2017/06/08 17:34:00 BASE 11.77 43 12.71 43 -2.7 66 -8.3 11 23 980.2 NA 0.0000 HZ 7000 0 0 0 0
2017/06/08 17:35:00 BASE 11.83 44 12.71 43 -2.7 66 -8.2 11 23 980.2 NA 0.0000 HZ 7000 0 0 0 0
2017/06/08 17:36:00 BASE 11.62 45 12.71 43 -2.7 66 -8.2 11 22 980.2 NA 0.0000 HZ 6000 0 0 0 0
2017/06/08 17:37:00 BASE 11.59 45 13.32 45 -2.6 65 -8.2 11 22 980.1 NA 0.0000 HZ 7000 0 0 0 0
2017/06/08 17:38:00 BASE 11.85 45 13.32 45 -2.5 65 -8.3 10 22 980.1 NA 0.0000 HZ 8000 0 0 0 0
2017/06/08 17:39:00 BASE 11.59 46 13.32 45 -2.5 64 -8.3 10 21 980.1 NA 0.0000 HZ 9999 0 0 0 0
2017/06/08 17:40:00 BASE 11.49 46 13.32 45 -2.5 64 -8.4 10 21 980.0 NA 0.0000 HZ 9999 0 0 0 0
2017/06/08 17:41:00 BASE 11.64 46 13.32 45 -2.5 63 -8.5 9 20 980.0 NA 0.0000 HZ 9999 0 0 0 0
2017/06/08 17:42:00 BASE 11.58 46 13.32 45 -2.4 63 -8.5 9 20 980.0 NA 0.0000 HZ 9999 0 0 0 0
2017/06/08 17:43:00 BASE 11.57 47 13.32 45 -2.5 63 -8.5 9 19 980.0 NA 0.0000 HZ 9999 0 0 0 0
2017/06/08 17:44:00 BASE 12.09 47 13.48 51 -2.5 63 -8.5 9 19 980.0 NA 0.0000 HZ 9999 0 0 0 0
2017/06/08 17:45:00 BASE 12.56 45 13.94 42 -2.4 64 -8.4 8 18 979.9 NA 0.0000 HZ 9999 0 0 0 0
2017/06/08 17:46:00 BASE 12.28 43 13.94 42 -2.4 64 -8.4 8 18 979.9 NA 0.0000 9999 0 0 0 0
2017/06/08 17:47:00 BASE 12.31 43 13.94 42 -2.4 64 -8.3 8 18 979.9 NA 0.0000 9999 0 0 0 0
2017/06/08 17:48:00 BASE 12.78 43 14.15 44 -2.4 64 -8.2 8 17 979.9 NA 0.0000 9999 0 0 0 0
2017/06/08 17:49:00 BASE 12.78 44 14.15 44 -2.4 65 -8.1 7 17 979.9 NA 0.0000 9999 0 0 0 0
2017/06/08 17:50:00 BASE 13.12 46 15.38 46 -2.4 65 -8.1 7 16 979.8 NA 0.0000 9999 0 0 0 0
2017/06/08 17:51:00 BASE 13.76 47 15.38 46 -2.4 65 -8.0 7 16 979.8 NA 0.0000 9999 0 0 0 0
2017/06/08 17:52:00 BASE 13.76 46 15.38 46 -2.3 65 -8.0 7 15 979.8 NA 0.0000 9999 0 0 0 0
2017/06/08 17:53:00 BASE 13.61 46 15.38 46 -2.3 65 -8.0 7 15 979.8 NA 0.0000 9999 0 0 0 0
2017/06/08 17:54:00 BASE 13.37 45 15.38 46 -2.2 64 -8.1 6 15 979.8 NA 0.0000 9999 0 0 0 0
2017/06/08 17:55:00 BASE 12.89 42 15.38 46 -2.2 64 -8.1 6 14 979.8 NA 0.0000 9999 0 0 0 0
2017/06/08 17:56:00 BASE 12.62 42 15.38 46 -2.2 64 -8.1 6 14 979.8 NA 0.0000 9999 0 0 0 0
2017/06/08 17:57:00 BASE 12.73 42 15.38 46 -2.2 64 -8.1 6 13 979.8 NA 0.0000 9999 0 0 0 0
2017/06/08 17:58:00 BASE 12.67 41 15.38 46 -2.3 65 -8.1 5 13 979.8 NA 0.0000 9999 0 0 0 0
2017/06/08 17:59:00 BASE 12.46 42 15.38 46 -2.3 65 -8.0 5 13 979.8 NA 0.0000 9999 0 0 0 0
2017/06/08 18:00:00 BASE 12.40 45 15.18 43 -2.4 66 -7.9 5 12 979.8 NA 0.0000 9999 0 0 0 0
2017/06/08 18:01:00 BASE 12.39 47 14.66 45 -2.4 66 -7.9 5 12 979.8 NA 0.0000 9999 0 0 0 0
2017/06/08 18:02:00 BASE 12.21 48 14.25 43 -2.4 66 -7.9 5 12 979.8 NA 0.0000 9999 0 0 0 0
2017/06/08 18:03:00 BASE 12.02 48 14.04 43 -2.3 66 -7.9 4 11 979.8 NA 0.0000 9999 0 0 0 0
2017/06/08 18:04:00 BASE 12.49 49 14.04 43 -2.3 65 -7.9 4 11 979.7 NA 0.0000 9999 0 0 0 0
2017/06/08 18:05:00 BASE 12.93 49 14.61 48 -2.2 65 -7.9 4 11 979.7 NA 0.0000 9999 0 0 0 0
2017/06/08 18:06:00 BASE 13.09 48 14.61 45 -2.1 64 -8.0 4 11 979.7 NA 0.0000 9999 0 0 0 0
2017/06/08 18:07:00 BASE 13.02 44 14.61 45 -2.1 64 -8.0 4 10 979.7 NA 0.0000 9999 0 0 0 0
2017/06/08 18:08:00 BASE 12.72 43 14.61 45 -2.0 63 -8.1 4 10 979.7 NA 0.0000 9999 0 0 0 0
2017/06/08 18:09:00 BASE 12.20 44 14.61 45 -2.0 63 -8.1 3 10 979.7 NA 0.0000 9999 0 0 0 0
2017/06/08 18:10:00 BASE 12.06 42 14.61 45 -2.0 63 -8.1 3 9 979.6 NA 0.0000 9999 0 0 0 0
2017/06/08 18:11:00 BASE 12.24 40 14.61 45 -2.0 64 -8.0 3 9 979.7 NA 0.0000 9999 0 0 0 0
2017/06/08 18:12:00 BASE 12.06 42 14.61 45 -2.1 64 -7.9 3 9 979.6 NA 0.0000 9999 0 0 0 0
2017/06/08 18:13:00 BASE 12.53 44 14.61 45 -2.1 65 -7.8 3 9 979.6 NA 0.0000 9999 0 0 0 0
2017/06/08 18:14:00 BASE 12.81 44 14.61 45 -2.1 65 -7.8 3 8 979.6 NA 0.0000 9999 0 0 0 0
2017/06/08 18:15:00 BASE 12.74 45 14.61 45 -2.1 65 -7.8 3 8 979.7 NA 0.0000 9999 0 0 0 0
2017/06/08 18:16:00 BASE 13.28 47 15.07 54 -2.2 65 -7.9 3 8 979.6 NA 0.0000 9999 0 0 0 0
2017/06/08 18:17:00 BASE 13.68 50 15.07 54 -2.1 65 -7.8 3 8 979.6 NA 0.0000 9000 0 0 0 0
2017/06/08 18:18:00 BASE 13.63 53 15.07 55 -2.1 65 -7.9 2 7 979.7 NA 0.0000 9000 0 0 0 0
2017/06/08 18:19:00 BASE 11.99 54 15.07 55 -2.0 64 -8.0 2 7 979.8 NA 0.0000 9000 0 0 0 0
2017/06/08 18:20:00 BASE 10.38 54 15.07 55 -2.0 63 -8.1 2 7 979.7 NA 0.0000 8000 0 0 0 0
2017/06/08 18:21:00 BASE 9.88 60 15.07 55 -1.9 62 -8.2 2 7 979.8 NA 0.0000 9000 0 0 0 0
2017/06/08 18:22:00 BASE 8.29 63 15.07 55 -2.0 62 -8.3 2 6 979.9 NA 0.0000 9000 18280 0 0 0
2017/06/08 18:23:00 BASE 7.05 58 15.07 55 -2.1 62 -8.5 2 6 979.8 NA 0.0000 HZ 9000 18110 0 0 0
2017/06/08 18:24:00 BASE 7.11 53 15.07 55 -2.2 62 -8.5 2 6 979.8 NA 0.0000 HZ 8000 0 0 0 0
2017/06/08 18:25:00 BASE 6.78 60 15.07 55 -2.3 62 -8.6 2 6 979.8 NA 0.0000 HZ 8000 0 0 0 0
2017/06/08 18:26:00 BASE 5.53 71 15.07 55 -2.4 62 -8.6 2 5 979.8 NA 0.0000 HZ 8000 0 0 0 0
2017/06/08 18:27:00 BASE 4.66 78 15.07 55 -2.6 63 -8.7 2 5 979.8 NA 0.0000 HZ 8000 0 0 0 0
2017/06/08 18:28:00 BASE 4.61 79 12.81 60 -2.8 64 -8.7 2 5 979.8 NA 0.0000 HZ 9000 0 0 0 0
2017/06/08 18:29:00 BASE 4.56 77 12.40 48 -3.0 65 -8.7 2 5 979.8 NA 0.0000 HZ 9000 0 0 0 0
2017/06/08 18:30:00 BASE 4.25 75 10.19 59 -3.1 66 -8.6 2 4 979.8 NA 0.0000 HZ 9999 0 0 0 0
2017/06/08 18:31:00 BASE 4.11 73 8.75 48 -3.2 66 -8.6 1 4 979.8 NA 0.0000 HZ 9999 0 0 0 0
2017/06/08 18:32:00 BASE 4.81 77 8.75 48 -3.3 66 -8.6 1 4 979.8 NA 0.0000 HZ 9999 0 0 0 0
2017/06/08 18:33:00 BASE 5.48 80 7.97 45 -3.2 66 -8.6 1 4 979.8 NA 0.0000 HZ 9999 0 0 0 0
2017/06/08 18:34:00 BASE 5.38 86 7.25 62 -3.2 66 -8.7 1 4 979.8 NA 0.0000 HZ 9999 0 0 0 0
2017/06/08 18:35:00 BASE 5.14 94 6.53 79 -3.1 65 -8.8 1 4 979.8 NA 0.0000 9999 0 0 0 0
2017/06/08 18:36:00 BASE 4.39 96 6.53 79 -3.2 65 -8.8 1 3 979.7 NA 0.0000 9999 20210 0 0 0
2017/06/08 18:37:00 BASE 3.64 97 6.53 79 -3.2 65 -8.8 1 3 979.7 NA 0.0000 9999 20150 0 0 0
2017/06/08 18:38:00 BASE 3.49 97 6.53 79 -3.2 65 -8.8 1 3 979.7 NA 0.0000 9999 20110 0 0 0
2017/06/08 18:39:00 BASE 3.93 92 6.53 79 -3.2 65 -8.8 1 3 979.8 NA 0.0000 9999 20010 0 0 0
2017/06/08 18:40:00 BASE 4.66 92 6.53 79 -3.1 65 -8.7 1 3 979.8 NA 0.0000 9999 19980 0 0 0
2017/06/08 18:41:00 BASE 4.51 102 6.53 79 -3.1 65 -8.7 1 3 979.7 NA 0.0000 9999 20010 0 0 0
2017/06/08 18:42:00 BASE 3.61 112 6.22 78 -3.1 65 -8.8 1 2 979.6 NA 0.0000 9999 20080 0 0 0
2017/06/08 18:43:00 BASE 3.20 117 5.66 90 -3.1 65 -8.8 1 2 979.6 NA 0.0000 9999 19690 0 0 0
2017/06/08 18:44:00 BASE 3.01 111 5.61 86 -3.1 65 -8.8 1 2 979.6 NA 0.0000 9999 19750 0 0 0
2017/06/08 18:45:00 BASE 2.84 95 5.61 86 -3.2 65 -8.8 1 2 979.6 NA 0.0000 9999 0 0 0 0
2017/06/08 18:46:00 BASE 4.07 87 5.81 90 -3.3 66 -8.7 1 2 979.6 NA 0.0000 9999 3740 19780 0 0
2017/06/08 18:47:00 BASE 5.31 86 6.53 79 -3.3 67 -8.6 1 2 979.5 NA 0.0000 9999 3870 19780 0 0
2017/06/08 18:48:00 BASE 5.09 82 6.53 79 -3.2 67 -8.6 1 2 979.6 NA 0.0000 9999 0 0 0 0
2017/06/08 18:49:00 BASE 4.97 75 6.53 79 -3.2 67 -8.5 1 1 979.6 NA 0.0000 9999 0 0 0 0
2017/06/08 18:50:00 BASE 5.15 75 6.53 79 -3.1 66 -8.5 1 1 979.5 NA 0.0000 9999 0 0 0 0
2017/06/08 18:51:00 BASE 4.76 81 6.53 79 -3.0 66 -8.6 0 1 979.5 NA 0.0000 9999 0 0 0 0
2017/06/08 18:52:00 BASE 4.24 81 6.53 79 -3.1 65 -8.7 1 1 979.5 NA 0.0000 9999 4200 0 0 0
2017/06/08 18:53:00 BASE 4.17 79 6.53 79 -3.1 66 -8.6 1 1 979.5 NA 0.0000 9999 0 0 0 0
2017/06/08 18:54:00 BASE 4.24 72 6.53 79 -3.2 66 -8.7 0 1 979.5 NA 0.0000 9999 19590 0 0 0
2017/06/08 18:55:00 BASE 4.68 62 6.53 79 -3.3 67 -8.6 0 1 979.5 NA 0.0000 9999 19550 0 0 0
2017/06/08 18:56:00 BASE 5.21 59 6.53 79 -3.2 67 -8.5 0 1 979.4 NA 0.0000 9999 19620 0 0 0
2017/06/08 18:57:00 BASE 4.97 54 5.92 75 -3.1 66 -8.5 0 1 979.3 NA 0.0000 9999 0 0 0 0
2017/06/08 18:58:00 BASE 4.26 53 5.92 75 -2.9 66 -8.5 0 1 979.2 NA 0.0000 9999 0 0 0 0
2017/06/08 18:59:00 BASE 3.90 62 5.92 75 -2.7 65 -8.4 0 1 979.2 NA 0.0000 9999 0 0 0 0
2017/06/08 19:00:00 BASE 4.04 69 5.76 60 -2.5 63 -8.5 0 1 979.2 NA 0.0000 9999 0 0 0 0
2017/06/08 19:01:00 BASE 4.13 77 5.76 60 -2.4 62 -8.6 0 1 979.2 NA 0.0000 9999 0 0 0 0
2017/06/08 19:02:00 BASE 3.68 72 5.76 60 -2.4 62 -8.8 0 0 979.1 NA 0.0000 9999 0 0 0 0
2017/06/08 19:03:00 BASE 3.36 48 5.76 60 -2.4 61 -8.8 0 0 979.1 NA 0.0000 9999 0 0 0 0
2017/06/08 19:04:00 BASE 3.48 31 5.76 60 -2.4 61 -8.8 0 0 979.0 NA 0.0000 9999 0 0 0 0
2017/06/08 19:05:00 BASE 3.61 36 5.76 60 -2.4 61 -8.8 0 0 979.0 NA 0.0000 9999 0 0 0 0
2017/06/08 19:06:00 BASE 3.88 44 4.84 52 -2.3 62 -8.7 0 0 979.0 NA 0.0000 9999 0 0 0 0
2017/06/08 19:07:00 BASE 3.64 55 4.78 45 -2.3 62 -8.6 0 0 979.0 NA 0.0000 9999 0 0 0 0
2017/06/08 19:08:00 BASE 3.46 72 5.81 80 -2.2 62 -8.5 0 0 979.0 NA 0.0000 9999 0 0 0 0
2017/06/08 19:09:00 BASE 4.08 75 5.81 80 -2.3 62 -8.5 0 0 979.0 NA 0.0000 9999 0 0 0 0
2017/06/08 19:10:00 BASE 3.88 90 5.81 80 -2.3 62 -8.5 0 0 978.9 NA 0.0000 9999 0 0 0 0
2017/06/08 19:11:00 BASE 3.42 114 5.81 80 -2.4 62 -8.7 0 0 978.7 NA 0.0000 9999 0 0 0 0
2017/06/08 19:12:00 BASE 3.70 122 5.81 80 -2.5 62 -8.7 0 0 978.7 NA 0.0000 9999 0 0 0 0
2017/06/08 19:13:00 BASE 4.31 125 5.81 80 -2.5 62 -8.7 0 0 978.7 NA 0.0000 9999 0 0 0 0
2017/06/08 19:14:00 BASE 5.27 119 6.74 104 -2.5 62 -8.8 0 0 978.8 NA 0.0000 9999 5740 0 0 0
2017/06/08 19:15:00 BASE 6.74 108 8.75 107 -2.5 62 -8.8 0 0 978.9 NA 0.0000 9999 5580 0 0 0
2017/06/08 19:16:00 BASE 7.11 109 8.75 107 -2.5 62 -8.8 0 0 978.9 NA 0.0000 9999 5450 0 0 0
2017/06/08 19:17:00 BASE 6.18 112 8.75 107 -2.5 62 -8.8 0 0 978.8 NA 0.0000 9999 0 0 0 0
2017/06/08 19:18:00 BASE 5.72 108 8.75 107 -2.5 62 -8.8 0 0 978.7 NA 0.0000 9999 5050 0 0 0
2017/06/08 19:19:00 BASE 5.46 107 8.75 107 -2.6 63 -8.7 0 0 978.7 NA 0.0000 9999 5220 0 0 0
2017/06/08 19:20:00 BASE 5.14 104 8.75 107 -2.7 64 -8.6 0 0 978.8 NA 0.0000 9999 4460 0 0 0
2017/06/08 19:21:00 BASE 5.80 95 8.75 107 -2.8 65 -8.5 0 0 978.8 NA 0.0000 9999 4530 6170 0 0
2017/06/08 19:22:00 BASE 6.49 85 8.75 107 -2.9 65 -8.4 0 0 978.8 NA 0.0000 9999 5120 0 0 0
2017/06/08 19:23:00 BASE 5.62 81 8.75 107 -2.9 66 -8.5 0 0 978.8 NA 0.0000 9999 0 0 0 0
2017/06/08 19:24:00 BASE 4.90 77 8.75 107 -3.0 66 -8.5 0 0 978.7 NA 0.0000 9999 0 0 0 0
2017/06/08 19:25:00 BASE 4.84 71 7.56 88 -2.9 66 -8.4 0 0 978.7 NA 0.0000 9999 4530 0 0 0
2017/06/08 19:26:00 BASE 4.67 69 7.56 88 -2.8 65 -8.5 0 0 978.6 NA 0.0000 9999 4760 0 0 0
2017/06/08 19:27:00 BASE 5.08 70 7.56 88 -2.7 65 -8.5 0 0 978.6 NA 0.0000 9999 5150 0 0 0
2017/06/08 19:28:00 BASE 6.24 70 7.72 69 -2.6 64 -8.4 0 0 978.6 NA 0.0000 9999 5640 0 0 0
2017/06/08 19:29:00 BASE 7.18 71 8.95 69 -2.6 64 -8.4 0 0 978.6 NA 0.0000 9999 5610 0 0 0
2017/06/08 19:30:00 BASE 7.18 70 8.95 69 -2.6 64 -8.5 0 0 978.6 NA 0.0000 9999 5580 0 0 0
2017/06/08 19:31:00 BASE 6.85 71 8.95 69 -2.6 64 -8.5 0 0 978.6 NA 0.0000 9999 5610 0 0 0
2017/06/08 19:32:00 BASE 6.50 75 8.95 69 -2.7 64 -8.5 0 0 978.5 NA 0.0000 9999 5510 0 0 0
2017/06/08 19:33:00 BASE 6.69 79 8.95 69 -2.7 65 -8.4 0 0 978.5 NA 0.0000 9999 5770 0 0 0
2017/06/08 19:34:00 BASE 7.68 79 9.16 85 -2.7 65 -8.4 0 0 978.5 NA 0.0000 9999 4920 0 0 0
2017/06/08 19:35:00 BASE 7.63 76 9.16 85 -2.7 65 -8.4 0 0 978.6 NA 0.0000 9999 5150 0 0 0
2017/06/08 19:36:00 BASE 6.62 75 9.16 85 -2.7 65 -8.4 0 0 978.6 NA 0.0000 9999 4860 0 0 0
2017/06/08 19:37:00 BASE 6.00 75 9.16 85 -2.8 66 -8.4 0 0 978.6 NA 0.0000 9999 5020 0 0 0
2017/06/08 19:38:00 BASE 6.01 81 9.16 85 -2.9 66 -8.3 0 0 978.6 NA 0.0000 9999 0 0 0 0
2017/06/08 19:39:00 BASE 6.66 86 9.16 85 -3.0 67 -8.3 0 0 978.5 NA 0.0000 9999 0 0 0 0
2017/06/08 19:40:00 BASE 6.85 89 9.16 85 -3.1 67 -8.2 0 0 978.5 NA 0.0000 9999 0 0 0 0
2017/06/08 19:41:00 BASE 6.43 92 9.16 85 -3.1 68 -8.2 0 0 978.5 NA 0.0000 9999 0 0 0 0
2017/06/08 19:42:00 BASE 6.35 92 9.16 85 -3.1 68 -8.1 0 0 978.5 NA 0.0000 9999 0 0 0 0
2017/06/08 19:43:00 BASE 6.68 86 9.16 85 -3.0 68 -8.1 0 0 978.5 NA 0.0000 9999 0 0 0 0
2017/06/08 19:44:00 BASE 6.68 80 7.61 79 -3.0 68 -8.1 0 0 978.5 NA 0.0000 9999 0 0 0 0
2017/06/08 19:45:00 BASE 5.67 79 7.56 88 -3.0 68 -8.1 0 0 978.5 NA 0.0000 9999 0 0 0 0
2017/06/08 19:46:00 BASE 4.28 81 7.56 88 -3.1 68 -8.1 0 0 978.5 NA 0.0000 9999 0 0 0 0
2017/06/08 19:47:00 BASE 3.73 86 7.56 88 -3.1 68 -8.2 0 0 978.5 NA 0.0000 9999 0 0 0 0
2017/06/08 19:48:00 BASE 4.08 86 7.56 88 -3.2 68 -8.2 0 0 978.5 NA 0.0000 9999 0 0 0 0
2017/06/08 19:49:00 BASE 4.04 81 7.41 80 -3.2 68 -8.2 0 0 978.5 NA 0.0000 9999 0 0 0 0
2017/06/08 19:50:00 BASE 3.37 84 7.41 80 -3.2 68 -8.3 0 0 978.5 NA 0.0000 9999 0 0 0 0
2017/06/08 19:51:00 BASE 3.33 85 7.41 80 -3.2 68 -8.3 0 0 978.4 NA 0.0000 9999 0 0 0 0
2017/06/08 19:52:00 BASE 4.05 79 7.41 80 -3.2 67 -8.4 0 0 978.5 NA 0.0000 9999 0 0 0 0
2017/06/08 19:53:00 BASE 4.40 78 6.74 78 -3.1 67 -8.4 0 0 978.5 NA 0.0000 9999 0 0 0 0
2017/06/08 19:54:00 BASE 4.53 81 6.12 75 -3.1 66 -8.5 0 0 978.5 NA 0.0000 9999 0 0 0 0
2017/06/08 19:55:00 BASE 4.95 83 6.38 91 -3.1 66 -8.5 0 0 978.5 NA 0.0000 9999 0 0 0 0
2017/06/08 19:56:00 BASE 5.66 87 6.58 87 -3.0 66 -8.6 0 0 978.5 NA 0.0000 9999 0 0 0 0
2017/06/08 19:57:00 BASE 5.43 92 6.58 87 -3.0 66 -8.5 0 0 978.5 NA 0.0000 9999 0 0 0 0
2017/06/08 19:58:00 BASE 5.05 95 6.58 87 -2.9 65 -8.5 0 0 978.5 NA 0.0000 9999 0 0 0 0
2017/06/08 19:59:00 BASE 5.71 95 7.05 100 -2.9 65 -8.5 0 0 978.5 NA 0.0000 9999 0 0 0 0
2017/06/08 20:00:00 BASE 5.93 89 7.05 100 -2.8 65 -8.4 0 0 978.5 NA 0.0000 9999 0 0 0 0
2017/06/08 20:01:00 BASE 5.48 81 7.05 100 -2.8 65 -8.5 0 0 978.6 NA 0.0000 9999 0 0 0 0
2017/06/08 20:02:00 BASE 5.30 83 7.05 100 -2.8 65 -8.5 0 0 978.6 NA 0.0000 9999 0 0 0 0
2017/06/08 20:03:00 BASE 6.05 86 7.51 84 -2.8 65 -8.6 0 0 978.5 NA 0.0000 9999 0 0 0 0
2017/06/08 20:04:00 BASE 6.26 84 7.51 84 -2.9 65 -8.6 0 0 978.6 NA 0.0000 9999 0 0 0 0
2017/06/08 20:05:00 BASE 5.72 77 7.51 84 -3.0 65 -8.6 0 0 978.6 NA 0.0000 9999 0 0 0 0
2017/06/08 20:06:00 BASE 5.53 76 7.51 84 -3.1 66 -8.5 0 0 978.5 NA 0.0000 9999 0 0 0 0
2017/06/08 20:07:00 BASE 5.95 81 7.51 84 -3.2 67 -8.4 0 0 978.5 NA 0.0000 9999 0 0 0 0
2017/06/08 20:08:00 BASE 6.36 83 7.51 84 -3.2 67 -8.4 0 0 978.5 NA 0.0000 9999 0 0 0 0
2017/06/08 20:09:00 BASE 6.16 84 7.51 84 -3.3 68 -8.3 0 0 978.5 NA 0.0000 9999 6790 0 0 0
2017/06/08 20:10:00 BASE 6.13 84 7.51 84 -3.3 69 -8.3 0 0 978.5 NA 0.0000 9999 0 0 0 0
2017/06/08 20:11:00 BASE 5.59 87 7.51 84 -3.3 69 -8.2 0 0 978.5 NA 0.0000 9999 0 0 0 0
2017/06/08 20:12:00 BASE 4.79 85 7.51 84 -3.3 69 -8.2 0 0 978.5 NA 0.0000 9999 0 0 0 0
2017/06/08 20:13:00 BASE 4.72 77 7.05 83 -3.3 69 -8.1 0 0 978.5 NA 0.0000 9999 0 0 0 0
2017/06/08 20:14:00 BASE 4.48 76 7.05 83 -3.2 69 -8.0 0 0 978.5 NA 0.0000 9999 0 0 0 0
2017/06/08 20:15:00 BASE 4.86 79 7.05 83 -3.2 69 -8.1 0 0 978.5 NA 0.0000 9999 0 0 0 0
2017/06/08 20:16:00 BASE 6.04 77 7.05 76 -3.2 69 -8.1 0 0 978.5 NA 0.0000 9999 0 0 0 0
2017/06/08 20:17:00 BASE 6.51 81 7.05 76 -3.3 69 -8.1 0 0 978.3 NA 0.0000 9999 0 0 0 0
2017/06/08 20:18:00 BASE 7.10 84 8.28 82 -3.3 69 -8.2 0 0 978.3 NA 0.0000 9999 0 0 0 0
2017/06/08 20:19:00 BASE 7.31 84 8.28 82 -3.3 69 -8.2 0 0 978.4 NA 0.0000 9999 0 0 0 0
2017/06/08 20:20:00 BASE 6.85 81 8.28 82 -3.2 69 -8.1 0 0 978.4 NA 0.0000 9999 6230 0 0 0
2017/06/08 20:21:00 BASE 6.42 77 8.28 82 -3.0 68 -8.1 0 0 978.5 NA 0.0000 9999 6070 6660 0 0
2017/06/08 20:22:00 BASE 5.92 75 8.28 82 -3.0 67 -8.2 0 0 978.4 NA 0.0000 9999 6370 0 0 0
2017/06/08 20:23:00 BASE 5.31 71 8.28 82 -2.9 67 -8.2 0 0 978.4 NA 0.0000 9999 0 0 0 0
2017/06/08 20:24:00 BASE 5.47 67 8.28 82 -2.9 66 -8.3 0 0 978.3 NA 0.0000 9999 0 0 0 0
2017/06/08 20:25:00 BASE 5.24 65 8.28 82 -2.8 66 -8.4 0 0 978.3 NA 0.0000 9999 0 0 0 0
2017/06/08 20:26:00 BASE 3.73 67 8.28 82 -2.7 65 -8.5 0 0 978.1 NA 0.0000 9999 0 0 0 0
2017/06/08 20:27:00 BASE 3.51 73 8.28 82 -2.6 64 -8.5 0 0 978.3 NA 0.0000 9999 0 0 0 0
2017/06/08 20:28:00 BASE 4.28 74 7.82 91 -2.5 63 -8.6 0 0 978.4 NA 0.0000 9999 0 0 0 0
2017/06/08 20:29:00 BASE 4.05 69 7.31 73 -2.4 62 -8.7 0 0 978.4 NA 0.0000 9999 0 0 0 0
2017/06/08 20:30:00 BASE 3.35 69 6.69 66 -2.5 62 -8.8 0 0 978.4 NA 0.0000 9999 0 0 0 0
2017/06/08 20:31:00 BASE 2.86 71 6.69 66 -2.7 63 -8.8 0 0 978.3 NA 0.0000 9999 0 0 0 0
2017/06/08 20:32:00 BASE 2.44 82 6.69 66 -2.9 64 -8.8 0 0 978.3 NA 0.0000 9999 0 0 0 0
2017/06/08 20:33:00 BASE 2.79 91 6.69 66 -3.0 65 -8.7 0 0 978.3 NA 0.0000 9999 0 0 0 0
2017/06/08 20:34:00 BASE 3.87 82 6.48 59 -3.1 66 -8.6 0 0 978.3 NA 0.0000 9999 0 0 0 0
2017/06/08 20:35:00 BASE 4.70 74 5.61 73 -3.2 66 -8.6 0 0 978.3 NA 0.0000 9999 0 0 0 0
2017/06/08 20:36:00 BASE 4.75 78 5.61 73 -3.2 67 -8.5 0 0 978.2 NA 0.0000 9999 0 0 0 0
2017/06/08 20:37:00 BASE 4.68 82 5.61 73 -3.2 67 -8.5 0 0 978.2 NA 0.0000 9999 0 0 0 0
2017/06/08 20:38:00 BASE 4.81 83 5.66 81 -3.2 67 -8.5 0 0 978.2 NA 0.0000 9999 0 0 0 0
2017/06/08 20:39:00 BASE 4.92 88 5.81 71 -3.2 67 -8.5 0 0 978.3 NA 0.0000 9999 0 0 0 0
2017/06/08 20:40:00 BASE 5.28 94 6.28 88 -3.3 67 -8.5 0 0 978.2 NA 0.0000 9999 0 0 0 0
2017/06/08 20:41:00 BASE 5.96 94 7.05 90 -3.4 68 -8.5 0 0 978.2 NA 0.0000 9999 0 0 0 0
2017/06/08 20:42:00 BASE 6.46 84 7.56 75 -3.5 68 -8.5 0 0 978.3 NA 0.0000 9999 0 0 0 0
2017/06/08 20:43:00 BASE 6.46 74 7.72 56 -3.5 69 -8.4 0 0 978.3 NA 0.0000 9999 0 0 0 0
2017/06/08 20:44:00 BASE 6.76 73 8.49 65 -3.5 69 -8.3 0 0 978.3 NA 0.0000 9999 0 0 0 0
2017/06/08 20:45:00 BASE 7.34 75 9.67 80 -3.5 70 -8.2 0 0 978.2 NA 0.0000 9999 0 0 0 0
2017/06/08 20:46:00 BASE 7.71 74 9.67 80 -3.4 70 -8.1 0 0 978.2 NA 0.0000 9999 0 0 0 0
2017/06/08 20:47:00 BASE 7.49 73 9.67 80 -3.3 70 -8.0 0 0 978.2 NA 0.0000 9999 0 0 0 0
2017/06/08 20:48:00 BASE 6.81 69 9.67 80 -3.3 70 -7.9 0 0 978.2 NA 0.0000 9999 0 0 0 0
2017/06/08 20:49:00 BASE 6.16 61 9.67 80 -3.2 70 -7.9 0 0 978.3 NA 0.0000 9999 0 0 0 0
2017/06/08 20:50:00 BASE 6.10 61 9.67 80 -3.2 70 -7.9 0 0 978.3 NA 0.0000 9999 0 0 0 0
2017/06/08 20:51:00 BASE 6.09 61 9.67 80 -3.2 70 -7.9 0 0 978.4 NA 0.0000 9999 0 0 0 0
2017/06/08 20:52:00 BASE 6.06 59 9.67 80 -3.2 70 -7.9 0 0 978.3 NA 0.0000 9999 0 0 0 0
2017/06/08 20:53:00 BASE 5.86 62 9.67 80 -3.2 70 -7.9 0 0 978.3 NA 0.0000 9999 0 0 0 0
2017/06/08 20:54:00 BASE 5.77 64 9.67 80 -3.2 70 -7.9 0 0 978.2 NA 0.0000 9999 0 0 0 0
2017/06/08 20:55:00 BASE 6.29 64 8.64 70 -3.2 70 -7.9 0 0 978.1 NA 0.0000 9999 0 0 0 0
2017/06/08 20:56:00 BASE 6.34 60 7.67 78 -3.1 69 -7.9 0 0 978.1 NA 0.0000 9999 0 0 0 0
2017/06/08 20:57:00 BASE 5.62 52 7.61 70 -3.1 69 -7.9 0 0 978.1 NA 0.0000 9999 0 0 0 0
2017/06/08 20:58:00 BASE 4.77 51 7.61 70 -3.0 69 -7.9 0 0 978.1 NA 0.0000 9999 0 0 0 0
2017/06/08 20:59:00 BASE 5.04 52 7.61 70 -2.9 69 -7.9 0 0 978.1 NA 0.0000 9999 0 0 0 0
2017/06/08 21:00:00 BASE 5.67 56 7.61 70 -2.8 68 -7.8 0 0 978.0 NA 0.0000 9999 0 0 0 0
2017/06/08 21:01:00 BASE 5.79 61 7.61 70 -2.7 68 -7.8 0 0 978.0 NA 0.0000 9999 0 0 0 0
2017/06/08 21:02:00 BASE 6.25 56 7.97 53 -2.6 67 -7.8 0 0 978.1 NA 0.0000 9999 0 0 0 0
2017/06/08 21:03:00 BASE 6.00 52 7.97 53 -2.6 67 -7.9 0 0 978.0 NA 0.0000 9999 0 0 0 0
2017/06/08 21:04:00 BASE 5.08 61 7.97 53 -2.6 66 -8.0 0 0 977.9 NA 0.0000 9999 0 0 0 0
2017/06/08 21:05:00 BASE 4.93 71 7.97 53 -2.6 66 -8.0 0 0 977.9 NA 0.0000 9999 0 0 0 0
2017/06/08 21:06:00 BASE 5.26 75 7.97 53 -2.7 66 -8.1 0 0 977.9 NA 0.0000 9999 11450 0 0 0
2017/06/08 21:07:00 BASE 6.25 74 7.97 53 -2.8 67 -8.1 0 0 977.9 NA 0.0000 9999 11290 0 0 0
2017/06/08 21:08:00 BASE 6.46 64 7.97 53 -2.8 67 -8.1 0 0 977.9 NA 0.0000 9999 0 0 0 0
2017/06/08 21:09:00 BASE 5.91 62 7.97 53 -2.9 67 -8.1 0 0 978.0 NA 0.0000 9999 11120 0 0 0
2017/06/08 21:10:00 BASE 5.13 74 7.97 53 -2.9 68 -8.1 0 0 978.0 NA 0.0000 9999 11190 0 0 0
2017/06/08 21:11:00 BASE 4.48 83 7.97 53 -3.0 68 -8.1 0 0 978.0 NA 0.0000 9999 0 0 0 0
2017/06/08 21:12:00 BASE 4.78 86 7.82 57 -3.1 68 -8.2 0 0 977.9 NA 0.0000 9999 11190 0 0 0
2017/06/08 21:13:00 BASE 5.18 83 7.82 57 -3.2 68 -8.2 0 0 977.9 NA 0.0000 9999 0 0 0 0
2017/06/08 21:14:00 BASE 6.16 75 7.82 66 -3.4 69 -8.3 0 0 978.0 NA 0.0000 9999 0 0 0 0
2017/06/08 21:15:00 BASE 6.76 69 7.82 66 -3.5 70 -8.2 0 0 978.0 NA 0.0000 9999 0 0 0 0
2017/06/08 21:16:00 BASE 6.18 72 7.82 66 -3.5 70 -8.1 0 0 977.9 NA 0.0000 9999 0 0 0 0
2017/06/08 21:17:00 BASE 5.96 79 7.82 66 -3.5 71 -8.0 0 0 978.0 NA 0.0000 9999 4630 0 0 0
2017/06/08 21:18:00 BASE 5.44 78 7.82 66 -3.5 71 -8.0 0 0 978.1 NA 0.0000 9999 0 0 0 0
2017/06/08 21:19:00 BASE 4.64 72 7.82 66 -3.4 71 -8.0 0 0 978.1 NA 0.0000 9999 0 0 0 0
2017/06/08 21:20:00 BASE 4.58 52 7.82 66 -3.4 71 -7.9 0 0 978.0 NA 0.0000 9999 0 0 0 0
2017/06/08 21:21:00 BASE 4.78 39 7.82 66 -3.3 71 -7.8 0 0 977.9 NA 0.0000 9999 0 0 0 0
2017/06/08 21:22:00 BASE 5.94 39 9.21 39 -3.2 71 -7.6 0 0 977.9 NA 0.0000 9999 0 0 0 0
2017/06/08 21:23:00 BASE 7.07 37 9.21 39 -3.1 71 -7.5 0 0 977.9 NA 0.0000 9999 0 0 0 0
2017/06/08 21:24:00 BASE 6.85 45 9.21 39 -2.9 71 -7.4 0 0 977.9 NA 0.0000 9999 0 0 0 0
2017/06/08 21:25:00 BASE 5.93 56 9.21 39 -2.7 70 -7.4 0 0 977.8 NA 0.0000 9999 10790 0 0 0
2017/06/08 21:26:00 BASE 5.08 60 9.21 39 -2.6 69 -7.5 0 0 977.8 NA 0.0000 9999 10960 0 0 0
2017/06/08 21:27:00 BASE 4.65 53 9.21 39 -2.5 68 -7.6 0 0 977.8 NA 0.0000 9999 11020 0 0 0
2017/06/08 21:28:00 BASE 5.08 51 9.21 39 -2.4 67 -7.7 0 0 977.9 NA 0.0000 9999 11120 0 0 0
2017/06/08 21:29:00 BASE 5.53 54 9.21 39 -2.4 67 -7.8 0 0 977.9 NA 0.0000 9999 10890 0 0 0
2017/06/08 21:30:00 BASE 5.40 49 9.21 39 -2.4 66 -7.9 0 0 977.9 NA 0.0000 9999 11020 0 0 0
2017/06/08 21:31:00 BASE 5.28 47 9.21 39 -2.4 67 -7.8 0 0 977.9 NA 0.0000 9999 11390 0 0 0
2017/06/08 21:32:00 BASE 5.70 33 8.03 45 -2.4 67 -7.7 0 0 977.7 NA 0.0000 9999 11390 0 0 0
2017/06/08 21:33:00 BASE 4.97 19 7.92 23 -2.2 66 -7.7 0 0 977.6 NA 0.0000 9999 11420 0 0 0
2017/06/08 21:34:00 BASE 3.16 33 7.92 23 -2.0 65 -7.7 0 0 977.7 NA 0.0000 9999 11450 0 0 0
2017/06/08 21:35:00 BASE 3.27 51 7.92 23 -1.8 64 -7.8 0 0 977.7 NA 0.0000 9999 11650 0 0 0
2017/06/08 21:36:00 BASE 4.56 69 7.92 23 -1.8 62 -8.0 0 0 977.7 NA 0.0000 9999 11780 0 0 0
2017/06/08 21:37:00 BASE 7.11 70 10.39 25 -1.8 62 -8.1 0 0 977.5 NA 0.0000 9999 11810 0 0 0
2017/06/08 21:38:00 BASE 8.84 45 10.70 32 -1.7 61 -8.2 0 0 977.3 NA 0.0000 9999 11810 0 0 0
2017/06/08 21:39:00 BASE 7.22 35 10.70 32 -1.7 60 -8.3 0 0 977.4 NA 0.0000 9999 11910 0 0 0
2017/06/08 21:40:00 BASE 5.92 63 10.70 32 -1.6 59 -8.5 0 0 977.4 NA 0.0000 9999 12240 0 0 0
2017/06/08 21:41:00 BASE 6.46 82 10.70 32 -1.5 59 -8.5 0 0 977.5 NA 0.0000 9999 3450 11610 0 0
2017/06/08 21:42:00 BASE 6.93 75 10.70 32 -1.5 59 -8.6 0 0 977.6 NA 0.0000 9999 10860 0 0 0
2017/06/08 21:43:00 BASE 6.79 67 10.70 32 -1.7 60 -8.5 0 0 977.6 NA 0.0000 9999 10660 0 0 0
2017/06/08 21:44:00 BASE 7.00 60 10.70 32 -2.0 62 -8.4 0 0 977.5 NA 0.0000 9999 12010 0 0 0
2017/06/08 21:45:00 BASE 7.06 64 10.70 32 -2.3 64 -8.3 0 0 977.4 NA 0.0000 9999 10930 0 0 0
2017/06/08 21:46:00 BASE 6.24 76 10.70 32 -2.5 66 -8.1 0 0 977.4 NA 0.0000 9999 11250 0 0 0
2017/06/08 21:47:00 BASE 6.28 83 10.70 32 -2.7 67 -8.0 0 0 977.3 NA 0.0000 9999 12140 0 0 0
2017/06/08 21:48:00 BASE 6.96 85 8.49 60 -2.8 68 -7.9 0 0 977.3 NA 0.0000 9999 12210 0 0 0
2017/06/08 21:49:00 BASE 6.84 83 8.49 60 -2.9 69 -7.8 0 0 977.3 NA 0.0000 9999 11980 0 0 0
2017/06/08 21:50:00 BASE 6.79 74 8.49 60 -3.0 69 -7.8 0 0 977.4 NA 0.0000 9999 12010 0 0 0
2017/06/08 21:51:00 BASE 6.59 72 8.49 60 -3.0 70 -7.7 0 0 977.3 NA 0.0000 9999 11840 0 0 0
2017/06/08 21:52:00 BASE 6.51 78 8.49 60 -2.9 70 -7.6 0 0 977.3 NA 0.0000 9999 11710 0 0 0
2017/06/08 21:53:00 BASE 8.05 80 10.44 75 -2.8 71 -7.4 0 0 977.3 NA 0.0000 9999 11520 0 0 0
2017/06/08 21:54:00 BASE 9.15 75 10.44 75 -2.8 71 -7.4 0 0 977.3 NA 0.0000 9999 11910 0 0 0
2017/06/08 21:55:00 BASE 8.06 75 10.44 75 -2.7 71 -7.3 0 0 977.3 NA 0.0000 9999 12240 0 0 0
2017/06/08 21:56:00 BASE 6.51 81 10.44 75 -2.7 70 -7.4 0 0 977.2 NA 0.0000 9999 12040 0 0 0
2017/06/08 21:57:00 BASE 6.37 83 10.44 75 -2.7 70 -7.4 0 0 977.2 NA 0.0000 9999 12040 0 0 0
2017/06/08 21:58:00 BASE 6.75 79 10.44 75 -2.7 70 -7.4 0 0 977.2 NA 0.0000 9999 12210 0 0 0
2017/06/08 21:59:00 BASE 6.76 78 10.44 75 -2.7 70 -7.4 0 0 977.2 NA 0.0000 9999 12240 0 0 0
2017/06/08 22:00:00 BASE 7.20 82 10.44 75 -2.7 70 -7.4 0 0 977.1 NA 0.0000 9999 12240 0 0 0
2017/06/08 22:01:00 BASE 7.59 86 10.44 75 -2.7 70 -7.4 0 0 977.1 NA 0.0000 9999 12170 0 0 0
2017/06/08 22:02:00 BASE 7.41 88 10.44 75 -2.7 71 -7.3 0 0 977.1 NA 0.0000 9999 10930 0 0 0
2017/06/08 22:03:00 BASE 7.15 91 9.83 77 -2.8 71 -7.4 0 0 977.1 NA 0.0000 9999 12070 0 0 0
2017/06/08 22:04:00 BASE 6.67 92 9.31 72 -2.8 71 -7.3 0 0 977.1 NA 0.0000 9999 12170 0 0 0
2017/06/08 22:05:00 BASE 6.40 84 8.59 82 -2.8 71 -7.3 0 0 977.2 NA 0.0000 9999 11980 0 0 0
2017/06/08 22:06:00 BASE 5.80 71 8.59 82 -2.8 71 -7.3 0 0 977.3 NA 0.0000 9999 12340 0 0 0
2017/06/08 22:07:00 BASE 4.73 63 8.59 82 -2.8 71 -7.3 0 0 977.2 NA 0.0000 9999 12570 0 0 0
2017/06/08 22:08:00 BASE 4.36 66 8.59 82 -2.7 71 -7.3 0 0 977.2 NA 0.0000 9999 12600 0 0 0
2017/06/08 22:09:00 BASE 4.41 77 8.59 82 -2.7 71 -7.3 0 0 977.2 NA 0.0000 9999 12600 0 0 0
2017/06/08 22:10:00 BASE 3.76 82 8.03 89 -2.8 71 -7.4 0 0 977.0 NA 0.0000 9999 12600 0 0 0
2017/06/08 22:11:00 BASE 3.18 82 8.03 89 -2.8 71 -7.4 0 0 976.9 NA 0.0000 9999 12530 0 0 0
2017/06/08 22:12:00 BASE 3.41 88 7.67 88 -2.9 71 -7.4 0 0 976.8 NA 0.0000 9999 12400 0 0 0
2017/06/08 22:13:00 BASE 3.53 90 6.74 80 -3.0 71 -7.4 0 0 977.0 NA 0.0000 9999 12370 0 0 0
2017/06/08 22:14:00 BASE 4.17 74 6.74 80 -3.0 72 -7.5 0 0 977.1 NA 0.0000 9999 12400 0 0 0
2017/06/08 22:15:00 BASE 4.56 66 5.76 76 -3.0 72 -7.4 0 0 977.1 NA 0.0000 9999 12400 0 0 0
2017/06/08 22:16:00 BASE 4.56 79 5.92 79 -3.0 72 -7.4 0 0 977.1 NA 0.0000 9999 12340 0 0 0
2017/06/08 22:17:00 BASE 4.39 91 5.92 79 -3.0 72 -7.4 0 0 977.0 NA 0.0000 9999 12530 0 0 0
2017/06/08 22:18:00 BASE 4.01 98 5.92 79 -2.9 71 -7.4 0 0 977.0 NA 0.0000 9999 12570 0 0 0
2017/06/08 22:19:00 BASE 4.60 99 6.33 97 -2.8 71 -7.4 0 0 977.0 NA 0.0000 9999 12500 0 0 0
2017/06/08 22:20:00 BASE 4.57 86 6.33 97 -2.8 70 -7.5 0 0 977.0 NA 0.0000 9999 12400 0 0 0
2017/06/08 22:21:00 BASE 4.23 72 6.33 97 -2.7 70 -7.5 0 0 977.0 NA 0.0000 9999 12470 0 0 0
2017/06/08 22:22:00 BASE 4.60 67 6.33 97 -2.7 69 -7.6 0 0 977.1 NA 0.0000 9999 12430 0 0 0
2017/06/08 22:23:00 BASE 4.55 69 6.33 97 -2.8 69 -7.7 0 0 977.0 NA 0.0000 9999 12300 0 0 0
2017/06/08 22:24:00 BASE 3.67 75 6.33 97 -2.8 69 -7.7 0 0 977.0 NA 0.0000 9999 10500 0 0 0
2017/06/08 22:25:00 BASE 3.47 81 6.33 97 -2.9 69 -7.8 0 0 977.0 NA 0.0000 9999 10430 0 0 0
2017/06/08 22:26:00 BASE 4.66 86 7.05 86 -2.9 69 -7.8 0 0 976.9 NA 0.0000 9999 10470 0 0 0
2017/06/08 22:27:00 BASE 6.07 85 7.77 76 -2.9 70 -7.7 0 0 976.9 NA 0.0000 9999 10630 0 0 0
2017/06/08 22:28:00 BASE 6.66 74 8.08 70 -2.8 70 -7.6 0 0 977.1 NA 0.0000 9999 10700 0 0 0
2017/06/08 22:29:00 BASE 6.22 67 8.08 70 -2.8 69 -7.6 0 0 977.1 NA 0.0000 9999 10600 0 0 0
2017/06/08 22:30:00 BASE 5.96 69 8.08 70 -2.7 70 -7.5 0 0 977.1 NA 0.0000 9999 10890 0 0 0
2017/06/08 22:31:00 BASE 6.30 73 8.08 70 -2.7 70 -7.5 0 0 977.0 NA 0.0000 9999 10890 0 0 0
2017/06/08 22:32:00 BASE 6.74 78 8.08 70 -2.8 70 -7.5 0 0 977.0 NA 0.0000 9999 10890 0 0 0
2017/06/08 22:33:00 BASE 6.37 78 8.08 70 -2.8 70 -7.5 0 0 977.0 NA 0.0000 9999 6270 10960 0 0
2017/06/08 22:34:00 BASE 5.90 78 8.08 70 -2.9 71 -7.5 0 0 976.8 NA 0.0000 9999 10960 0 0 0
2017/06/08 22:35:00 BASE 5.91 81 8.08 70 -2.9 71 -7.4 0 0 976.7 NA 0.0000 9999 11290 0 0 0
2017/06/08 22:36:00 BASE 5.91 80 8.08 70 -3.0 72 -7.4 0 0 976.8 NA 0.0000 9999 11290 0 0 0
2017/06/08 22:37:00 BASE 6.31 78 8.08 70 -3.0 72 -7.4 0 0 976.8 NA 0.0000 9999 11290 0 0 0
2017/06/08 22:38:00 BASE 6.37 77 7.61 84 -3.0 72 -7.3 0 0 976.8 NA 0.0000 9999 11350 0 0 0
2017/06/08 22:39:00 BASE 5.50 73 7.61 84 -3.0 72 -7.3 0 0 976.8 NA 0.0000 9999 11880 0 0 0
2017/06/08 22:40:00 BASE 4.68 70 7.61 84 -3.1 73 -7.3 0 0 976.8 NA 0.0000 9999 10960 0 0 0
2017/06/08 22:41:00 BASE 4.75 71 7.36 73 -3.1 73 -7.3 0 0 976.9 NA 0.0000 9999 10930 0 0 0
2017/06/08 22:42:00 BASE 5.21 78 7.20 84 -3.1 73 -7.2 0 0 977.0 NA 0.0000 9999 12700 0 0 0
2017/06/08 22:43:00 BASE 5.33 85 7.20 84 -3.1 73 -7.2 0 0 977.0 NA 0.0000 9999 10990 0 0 0
2017/06/08 22:44:00 BASE 5.36 84 7.20 84 -3.1 73 -7.2 0 0 976.9 NA 0.0000 9999 10960 0 0 0
2017/06/08 22:45:00 BASE 5.64 83 7.20 84 -3.0 73 -7.2 0 0 976.8 NA 0.0000 9999 10860 0 0 0
2017/06/08 22:46:00 BASE 5.57 83 7.20 84 -3.0 73 -7.2 0 0 976.9 NA 0.0000 9999 10790 0 0 0
2017/06/08 22:47:00 BASE 5.45 78 7.05 74 -3.0 73 -7.2 0 0 976.8 NA 0.0000 9999 10700 0 0 0
2017/06/08 22:48:00 BASE 5.65 75 7.05 74 -3.0 73 -7.2 0 0 976.8 NA 0.0000 9999 10730 0 0 0
2017/06/08 22:49:00 BASE 6.15 74 7.67 66 -3.1 73 -7.2 0 0 976.8 NA 0.0000 9999 10760 0 0 0
2017/06/08 22:50:00 BASE 6.36 77 7.67 66 -3.1 73 -7.2 0 0 976.8 NA 0.0000 9999 10700 0 0 0
2017/06/08 22:51:00 BASE 6.12 85 7.67 66 -3.1 73 -7.3 0 0 976.7 NA 0.0000 9999 12340 0 0 0
2017/06/08 22:52:00 BASE 6.33 91 7.67 66 -3.1 73 -7.3 0 0 976.7 NA 0.0000 9999 12370 0 0 0
2017/06/08 22:53:00 BASE 6.03 88 7.67 66 -3.0 73 -7.2 0 0 976.7 NA 0.0000 9999 12270 0 0 0
2017/06/08 22:54:00 BASE 5.66 88 7.67 66 -3.0 73 -7.2 0 0 976.7 NA 0.0000 9999 10470 0 0 0
2017/06/08 22:55:00 BASE 5.35 94 7.67 66 -2.9 72 -7.2 0 0 976.7 NA 0.0000 9999 10500 0 0 0
2017/06/08 22:56:00 BASE 4.87 95 7.67 66 -2.9 72 -7.2 0 0 976.6 NA 0.0000 9999 10470 0 0 0
2017/06/08 22:57:00 BASE 4.69 84 7.67 66 -2.9 72 -7.2 0 0 976.6 NA 0.0000 9999 10470 0 0 0
2017/06/08 22:58:00 BASE 4.70 74 7.67 66 -3.0 72 -7.3 0 0 976.7 NA 0.0000 9999 12300 0 0 0
2017/06/08 22:59:00 BASE 4.92 73 6.84 90 -3.0 73 -7.2 0 0 976.7 NA 0.0000 9999 12370 0 0 0
2017/06/08 23:00:00 BASE 4.61 72 6.84 90 -3.0 73 -7.2 0 0 976.6 NA 0.0000 9999 12530 0 0 0
2017/06/08 23:01:00 BASE 3.87 80 6.84 90 -3.0 73 -7.2 0 0 976.5 NA 0.0000 9999 10890 0 0 0
2017/06/08 23:02:00 BASE 3.87 84 6.53 84 -3.0 72 -7.2 0 0 976.5 NA 0.0000 9999 10860 0 0 0
2017/06/08 23:03:00 BASE 4.58 77 6.53 84 -3.0 72 -7.3 0 0 976.5 NA 0.0000 9999 10790 0 0 0
2017/06/08 23:04:00 BASE 5.20 75 6.07 71 -3.0 72 -7.4 0 0 976.6 NA 0.0000 9999 10730 0 0 0
2017/06/08 23:05:00 BASE 5.34 78 6.07 71 -3.1 72 -7.4 0 0 976.5 NA 0.0000 9999 10700 0 0 0
2017/06/08 23:06:00 BASE 5.40 85 6.07 71 -3.1 72 -7.4 0 0 976.5 NA 0.0000 9999 10630 0 0 0
2017/06/08 23:07:00 BASE 5.22 88 6.07 71 -3.2 72 -7.5 0 0 976.5 NA 0.0000 9999 10530 0 0 0
2017/06/08 23:08:00 BASE 4.65 85 6.07 71 -3.2 73 -7.4 0 0 976.5 NA 0.0000 9999 10530 0 0 0
2017/06/08 23:09:00 BASE 4.77 80 6.07 71 -3.2 73 -7.4 0 0 976.5 NA 0.0000 9999 10530 0 0 0
2017/06/08 23:10:00 BASE 4.88 73 6.07 71 -3.2 73 -7.3 0 0 976.5 NA 0.0000 9999 10630 0 0 0
2017/06/08 23:11:00 BASE 4.37 73 6.07 71 -3.1 73 -7.3 0 0 976.5 NA 0.0000 9999 7020 10700 0 0
2017/06/08 23:12:00 BASE 4.08 69 6.07 71 -3.1 73 -7.3 0 0 976.5 NA 0.0000 9999 10790 0 0 0
2017/06/08 23:13:00 BASE 4.20 65 6.07 71 -3.0 72 -7.2 0 0 976.6 NA 0.0000 9999 12990 0 0 0
2017/06/08 23:14:00 BASE 4.20 71 5.92 92 -2.9 72 -7.2 0 0 976.6 NA 0.0000 9999 10960 0 0 0
2017/06/08 23:15:00 BASE 4.35 75 5.92 92 -2.8 72 -7.2 0 0 976.5 NA 0.0000 9999 11350 0 0 0
2017/06/08 23:16:00 BASE 5.08 76 6.58 87 -2.8 71 -7.2 0 0 976.5 NA 0.0000 9999 11060 0 0 0
2017/06/08 23:17:00 BASE 5.75 77 7.15 81 -2.7 71 -7.2 0 0 976.5 NA 0.0000 9999 12830 0 0 0
2017/06/08 23:18:00 BASE 6.26 80 7.25 87 -2.8 71 -7.3 0 0 976.4 NA 0.0000 9999 10730 0 0 0
2017/06/08 23:19:00 BASE 6.54 84 7.25 91 -2.8 71 -7.2 0 0 976.4 NA 0.0000 9999 7120 10660 0 0
2017/06/08 23:20:00 BASE 6.83 88 7.97 92 -2.8 72 -7.2 0 0 976.4 NA 0.0000 9999 10790 0 0 0
2017/06/08 23:21:00 BASE 7.08 84 8.18 78 -2.8 72 -7.2 0 0 976.4 NA 0.0000 9999 10730 0 0 0
2017/06/08 23:22:00 BASE 6.91 76 8.18 78 -2.8 72 -7.1 0 0 976.5 NA 0.0000 9999 12730 0 0 0
2017/06/08 23:23:00 BASE 6.31 75 8.18 78 -2.8 72 -7.1 0 0 976.4 NA 0.0000 9999 12660 0 0 0
2017/06/08 23:24:00 BASE 5.67 76 8.18 78 -2.8 72 -7.1 0 0 976.5 NA 0.0000 9999 12600 0 0 0
2017/06/08 23:25:00 BASE 5.29 74 8.18 78 -2.8 72 -7.1 0 0 976.5 NA 0.0000 9999 12570 0 0 0
2017/06/08 23:26:00 BASE 5.05 74 8.18 78 -2.8 72 -7.1 0 0 976.4 NA 0.0000 9999 12600 0 0 0
2017/06/08 23:27:00 BASE 5.24 80 8.18 78 -2.8 72 -7.1 0 0 976.4 NA 0.0000 9999 12530 0 0 0
2017/06/08 23:28:00 BASE 5.10 84 8.18 78 -2.8 72 -7.1 0 0 976.4 NA 0.0000 9999 12470 0 0 0
2017/06/08 23:29:00 BASE 4.49 81 8.18 78 -2.8 72 -7.1 0 0 976.5 NA 0.0000 9999 12430 0 0 0
2017/06/08 23:30:00 BASE 4.95 72 8.18 78 -2.8 72 -7.1 0 0 976.5 NA 0.0000 9999 12530 0 0 0
2017/06/08 23:31:00 BASE 5.42 67 7.25 68 -2.8 72 -7.1 0 0 976.5 NA 0.0000 9999 12760 0 0 0
2017/06/08 23:32:00 BASE 5.15 75 6.69 68 -2.8 73 -7.1 0 0 976.4 NA 0.0000 9999 10960 0 0 0
2017/06/08 23:33:00 BASE 5.27 87 6.69 68 -2.8 73 -7.0 0 0 976.4 NA 0.0000 9999 12930 0 0 0
2017/06/08 23:34:00 BASE 6.15 88 7.77 82 -2.8 73 -7.0 0 0 976.3 NA 0.0000 9999 12960 0 0 0
2017/06/08 23:35:00 BASE 6.75 84 7.77 82 -2.8 73 -7.0 0 0 976.3 NA 0.0000 9999 12960 0 0 0
2017/06/08 23:36:00 BASE 6.16 88 7.77 82 -2.8 73 -7.0 0 0 976.3 NA 0.0000 9999 3770 11250 0 0
2017/06/08 23:37:00 BASE 6.38 95 7.92 99 -2.9 73 -7.0 0 0 976.2 NA 0.0000 9999 11120 0 0 0
2017/06/08 23:38:00 BASE 7.29 99 7.92 99 -2.9 73 -7.0 0 0 976.2 NA 0.0000 9999 11020 0 0 0
2017/06/08 23:39:00 BASE 6.72 98 7.92 99 -2.9 73 -7.0 0 0 976.2 NA 0.0000 9999 11320 0 0 0
2017/06/08 23:40:00 BASE 5.75 91 7.92 99 -2.9 73 -7.0 0 0 976.2 NA 0.0000 9999 11060 0 0 0
2017/06/08 23:41:00 BASE 5.65 79 7.92 99 -2.9 73 -6.9 0 0 976.2 NA 0.0000 9999 4100 0 0 0
2017/06/08 23:42:00 BASE 5.35 74 7.92 99 -2.8 73 -6.9 0 0 976.2 NA 0.0000 9999 4170 0 0 0
2017/06/08 23:43:00 BASE 5.43 77 7.92 99 -2.8 73 -7.0 0 0 976.2 NA 0.0000 9999 12730 0 0 0
2017/06/08 23:44:00 BASE 5.76 78 7.92 99 -2.9 73 -7.0 0 0 976.2 NA 0.0000 9999 3870 0 0 0
2017/06/08 23:45:00 BASE 5.76 75 7.92 99 -2.9 73 -7.1 0 0 976.1 NA 0.0000 9999 10660 0 0 0
2017/06/08 23:46:00 BASE 5.68 69 7.92 99 -3.0 73 -7.1 0 0 976.2 NA 0.0000 9999 12700 0 0 0
2017/06/08 23:47:00 BASE 5.62 71 7.92 99 -3.0 73 -7.1 0 0 976.2 NA 0.0000 9999 4070 0 0 0
2017/06/08 23:48:00 BASE 5.81 76 7.46 78 -3.1 73 -7.1 0 0 976.1 NA 0.0000 9999 4130 0 0 0
2017/06/08 23:49:00 BASE 6.56 74 9.21 66 -3.1 74 -7.1 0 0 976.0 NA 0.0000 9999 4300 4760 0 0
2017/06/08 23:50:00 BASE 7.87 73 9.62 71 -3.1 74 -7.1 0 0 976.0 NA 0.0000 9999 12630 0 0 0
2017/06/08 23:51:00 BASE 8.45 71 9.88 75 -3.1 74 -7.1 0 0 976.0 NA 0.0000 9999 4300 0 0 0
2017/06/08 23:52:00 BASE 8.69 70 9.88 75 -3.1 74 -7.0 0 0 975.9 NA 0.0000 9999 3840 0 0 0
2017/06/08 23:53:00 BASE 8.92 74 9.88 75 -3.0 74 -7.0 0 0 975.8 NA 0.0000 9999 4100 0 0 0
2017/06/08 23:54:00 BASE 8.71 81 9.88 75 -3.0 74 -7.0 0 0 975.8 NA 0.0000 9999 12600 0 0 0
2017/06/08 23:55:00 BASE 8.33 87 9.88 75 -3.0 74 -7.0 0 0 975.7 NA 0.0000 9999 12570 0 0 0
2017/06/08 23:56:00 BASE 7.60 87 9.88 75 -3.0 74 -7.0 0 0 975.8 NA 0.0000 9999 12530 0 0 0
2017/06/08 23:57:00 BASE 6.49 83 9.88 75 -2.9 74 -7.0 0 0 975.8 NA 0.0000 9999 12700 0 0 0
2017/06/08 23:58:00 BASE 6.24 85 9.88 75 -2.9 73 -7.0 0 0 975.7 NA 0.0000 9999 11090 0 0 0
2017/06/08 23:59:00 BASE 6.81 91 9.88 75 -2.9 73 -7.0 0 0 975.7 NA 0.0000 9999 11120 0 0 0